<?xml version='1.0' encoding='UTF-8'?><gpx version="1.1" creator="JPX - https://github.com/jenetics/jpx" xmlns="http://www.topografix.com/GPX/1/1"><trk><trkseg><trkpt lat="44.42052191519395" lon="8.946905659326122"><ele>14.0</ele><time>2026-04-25T07:21:39.726Z</time></trkpt><trkpt lat="44.420893472642284" lon="8.947086141866663"><ele>14.0</ele><time>2026-04-25T07:26:46.389Z</time></trkpt><trkpt lat="44.420817619212976" lon="8.946993421379148"><ele>14.0</ele><time>2026-04-25T07:26:54.961Z</time></trkpt><trkpt lat="44.42056575736107" lon="8.946944672932421"><ele>14.0</ele><time>2026-04-25T07:26:59.484Z</time></trkpt><trkpt lat="44.42079405456149" lon="8.947029711273899"><ele>14.0</ele><time>2026-04-25T07:27:25.697Z</time></trkpt><trkpt lat="44.42059218599826" lon="8.947135805658533"><ele>14.0</ele><time>2026-04-25T07:27:32.19Z</time></trkpt><trkpt lat="44.420498019587384" lon="8.947008988700004"><ele>14.0</ele><time>2026-04-25T07:27:46.001Z</time></trkpt><trkpt lat="44.420557505848116" lon="8.94697644465466"><ele>14.0</ele><time>2026-04-25T07:28:02.991Z</time></trkpt><trkpt lat="44.42062665426631" lon="8.946955850007871"><ele>14.0</ele><time>2026-04-25T07:28:05.993Z</time></trkpt><trkpt lat="44.42069361612227" lon="8.94692457917687"><ele>14.0</ele><time>2026-04-25T07:28:09.994Z</time></trkpt><trkpt lat="44.42075496084406" lon="8.9468821419915"><ele>14.0</ele><time>2026-04-25T07:28:13.996Z</time></trkpt><trkpt lat="44.420775956953015" lon="8.946794701365752"><ele>14.0</ele><time>2026-04-25T07:28:18.997Z</time></trkpt><trkpt lat="44.42085026102836" lon="8.946789655704388"><ele>14.0</ele><time>2026-04-25T07:28:21.998Z</time></trkpt><trkpt lat="44.4209141893479" lon="8.94677609885169"><ele>14.0</ele><time>2026-04-25T07:28:23.998Z</time></trkpt><trkpt lat="44.42101121408249" lon="8.946756330170974"><ele>14.0</ele><time>2026-04-25T07:28:26.998Z</time></trkpt><trkpt lat="44.421078532546964" lon="8.946752187368542"><ele>14.0</ele><time>2026-04-25T07:28:28.999Z</time></trkpt><trkpt lat="44.42121359894812" lon="8.94674313217052"><ele>14.0</ele><time>2026-04-25T07:28:32.999Z</time></trkpt><trkpt lat="44.42138706413319" lon="8.94674695105145"><ele>14.0</ele><time>2026-04-25T07:28:38.999Z</time></trkpt><trkpt lat="44.42151754006455" lon="8.946754872576372"><ele>14.0</ele><time>2026-04-25T07:28:46Z</time></trkpt><trkpt lat="44.4216047059619" lon="8.946774781644594"><ele>14.000000000000002</ele><time>2026-04-25T07:28:49Z</time></trkpt><trkpt lat="44.42169846850839" lon="8.94677899088212"><ele>14.0</ele><time>2026-04-25T07:28:52Z</time></trkpt><trkpt lat="44.42176348375341" lon="8.946787457991391"><ele>14.0</ele><time>2026-04-25T07:28:54Z</time></trkpt><trkpt lat="44.42186017064806" lon="8.946788922941005"><ele>14.0</ele><time>2026-04-25T07:28:57Z</time></trkpt><trkpt lat="44.421972902547246" lon="8.946804975652865"><ele>14.000000000000002</ele><time>2026-04-25T07:29:01Z</time></trkpt><trkpt lat="44.422036354802735" lon="8.94681704811368"><ele>14.0</ele><time>2026-04-25T07:29:03Z</time></trkpt><trkpt lat="44.42218781309601" lon="8.946835157947795"><ele>14.166666666666668</ele><time>2026-04-25T07:29:08Z</time></trkpt><trkpt lat="44.422250661985444" lon="8.946851550038732"><ele>14.333333333333334</ele><time>2026-04-25T07:29:10Z</time></trkpt><trkpt lat="44.422338178122324" lon="8.946865955325269"><ele>14.5</ele><time>2026-04-25T07:29:13Z</time></trkpt><trkpt lat="44.42242120582636" lon="8.94688752843376"><ele>14.666666666666668</ele><time>2026-04-25T07:29:16Z</time></trkpt><trkpt lat="44.42254972773441" lon="8.946891903597328"><ele>14.833333333333334</ele><time>2026-04-25T07:29:21Z</time></trkpt><trkpt lat="44.422625944392195" lon="8.946920163563307"><ele>15.0</ele><time>2026-04-25T07:29:24Z</time></trkpt><trkpt lat="44.422692694923306" lon="8.946946470506319"><ele>15.0</ele><time>2026-04-25T07:29:27Z</time></trkpt><trkpt lat="44.42277698589928" lon="8.94695071979128"><ele>15.0</ele><time>2026-04-25T07:29:30Z</time></trkpt><trkpt lat="44.42283825102962" lon="8.946991683255815"><ele>15.0</ele><time>2026-04-25T07:29:35Z</time></trkpt><trkpt lat="44.42304696497737" lon="8.94700063027526"><ele>15.0</ele><time>2026-04-25T07:29:47Z</time></trkpt><trkpt lat="44.423118850181694" lon="8.94702280526591"><ele>15.0</ele><time>2026-04-25T07:29:52Z</time></trkpt><trkpt lat="44.423243614655576" lon="8.94705675100889"><ele>15.5</ele><time>2026-04-25T07:30:11.999Z</time></trkpt><trkpt lat="44.42331272018245" lon="8.94707810791421"><ele>16.0</ele><time>2026-04-25T07:30:15Z</time></trkpt><trkpt lat="44.42353092610106" lon="8.947061833490418"><ele>16.5</ele><time>2026-04-25T07:30:23Z</time></trkpt><trkpt lat="44.423637021574436" lon="8.947074836511998"><ele>17.0</ele><time>2026-04-25T07:30:25Z</time></trkpt><trkpt lat="44.42374609648286" lon="8.947090532064408"><ele>17.666666666666668</ele><time>2026-04-25T07:30:27Z</time></trkpt><trkpt lat="44.42385028995038" lon="8.947127655618548"><ele>18.333333333333336</ele><time>2026-04-25T07:30:29Z</time></trkpt><trkpt lat="44.423937540020745" lon="8.947139767411562"><ele>19.0</ele><time>2026-04-25T07:30:31Z</time></trkpt><trkpt lat="44.42399431338789" lon="8.947184094542957"><ele>19.666666666666668</ele><time>2026-04-25T07:30:40Z</time></trkpt><trkpt lat="44.42407698980748" lon="8.947187185856805"><ele>20.333333333333332</ele><time>2026-04-25T07:30:44Z</time></trkpt><trkpt lat="44.42412346707092" lon="8.947276412619065"><ele>21.0</ele><time>2026-04-25T07:30:48Z</time></trkpt><trkpt lat="44.42418825599677" lon="8.947315491600929"><ele>21.0</ele><time>2026-04-25T07:30:50Z</time></trkpt><trkpt lat="44.42420092644677" lon="8.947417749447911"><ele>21.0</ele><time>2026-04-25T07:30:52Z</time></trkpt><trkpt lat="44.424195221430544" lon="8.94751560937194"><ele>21.0</ele><time>2026-04-25T07:30:54Z</time></trkpt><trkpt lat="44.424249701324236" lon="8.947582669889423"><ele>21.0</ele><time>2026-04-25T07:30:56Z</time></trkpt><trkpt lat="44.42431206899961" lon="8.947608900668005"><ele>21.0</ele><time>2026-04-25T07:30:58Z</time></trkpt><trkpt lat="44.424380179130424" lon="8.947608032922595"><ele>21.0</ele><time>2026-04-25T07:31:00Z</time></trkpt><trkpt lat="44.42444579561075" lon="8.947578583461858"><ele>21.0</ele><time>2026-04-25T07:31:02Z</time></trkpt><trkpt lat="44.42451362306709" lon="8.947593622066563"><ele>21.333333333333332</ele><time>2026-04-25T07:31:04Z</time></trkpt><trkpt lat="44.424579032575465" lon="8.947623748355987"><ele>21.666666666666668</ele><time>2026-04-25T07:31:06Z</time></trkpt><trkpt lat="44.42465287197355" lon="8.94762667919178"><ele>22.0</ele><time>2026-04-25T07:31:08Z</time></trkpt><trkpt lat="44.42475792469958" lon="8.947637192076487"><ele>22.333333333333336</ele><time>2026-04-25T07:31:11Z</time></trkpt><trkpt lat="44.42481769685315" lon="8.947692408685377"><ele>22.666666666666668</ele><time>2026-04-25T07:31:13Z</time></trkpt><trkpt lat="44.424882787252315" lon="8.947711868624474"><ele>23.0</ele><time>2026-04-25T07:31:15Z</time></trkpt><trkpt lat="44.424949659979895" lon="8.94772665528602"><ele>23.142857142857142</ele><time>2026-04-25T07:31:17Z</time></trkpt><trkpt lat="44.42501358284022" lon="8.947680818444269"><ele>23.285714285714285</ele><time>2026-04-25T07:31:19Z</time></trkpt><trkpt lat="44.425089624766215" lon="8.947663829979737"><ele>23.428571428571427</ele><time>2026-04-25T07:31:21Z</time></trkpt><trkpt lat="44.42516139357021" lon="8.947681779757513"><ele>23.57142857142857</ele><time>2026-04-25T07:31:23Z</time></trkpt><trkpt lat="44.425236739817464" lon="8.947709316362824"><ele>23.714285714285715</ele><time>2026-04-25T07:31:25Z</time></trkpt><trkpt lat="44.42530659337671" lon="8.947742845394822"><ele>23.857142857142854</ele><time>2026-04-25T07:31:27Z</time></trkpt><trkpt lat="44.425350019174715" lon="8.947825932561818"><ele>24.0</ele><time>2026-04-25T07:31:29Z</time></trkpt><trkpt lat="44.42536807624797" lon="8.947933505676604"><ele>23.999999999999996</ele><time>2026-04-25T07:31:31Z</time></trkpt><trkpt lat="44.42538642777157" lon="8.94802113598277"><ele>24.0</ele><time>2026-04-25T07:31:35Z</time></trkpt><trkpt lat="44.42538994682597" lon="8.948126804408544"><ele>24.0</ele><time>2026-04-25T07:31:39Z</time></trkpt><trkpt lat="44.4253678834771" lon="8.948229366988782"><ele>24.0</ele><time>2026-04-25T07:31:42Z</time></trkpt><trkpt lat="44.425338433501146" lon="8.948336053151694"><ele>24.0</ele><time>2026-04-25T07:31:45Z</time></trkpt><trkpt lat="44.42530284583191" lon="8.948418375752311"><ele>23.999999999999996</ele><time>2026-04-25T07:31:50Z</time></trkpt><trkpt lat="44.425256623662875" lon="8.948500328721137"><ele>24.0</ele><time>2026-04-25T07:32:20Z</time></trkpt><trkpt lat="44.42526524042015" lon="8.948601525180564"><ele>24.71428571428571</ele><time>2026-04-25T07:32:25Z</time></trkpt><trkpt lat="44.42532889471038" lon="8.948646047169975"><ele>25.42857142857143</ele><time>2026-04-25T07:32:33Z</time></trkpt><trkpt lat="44.42539896254585" lon="8.94872633260132"><ele>26.142857142857146</ele><time>2026-04-25T07:37:25Z</time></trkpt><trkpt lat="44.42544236886702" lon="8.948796317647846"><ele>26.857142857142858</ele><time>2026-04-25T07:37:58Z</time></trkpt><trkpt lat="44.42541724694177" lon="8.948878030666128"><ele>27.571428571428573</ele><time>2026-04-25T07:38:29.999Z</time></trkpt><trkpt lat="44.425411055440705" lon="8.948966844345223"><ele>28.28571428571429</ele><time>2026-04-25T07:38:37Z</time></trkpt><trkpt lat="44.42543463043076" lon="8.949049672304692"><ele>29.000000000000004</ele><time>2026-04-25T07:38:48Z</time></trkpt><trkpt lat="44.4254529652299" lon="8.949140067452644"><ele>30.4</ele><time>2026-04-25T07:38:59Z</time></trkpt><trkpt lat="44.42547147035458" lon="8.949238929471393"><ele>31.799999999999997</ele><time>2026-04-25T07:39:04Z</time></trkpt><trkpt lat="44.42542337134296" lon="8.949330290344026"><ele>33.2</ele><time>2026-04-25T07:39:57Z</time></trkpt><trkpt lat="44.425485358147" lon="8.949376014973927"><ele>34.6</ele><time>2026-04-25T07:40:03Z</time></trkpt><trkpt lat="44.4256188080817" lon="8.949393709827675"><ele>36.0</ele><time>2026-04-25T07:40:08Z</time></trkpt><trkpt lat="44.4258510264281" lon="8.949403197751426"><ele>36.0</ele><time>2026-04-25T07:40:15Z</time></trkpt><trkpt lat="44.42593331278587" lon="8.949422197213027"><ele>36.0</ele><time>2026-04-25T07:40:17Z</time></trkpt><trkpt lat="44.4259973608411" lon="8.94942887179063"><ele>36.0</ele><time>2026-04-25T07:40:19.001Z</time></trkpt><trkpt lat="44.426069477991796" lon="8.949448975551674"><ele>36.0</ele><time>2026-04-25T07:40:21.001Z</time></trkpt><trkpt lat="44.42614708824135" lon="8.949472400931414"><ele>36.0</ele><time>2026-04-25T07:40:23.001Z</time></trkpt><trkpt lat="44.42634247195461" lon="8.949492914977805"><ele>35.42857142857143</ele><time>2026-04-25T07:40:28Z</time></trkpt><trkpt lat="44.4264184583084" lon="8.949502844611361"><ele>34.85714285714286</ele><time>2026-04-25T07:40:30Z</time></trkpt><trkpt lat="44.426491356510866" lon="8.949510783338749"><ele>34.285714285714285</ele><time>2026-04-25T07:40:32Z</time></trkpt><trkpt lat="44.42656790450847" lon="8.949524619175564"><ele>33.714285714285715</ele><time>2026-04-25T07:40:34Z</time></trkpt><trkpt lat="44.426642644537814" lon="8.949543441729634"><ele>33.14285714285714</ele><time>2026-04-25T07:40:36Z</time></trkpt><trkpt lat="44.426712739252565" lon="8.949579279124464"><ele>32.57142857142857</ele><time>2026-04-25T07:40:38Z</time></trkpt><trkpt lat="44.42674741223049" lon="8.94966690883429"><ele>32.0</ele><time>2026-04-25T07:40:40Z</time></trkpt><trkpt lat="44.426796848205726" lon="8.949759100166139"><ele>32.0</ele><time>2026-04-25T07:40:42Z</time></trkpt><trkpt lat="44.426852768661206" lon="8.949851708793174"><ele>32.0</ele><time>2026-04-25T07:40:44Z</time></trkpt><trkpt lat="44.426909536956245" lon="8.9499527692061"><ele>32.0</ele><time>2026-04-25T07:40:46Z</time></trkpt><trkpt lat="44.42697149516074" lon="8.950033349634774"><ele>32.0</ele><time>2026-04-25T07:40:48Z</time></trkpt><trkpt lat="44.4270257051491" lon="8.950142125189796"><ele>32.0</ele><time>2026-04-25T07:40:50Z</time></trkpt><trkpt lat="44.427065944875835" lon="8.950259203157435"><ele>31.333333333333332</ele><time>2026-04-25T07:40:52Z</time></trkpt><trkpt lat="44.42709535245065" lon="8.95036142348565"><ele>30.666666666666664</ele><time>2026-04-25T07:40:54Z</time></trkpt><trkpt lat="44.427136254766495" lon="8.950462753358302"><ele>30.0</ele><time>2026-04-25T07:40:56Z</time></trkpt><trkpt lat="44.427172772128" lon="8.95055457595181"><ele>29.333333333333336</ele><time>2026-04-25T07:40:58Z</time></trkpt><trkpt lat="44.42720421875762" lon="8.950669778726114"><ele>28.666666666666668</ele><time>2026-04-25T07:41:00Z</time></trkpt><trkpt lat="44.427237436111355" lon="8.950786612615666"><ele>28.0</ele><time>2026-04-25T07:41:02Z</time></trkpt><trkpt lat="44.42723991061529" lon="8.950908123872772"><ele>28.000000000000004</ele><time>2026-04-25T07:41:04Z</time></trkpt><trkpt lat="44.42726848758199" lon="8.951023035133717"><ele>28.0</ele><time>2026-04-25T07:41:06Z</time></trkpt><trkpt lat="44.42729545141607" lon="8.951125084360786"><ele>28.0</ele><time>2026-04-25T07:41:08Z</time></trkpt><trkpt lat="44.42731674212958" lon="8.951244437781368"><ele>28.0</ele><time>2026-04-25T07:41:10Z</time></trkpt><trkpt lat="44.427346610239965" lon="8.951365195435317"><ele>28.000000000000004</ele><time>2026-04-25T07:41:12Z</time></trkpt><trkpt lat="44.4273826969596" lon="8.951495999284873"><ele>28.0</ele><time>2026-04-25T07:41:14Z</time></trkpt><trkpt lat="44.42741260703794" lon="8.951621782300933"><ele>30.599999999999998</ele><time>2026-04-25T07:41:16Z</time></trkpt><trkpt lat="44.42744656939619" lon="8.951750255702459"><ele>33.199999999999996</ele><time>2026-04-25T07:41:18Z</time></trkpt><trkpt lat="44.427478940069285" lon="8.951881996932466"><ele>35.8</ele><time>2026-04-25T07:41:20Z</time></trkpt><trkpt lat="44.42751412294991" lon="8.952009851821632"><ele>38.4</ele><time>2026-04-25T07:41:22Z</time></trkpt><trkpt lat="44.427547729189946" lon="8.9521434495361"><ele>41.0</ele><time>2026-04-25T07:41:24Z</time></trkpt><trkpt lat="44.42758021596243" lon="8.952271668820568"><ele>41.0</ele><time>2026-04-25T07:41:26Z</time></trkpt><trkpt lat="44.42760677257795" lon="8.952405584788929"><ele>41.0</ele><time>2026-04-25T07:41:28Z</time></trkpt><trkpt lat="44.42763264150207" lon="8.952537764715991"><ele>41.0</ele><time>2026-04-25T07:41:30Z</time></trkpt><trkpt lat="44.42765665017072" lon="8.952671068833588"><ele>41.0</ele><time>2026-04-25T07:41:32Z</time></trkpt><trkpt lat="44.427686130708565" lon="8.952808132260456"><ele>41.0</ele><time>2026-04-25T07:41:34Z</time></trkpt><trkpt lat="44.42771825993964" lon="8.952915397955612"><ele>42.857142857142854</ele><time>2026-04-25T07:41:36Z</time></trkpt><trkpt lat="44.427736250048255" lon="8.953005758014772"><ele>44.714285714285715</ele><time>2026-04-25T07:41:39Z</time></trkpt><trkpt lat="44.42775221317025" lon="8.95311392540094"><ele>46.57142857142857</ele><time>2026-04-25T07:41:55.001Z</time></trkpt><trkpt lat="44.42777791150857" lon="8.953235844655584"><ele>48.42857142857143</ele><time>2026-04-25T07:41:58.001Z</time></trkpt><trkpt lat="44.427800427511364" lon="8.953324263945886"><ele>50.285714285714285</ele><time>2026-04-25T07:42:00.001Z</time></trkpt><trkpt lat="44.42782010034294" lon="8.953409094835362"><ele>52.14285714285714</ele><time>2026-04-25T07:42:02.001Z</time></trkpt><trkpt lat="44.42783821107451" lon="8.953506656359085"><ele>54.0</ele><time>2026-04-25T07:42:04.001Z</time></trkpt><trkpt lat="44.42785798636607" lon="8.953604352625641"><ele>56.0</ele><time>2026-04-25T07:42:06.001Z</time></trkpt><trkpt lat="44.42787705871261" lon="8.953701300438695"><ele>58.0</ele><time>2026-04-25T07:42:08.001Z</time></trkpt><trkpt lat="44.42789567077111" lon="8.953804451051514"><ele>60.0</ele><time>2026-04-25T07:42:10.001Z</time></trkpt><trkpt lat="44.42790782058046" lon="8.953900757588762"><ele>62.0</ele><time>2026-04-25T07:42:12.001Z</time></trkpt><trkpt lat="44.42792989559042" lon="8.954006066495939"><ele>64.0</ele><time>2026-04-25T07:42:14.001Z</time></trkpt><trkpt lat="44.42796009236952" lon="8.954117694152659"><ele>66.0</ele><time>2026-04-25T07:42:16.001Z</time></trkpt><trkpt lat="44.42799699257862" lon="8.954234107562804"><ele>59.0</ele><time>2026-04-25T07:42:18.001Z</time></trkpt><trkpt lat="44.42803296938581" lon="8.954352414589142"><ele>51.99999999999999</ele><time>2026-04-25T07:42:20.001Z</time></trkpt><trkpt lat="44.42807107993473" lon="8.9544701086905"><ele>45.0</ele><time>2026-04-25T07:42:22.001Z</time></trkpt><trkpt lat="44.42811151151439" lon="8.95458087158161"><ele>38.0</ele><time>2026-04-25T07:42:24.001Z</time></trkpt><trkpt lat="44.428154897719054" lon="8.954689023156256"><ele>31.0</ele><time>2026-04-25T07:42:26.001Z</time></trkpt><trkpt lat="44.42818289081137" lon="8.954812036361124"><ele>31.000000000000004</ele><time>2026-04-25T07:42:28.001Z</time></trkpt><trkpt lat="44.42822898485334" lon="8.95492438641615"><ele>31.0</ele><time>2026-04-25T07:42:30.001Z</time></trkpt><trkpt lat="44.42827297498011" lon="8.955030817393885"><ele>31.0</ele><time>2026-04-25T07:42:32.001Z</time></trkpt><trkpt lat="44.428323618144795" lon="8.955140403422016"><ele>31.0</ele><time>2026-04-25T07:42:34Z</time></trkpt><trkpt lat="44.42836287523943" lon="8.955249385449148"><ele>31.000000000000004</ele><time>2026-04-25T07:42:36Z</time></trkpt><trkpt lat="44.428407197350886" lon="8.955353737496813"><ele>31.0</ele><time>2026-04-25T07:42:38Z</time></trkpt><trkpt lat="44.42844925811696" lon="8.95545783132825"><ele>32.2</ele><time>2026-04-25T07:42:40Z</time></trkpt><trkpt lat="44.428494008616575" lon="8.955561104830915"><ele>33.400000000000006</ele><time>2026-04-25T07:42:42Z</time></trkpt><trkpt lat="44.42854212412981" lon="8.955658656108637"><ele>34.6</ele><time>2026-04-25T07:42:44Z</time></trkpt><trkpt lat="44.428591615966184" lon="8.955766281025632"><ele>35.800000000000004</ele><time>2026-04-25T07:42:46Z</time></trkpt><trkpt lat="44.42864578639708" lon="8.955871281875206"><ele>37.0</ele><time>2026-04-25T07:42:48Z</time></trkpt><trkpt lat="44.42869971212541" lon="8.955982071155693"><ele>38.8</ele><time>2026-04-25T07:42:50Z</time></trkpt><trkpt lat="44.42875870375474" lon="8.95609157133343"><ele>40.6</ele><time>2026-04-25T07:42:52Z</time></trkpt><trkpt lat="44.42880807372394" lon="8.956190460532797"><ele>42.4</ele><time>2026-04-25T07:42:54Z</time></trkpt><trkpt lat="44.42885687582411" lon="8.956290364163342"><ele>44.199999999999996</ele><time>2026-04-25T07:42:56Z</time></trkpt><trkpt lat="44.428917159229634" lon="8.956393422054363"><ele>46.0</ele><time>2026-04-25T07:42:58Z</time></trkpt><trkpt lat="44.428978426129746" lon="8.956502792475947"><ele>43.199999999999996</ele><time>2026-04-25T07:43:00Z</time></trkpt><trkpt lat="44.42903964556324" lon="8.956609921581562"><ele>40.4</ele><time>2026-04-25T07:43:02Z</time></trkpt><trkpt lat="44.42910519500028" lon="8.956710486030063"><ele>37.6</ele><time>2026-04-25T07:43:04Z</time></trkpt><trkpt lat="44.42917444590154" lon="8.956804812695303"><ele>34.8</ele><time>2026-04-25T07:43:06Z</time></trkpt><trkpt lat="44.42923958588204" lon="8.956906159377787"><ele>32.0</ele><time>2026-04-25T07:43:08Z</time></trkpt><trkpt lat="44.42930500723458" lon="8.957006307842825"><ele>31.999999999999996</ele><time>2026-04-25T07:43:10Z</time></trkpt><trkpt lat="44.42936530616986" lon="8.957090643415247"><ele>32.0</ele><time>2026-04-25T07:43:12Z</time></trkpt><trkpt lat="44.42943429025239" lon="8.957175153238103"><ele>32.0</ele><time>2026-04-25T07:43:14Z</time></trkpt><trkpt lat="44.42949945679649" lon="8.9572526947539"><ele>32.0</ele><time>2026-04-25T07:43:16Z</time></trkpt><trkpt lat="44.42956681363269" lon="8.957341428310642"><ele>31.999999999999996</ele><time>2026-04-25T07:43:18Z</time></trkpt><trkpt lat="44.4296326297533" lon="8.957421545677635"><ele>32.0</ele><time>2026-04-25T07:43:20Z</time></trkpt><trkpt lat="44.42969545107316" lon="8.957499172028175"><ele>31.333333333333332</ele><time>2026-04-25T07:43:22Z</time></trkpt><trkpt lat="44.429759516497434" lon="8.95757686289977"><ele>30.666666666666664</ele><time>2026-04-25T07:43:24Z</time></trkpt><trkpt lat="44.42982212096039" lon="8.957660043328001"><ele>30.0</ele><time>2026-04-25T07:43:26Z</time></trkpt><trkpt lat="44.42989314066656" lon="8.957741222024563"><ele>29.333333333333336</ele><time>2026-04-25T07:43:28Z</time></trkpt><trkpt lat="44.42995511547623" lon="8.957830396972751"><ele>28.666666666666668</ele><time>2026-04-25T07:43:30Z</time></trkpt><trkpt lat="44.43002622864434" lon="8.957916623337661"><ele>28.0</ele><time>2026-04-25T07:43:32Z</time></trkpt><trkpt lat="44.43009718486923" lon="8.958000172596051"><ele>28.000000000000004</ele><time>2026-04-25T07:43:34Z</time></trkpt><trkpt lat="44.430162500780845" lon="8.958075491317132"><ele>28.0</ele><time>2026-04-25T07:43:36Z</time></trkpt><trkpt lat="44.4302348133194" lon="8.958149892944062"><ele>28.0</ele><time>2026-04-25T07:43:38Z</time></trkpt><trkpt lat="44.43029588306517" lon="8.958207307132666"><ele>28.0</ele><time>2026-04-25T07:43:40Z</time></trkpt><trkpt lat="44.43035063377305" lon="8.958270967203813"><ele>28.000000000000004</ele><time>2026-04-25T07:43:42Z</time></trkpt><trkpt lat="44.430418204056494" lon="8.958348622679342"><ele>28.0</ele><time>2026-04-25T07:43:44Z</time></trkpt><trkpt lat="44.43048236256372" lon="8.958427749106527"><ele>28.57142857142857</ele><time>2026-04-25T07:43:46.001Z</time></trkpt><trkpt lat="44.430534738417364" lon="8.958482217548342"><ele>29.142857142857142</ele><time>2026-04-25T07:43:48.001Z</time></trkpt><trkpt lat="44.430595837610014" lon="8.958553823138054"><ele>29.714285714285715</ele><time>2026-04-25T07:43:50.001Z</time></trkpt><trkpt lat="44.43064530073707" lon="8.958611285257932"><ele>30.285714285714285</ele><time>2026-04-25T07:43:52.001Z</time></trkpt><trkpt lat="44.43070961961889" lon="8.95867045804855"><ele>30.857142857142854</ele><time>2026-04-25T07:43:54.001Z</time></trkpt><trkpt lat="44.43075618558251" lon="8.95873039756721"><ele>31.428571428571427</ele><time>2026-04-25T07:43:56.001Z</time></trkpt><trkpt lat="44.43080760038118" lon="8.95879675528448"><ele>32.0</ele><time>2026-04-25T07:44:00.001Z</time></trkpt><trkpt lat="44.430858775597045" lon="8.95884922651909"><ele>32.0</ele><time>2026-04-25T07:44:11.001Z</time></trkpt><trkpt lat="44.43091320698764" lon="8.95890701049652"><ele>31.999999999999996</ele><time>2026-04-25T07:44:14.001Z</time></trkpt><trkpt lat="44.43098377029111" lon="8.958974831804799"><ele>32.0</ele><time>2026-04-25T07:44:17.001Z</time></trkpt><trkpt lat="44.43103639004265" lon="8.959039013445516"><ele>32.0</ele><time>2026-04-25T07:44:19.001Z</time></trkpt><trkpt lat="44.431087567780594" lon="8.959109743019082"><ele>31.999999999999996</ele><time>2026-04-25T07:44:21.001Z</time></trkpt><trkpt lat="44.43114245637085" lon="8.959180837603634"><ele>32.0</ele><time>2026-04-25T07:44:23.001Z</time></trkpt><trkpt lat="44.43120280197436" lon="8.959239237159682"><ele>32.0</ele><time>2026-04-25T07:44:25.001Z</time></trkpt><trkpt lat="44.43126342141025" lon="8.959298087280436"><ele>31.833333333333332</ele><time>2026-04-25T07:44:27.001Z</time></trkpt><trkpt lat="44.43131952649941" lon="8.959372736851257"><ele>31.666666666666664</ele><time>2026-04-25T07:44:29.001Z</time></trkpt><trkpt lat="44.43137848008752" lon="8.959447240821333"><ele>31.5</ele><time>2026-04-25T07:44:31.001Z</time></trkpt><trkpt lat="44.431436540334445" lon="8.959517972638391"><ele>31.333333333333336</ele><time>2026-04-25T07:44:33.001Z</time></trkpt><trkpt lat="44.43150308080237" lon="8.959590394236677"><ele>31.166666666666668</ele><time>2026-04-25T07:44:35.001Z</time></trkpt><trkpt lat="44.43156424208921" lon="8.959667177320892"><ele>31.0</ele><time>2026-04-25T07:44:37.001Z</time></trkpt><trkpt lat="44.43162887994512" lon="8.959733176641654"><ele>31.000000000000004</ele><time>2026-04-25T07:44:39Z</time></trkpt><trkpt lat="44.431687069936025" lon="8.959802982404334"><ele>31.0</ele><time>2026-04-25T07:44:41Z</time></trkpt><trkpt lat="44.43174925264182" lon="8.959887529023321"><ele>31.0</ele><time>2026-04-25T07:44:43Z</time></trkpt><trkpt lat="44.43181715923592" lon="8.959957438436984"><ele>31.0</ele><time>2026-04-25T07:44:45Z</time></trkpt><trkpt lat="44.431877817293184" lon="8.960028534629794"><ele>31.000000000000004</ele><time>2026-04-25T07:44:47Z</time></trkpt><trkpt lat="44.43194464036691" lon="8.960102490008746"><ele>31.0</ele><time>2026-04-25T07:44:49Z</time></trkpt><trkpt lat="44.43201257310758" lon="8.960178113327439"><ele>31.333333333333336</ele><time>2026-04-25T07:44:51Z</time></trkpt><trkpt lat="44.432075064302225" lon="8.96024874662557"><ele>31.666666666666668</ele><time>2026-04-25T07:44:53Z</time></trkpt><trkpt lat="44.432145676838026" lon="8.96032460343279"><ele>32.0</ele><time>2026-04-25T07:44:55Z</time></trkpt><trkpt lat="44.43221335420261" lon="8.960404521237118"><ele>32.333333333333336</ele><time>2026-04-25T07:44:57Z</time></trkpt><trkpt lat="44.432283060295376" lon="8.960475853809307"><ele>32.666666666666664</ele><time>2026-04-25T07:44:59Z</time></trkpt><trkpt lat="44.43234204192563" lon="8.96054757820549"><ele>33.0</ele><time>2026-04-25T07:45:01Z</time></trkpt><trkpt lat="44.432398606793875" lon="8.960612813941584"><ele>33.0</ele><time>2026-04-25T07:45:03Z</time></trkpt><trkpt lat="44.43246462767655" lon="8.960690421237963"><ele>33.0</ele><time>2026-04-25T07:45:05Z</time></trkpt><trkpt lat="44.43252146665005" lon="8.960744679488789"><ele>33.0</ele><time>2026-04-25T07:45:07Z</time></trkpt><trkpt lat="44.43257807201942" lon="8.960806717503194"><ele>33.0</ele><time>2026-04-25T07:45:09Z</time></trkpt><trkpt lat="44.432643592360186" lon="8.960877045715122"><ele>33.0</ele><time>2026-04-25T07:45:11Z</time></trkpt><trkpt lat="44.4327042232825" lon="8.960954302326078"><ele>33.0</ele><time>2026-04-25T07:45:13Z</time></trkpt><trkpt lat="44.43276947170583" lon="8.961028172404959"><ele>32.666666666666664</ele><time>2026-04-25T07:45:15Z</time></trkpt><trkpt lat="44.43282962721038" lon="8.961111819740218"><ele>32.333333333333336</ele><time>2026-04-25T07:45:17Z</time></trkpt><trkpt lat="44.4328971505535" lon="8.961185851714843"><ele>32.0</ele><time>2026-04-25T07:45:19Z</time></trkpt><trkpt lat="44.432964498397304" lon="8.961264066009782"><ele>31.666666666666668</ele><time>2026-04-25T07:45:21Z</time></trkpt><trkpt lat="44.43302831905991" lon="8.961319185684607"><ele>31.333333333333336</ele><time>2026-04-25T07:45:23Z</time></trkpt><trkpt lat="44.43309752115169" lon="8.961393444461352"><ele>31.0</ele><time>2026-04-25T07:45:25Z</time></trkpt><trkpt lat="44.43316492792192" lon="8.96145859645122"><ele>31.000000000000004</ele><time>2026-04-25T07:45:27Z</time></trkpt><trkpt lat="44.43322907123858" lon="8.961526456102195"><ele>31.0</ele><time>2026-04-25T07:45:29Z</time></trkpt><trkpt lat="44.43329411980026" lon="8.961603377807574"><ele>31.0</ele><time>2026-04-25T07:45:31Z</time></trkpt><trkpt lat="44.43336233795712" lon="8.96167852238661"><ele>31.0</ele><time>2026-04-25T07:45:33Z</time></trkpt><trkpt lat="44.43343951120502" lon="8.961729363159087"><ele>31.000000000000004</ele><time>2026-04-25T07:45:35Z</time></trkpt><trkpt lat="44.433502505213966" lon="8.961783100056303"><ele>31.0</ele><time>2026-04-25T07:45:37Z</time></trkpt><trkpt lat="44.43358109588726" lon="8.961832779012402"><ele>31.000000000000004</ele><time>2026-04-25T07:45:39Z</time></trkpt><trkpt lat="44.43365423474862" lon="8.961887582231496"><ele>31.0</ele><time>2026-04-25T07:45:41Z</time></trkpt><trkpt lat="44.433712731203066" lon="8.961934058892593"><ele>31.0</ele><time>2026-04-25T07:45:43Z</time></trkpt><trkpt lat="44.43377769810256" lon="8.96199450132317"><ele>31.0</ele><time>2026-04-25T07:45:45Z</time></trkpt><trkpt lat="44.43385826495773" lon="8.962050074983148"><ele>31.000000000000004</ele><time>2026-04-25T07:45:47Z</time></trkpt><trkpt lat="44.43392394577637" lon="8.96210678388651"><ele>31.0</ele><time>2026-04-25T07:45:49Z</time></trkpt><trkpt lat="44.43400156257727" lon="8.962165582575052"><ele>31.000000000000004</ele><time>2026-04-25T07:45:51Z</time></trkpt><trkpt lat="44.43407143698318" lon="8.962214372807988"><ele>31.0</ele><time>2026-04-25T07:45:53Z</time></trkpt><trkpt lat="44.43413970902058" lon="8.962273049105507"><ele>31.0</ele><time>2026-04-25T07:45:55Z</time></trkpt><trkpt lat="44.43419891006556" lon="8.962310193607815"><ele>31.0</ele><time>2026-04-25T07:45:58Z</time></trkpt><trkpt lat="44.434309052763" lon="8.962377089256357"><ele>31.000000000000004</ele><time>2026-04-25T07:46:01Z</time></trkpt><trkpt lat="44.43439865592106" lon="8.962434448610209"><ele>31.0</ele><time>2026-04-25T07:46:03Z</time></trkpt><trkpt lat="44.43447297721283" lon="8.962481277771376"><ele>31.000000000000004</ele><time>2026-04-25T07:46:05Z</time></trkpt><trkpt lat="44.434540263535155" lon="8.962509812248275"><ele>31.0</ele><time>2026-04-25T07:46:07Z</time></trkpt><trkpt lat="44.43462233018303" lon="8.962575227070783"><ele>31.0</ele><time>2026-04-25T07:46:09Z</time></trkpt><trkpt lat="44.434708268071326" lon="8.962625595140887"><ele>31.0</ele><time>2026-04-25T07:46:11.001Z</time></trkpt><trkpt lat="44.4347941644087" lon="8.9626700514901"><ele>31.000000000000004</ele><time>2026-04-25T07:46:13.001Z</time></trkpt><trkpt lat="44.43487333106681" lon="8.96271447826965"><ele>31.0</ele><time>2026-04-25T07:46:15.001Z</time></trkpt><trkpt lat="44.43494816727796" lon="8.962753747456738"><ele>32.16666666666667</ele><time>2026-04-25T07:46:17.001Z</time></trkpt><trkpt lat="44.43502170743763" lon="8.962791721791316"><ele>33.333333333333336</ele><time>2026-04-25T07:46:19.001Z</time></trkpt><trkpt lat="44.43509463181262" lon="8.962821604901091"><ele>34.5</ele><time>2026-04-25T07:46:21.001Z</time></trkpt><trkpt lat="44.43516588386866" lon="8.962866179094721"><ele>35.666666666666664</ele><time>2026-04-25T07:46:23.001Z</time></trkpt><trkpt lat="44.435250732599584" lon="8.962910836502475"><ele>36.83333333333333</ele><time>2026-04-25T07:46:25.001Z</time></trkpt><trkpt lat="44.43533826432047" lon="8.962942617761973"><ele>38.0</ele><time>2026-04-25T07:46:27.001Z</time></trkpt><trkpt lat="44.435414339079436" lon="8.962978392579952"><ele>37.666666666666664</ele><time>2026-04-25T07:46:29.001Z</time></trkpt><trkpt lat="44.43548704591824" lon="8.963017055612504"><ele>37.33333333333333</ele><time>2026-04-25T07:46:31.001Z</time></trkpt><trkpt lat="44.43556683926165" lon="8.963074404483368"><ele>37.0</ele><time>2026-04-25T07:46:34.001Z</time></trkpt><trkpt lat="44.435609554240116" lon="8.963153301885429"><ele>36.666666666666664</ele><time>2026-04-25T07:46:36.001Z</time></trkpt><trkpt lat="44.43562898415542" lon="8.963265586731863"><ele>36.333333333333336</ele><time>2026-04-25T07:46:38.001Z</time></trkpt><trkpt lat="44.43567654281311" lon="8.963345372843715"><ele>36.0</ele><time>2026-04-25T07:46:40.001Z</time></trkpt><trkpt lat="44.435751640821415" lon="8.963384279878735"><ele>35.5</ele><time>2026-04-25T07:46:42.001Z</time></trkpt><trkpt lat="44.43583347410024" lon="8.96336083853247"><ele>35.0</ele><time>2026-04-25T07:46:44.001Z</time></trkpt><trkpt lat="44.43589115588175" lon="8.963301814414718"><ele>34.5</ele><time>2026-04-25T07:46:46Z</time></trkpt><trkpt lat="44.43595382743193" lon="8.963237694703848"><ele>34.0</ele><time>2026-04-25T07:46:48Z</time></trkpt><trkpt lat="44.436044666984536" lon="8.963240646717018"><ele>33.5</ele><time>2026-04-25T07:46:50Z</time></trkpt><trkpt lat="44.43612766560527" lon="8.963235631938396"><ele>33.0</ele><time>2026-04-25T07:46:52Z</time></trkpt><trkpt lat="44.43620933595446" lon="8.96323255892738"><ele>33.0</ele><time>2026-04-25T07:46:54Z</time></trkpt><trkpt lat="44.43629335481524" lon="8.96323769463785"><ele>33.0</ele><time>2026-04-25T07:46:56Z</time></trkpt><trkpt lat="44.43637474986417" lon="8.963241221789545"><ele>33.0</ele><time>2026-04-25T07:46:58Z</time></trkpt><trkpt lat="44.43645787708943" lon="8.963255057119548"><ele>33.0</ele><time>2026-04-25T07:47:00Z</time></trkpt><trkpt lat="44.4365357096576" lon="8.963273962730606"><ele>33.0</ele><time>2026-04-25T07:47:02Z</time></trkpt><trkpt lat="44.43661487172148" lon="8.963280064546478"><ele>33.0</ele><time>2026-04-25T07:47:04Z</time></trkpt><trkpt lat="44.436701468404706" lon="8.963288336817422"><ele>33.4</ele><time>2026-04-25T07:47:06Z</time></trkpt><trkpt lat="44.43678951468591" lon="8.963300421141568"><ele>33.8</ele><time>2026-04-25T07:47:08Z</time></trkpt><trkpt lat="44.436879072002526" lon="8.963322056732753"><ele>34.2</ele><time>2026-04-25T07:47:10Z</time></trkpt><trkpt lat="44.4369732132733" lon="8.963338224161312"><ele>34.6</ele><time>2026-04-25T07:47:12Z</time></trkpt><trkpt lat="44.43706151918626" lon="8.963359998304316"><ele>35.0</ele><time>2026-04-25T07:47:14Z</time></trkpt><trkpt lat="44.43714775322084" lon="8.963375527925777"><ele>35.5</ele><time>2026-04-25T07:47:16Z</time></trkpt><trkpt lat="44.43723033668917" lon="8.963396872487628"><ele>36.0</ele><time>2026-04-25T07:47:18Z</time></trkpt><trkpt lat="44.43731638267225" lon="8.963416542550737"><ele>36.5</ele><time>2026-04-25T07:47:20Z</time></trkpt><trkpt lat="44.437406679079494" lon="8.963440252448764"><ele>37.0</ele><time>2026-04-25T07:47:22Z</time></trkpt><trkpt lat="44.437495076015345" lon="8.963456809686289"><ele>37.5</ele><time>2026-04-25T07:47:24Z</time></trkpt><trkpt lat="44.437586765629334" lon="8.963473848130771"><ele>38.0</ele><time>2026-04-25T07:47:26Z</time></trkpt><trkpt lat="44.43767218919218" lon="8.963482174611142"><ele>38.0</ele><time>2026-04-25T07:47:28Z</time></trkpt><trkpt lat="44.43776094498692" lon="8.963508177539424"><ele>38.0</ele><time>2026-04-25T07:47:30Z</time></trkpt><trkpt lat="44.43784797250027" lon="8.963532632636092"><ele>38.0</ele><time>2026-04-25T07:47:32Z</time></trkpt><trkpt lat="44.43794005442102" lon="8.963550210959825"><ele>38.0</ele><time>2026-04-25T07:47:34Z</time></trkpt><trkpt lat="44.43803180680703" lon="8.963578398052416"><ele>38.0</ele><time>2026-04-25T07:47:36Z</time></trkpt><trkpt lat="44.43812012116394" lon="8.963609304879922"><ele>38.0</ele><time>2026-04-25T07:47:38Z</time></trkpt><trkpt lat="44.438213760408686" lon="8.963626287246994"><ele>38.0</ele><time>2026-04-25T07:47:40Z</time></trkpt><trkpt lat="44.43830581029874" lon="8.963640396702546"><ele>38.0</ele><time>2026-04-25T07:47:42Z</time></trkpt><trkpt lat="44.43839558777482" lon="8.96366377838671"><ele>38.0</ele><time>2026-04-25T07:47:44Z</time></trkpt><trkpt lat="44.43848441258931" lon="8.963685369539657"><ele>38.0</ele><time>2026-04-25T07:47:46Z</time></trkpt><trkpt lat="44.43856803022237" lon="8.963718211804808"><ele>38.0</ele><time>2026-04-25T07:47:48Z</time></trkpt><trkpt lat="44.43865737522995" lon="8.963740360331931"><ele>38.0</ele><time>2026-04-25T07:47:50Z</time></trkpt><trkpt lat="44.4387505837607" lon="8.963756389493556"><ele>38.0</ele><time>2026-04-25T07:47:52Z</time></trkpt><trkpt lat="44.438839941833976" lon="8.963766931672021"><ele>38.0</ele><time>2026-04-25T07:47:54.001Z</time></trkpt><trkpt lat="44.43892992591559" lon="8.963790345786936"><ele>38.0</ele><time>2026-04-25T07:47:56.001Z</time></trkpt><trkpt lat="44.439019992093165" lon="8.96380101670123"><ele>37.8</ele><time>2026-04-25T07:47:58.001Z</time></trkpt><trkpt lat="44.43911258530974" lon="8.963828045372136"><ele>37.599999999999994</ele><time>2026-04-25T07:48:00.001Z</time></trkpt><trkpt lat="44.43920772550417" lon="8.963863301908441"><ele>37.400000000000006</ele><time>2026-04-25T07:48:02.001Z</time></trkpt><trkpt lat="44.439304973200436" lon="8.96389555899363"><ele>37.2</ele><time>2026-04-25T07:48:04.001Z</time></trkpt><trkpt lat="44.439403064731714" lon="8.96393018050114"><ele>37.0</ele><time>2026-04-25T07:48:06.001Z</time></trkpt><trkpt lat="44.43950204172471" lon="8.963966168131906"><ele>37.0</ele><time>2026-04-25T07:48:08.001Z</time></trkpt><trkpt lat="44.439598025738555" lon="8.964006882499593"><ele>37.0</ele><time>2026-04-25T07:48:10.001Z</time></trkpt><trkpt lat="44.43968906130124" lon="8.964043906223862"><ele>37.0</ele><time>2026-04-25T07:48:12.001Z</time></trkpt><trkpt lat="44.43977516440407" lon="8.964077467872107"><ele>37.0</ele><time>2026-04-25T07:48:14.001Z</time></trkpt><trkpt lat="44.439858268529456" lon="8.96411231110666"><ele>37.0</ele><time>2026-04-25T07:48:16.001Z</time></trkpt><trkpt lat="44.43994351661137" lon="8.964139236826005"><ele>37.16666666666667</ele><time>2026-04-25T07:48:18.001Z</time></trkpt><trkpt lat="44.44002180749978" lon="8.964174960066957"><ele>37.333333333333336</ele><time>2026-04-25T07:48:20.001Z</time></trkpt><trkpt lat="44.440100132392544" lon="8.964206651147956"><ele>37.5</ele><time>2026-04-25T07:48:22.001Z</time></trkpt><trkpt lat="44.44018042240938" lon="8.964247363070225"><ele>37.666666666666664</ele><time>2026-04-25T07:48:24.001Z</time></trkpt><trkpt lat="44.44026378731408" lon="8.964265615406177"><ele>37.83333333333333</ele><time>2026-04-25T07:48:26.001Z</time></trkpt><trkpt lat="44.440346408390155" lon="8.964299894157962"><ele>38.0</ele><time>2026-04-25T07:48:28.001Z</time></trkpt><trkpt lat="44.440424360923025" lon="8.964339411454965"><ele>38.5</ele><time>2026-04-25T07:48:30.001Z</time></trkpt><trkpt lat="44.44050210851532" lon="8.964377363256192"><ele>39.0</ele><time>2026-04-25T07:48:32.001Z</time></trkpt><trkpt lat="44.44057874342656" lon="8.964411762884172"><ele>39.5</ele><time>2026-04-25T07:48:34.001Z</time></trkpt><trkpt lat="44.44065347753025" lon="8.964447798937481"><ele>40.0</ele><time>2026-04-25T07:48:36.001Z</time></trkpt><trkpt lat="44.440727413961206" lon="8.964486337457535"><ele>40.5</ele><time>2026-04-25T07:48:38.001Z</time></trkpt><trkpt lat="44.44080158691817" lon="8.964527154798791"><ele>41.0</ele><time>2026-04-25T07:48:40.001Z</time></trkpt><trkpt lat="44.44087927887432" lon="8.964567064063578"><ele>41.0</ele><time>2026-04-25T07:48:42.001Z</time></trkpt><trkpt lat="44.440948828111416" lon="8.964636380095358"><ele>41.0</ele><time>2026-04-25T07:48:44.001Z</time></trkpt><trkpt lat="44.4410261577408" lon="8.964675518123478"><ele>41.0</ele><time>2026-04-25T07:48:46.001Z</time></trkpt><trkpt lat="44.44110314211441" lon="8.964715567424472"><ele>41.0</ele><time>2026-04-25T07:48:48.001Z</time></trkpt><trkpt lat="44.44118226699376" lon="8.964762853199439"><ele>41.0</ele><time>2026-04-25T07:48:50.001Z</time></trkpt><trkpt lat="44.441259484132836" lon="8.964809321158679"><ele>41.0</ele><time>2026-04-25T07:48:52Z</time></trkpt><trkpt lat="44.441326624494984" lon="8.96485815343973"><ele>40.42857142857142</ele><time>2026-04-25T07:48:54Z</time></trkpt><trkpt lat="44.44138288008396" lon="8.964904826262828"><ele>39.857142857142854</ele><time>2026-04-25T07:48:56Z</time></trkpt><trkpt lat="44.44143314276642" lon="8.964840178130585"><ele>39.285714285714285</ele><time>2026-04-25T07:50:07.001Z</time></trkpt><trkpt lat="44.441452358173436" lon="8.964726123665315"><ele>38.71428571428571</ele><time>2026-04-25T07:50:13.001Z</time></trkpt><trkpt lat="44.441482086650495" lon="8.964638945152501"><ele>38.14285714285714</ele><time>2026-04-25T07:50:16.001Z</time></trkpt><trkpt lat="44.44150515233051" lon="8.964545403410746"><ele>37.57142857142857</ele><time>2026-04-25T07:50:19.001Z</time></trkpt><trkpt lat="44.44153530528634" lon="8.964463977401955"><ele>37.0</ele><time>2026-04-25T07:50:21.001Z</time></trkpt><trkpt lat="44.44156827168666" lon="8.964357481323885"><ele>37.0</ele><time>2026-04-25T07:50:24.001Z</time></trkpt><trkpt lat="44.44159376312867" lon="8.964263189028786"><ele>37.0</ele><time>2026-04-25T07:50:26.001Z</time></trkpt><trkpt lat="44.44162573078528" lon="8.964180127053819"><ele>37.0</ele><time>2026-04-25T07:50:28.001Z</time></trkpt><trkpt lat="44.44165111647055" lon="8.964085876481814"><ele>37.0</ele><time>2026-04-25T07:50:30.001Z</time></trkpt><trkpt lat="44.44169149834954" lon="8.963941199689211"><ele>37.0</ele><time>2026-04-25T07:50:34.001Z</time></trkpt><trkpt lat="44.44172029052867" lon="8.963854217649525"><ele>37.0</ele><time>2026-04-25T07:50:37.001Z</time></trkpt><trkpt lat="44.441749023204316" lon="8.963748492593353"><ele>37.16666666666667</ele><time>2026-04-25T07:51:05Z</time></trkpt><trkpt lat="44.44182369445556" lon="8.963710008199948"><ele>37.333333333333336</ele><time>2026-04-25T07:51:09Z</time></trkpt><trkpt lat="44.44190440564967" lon="8.963765410462981"><ele>37.5</ele><time>2026-04-25T07:51:12Z</time></trkpt><trkpt lat="44.441993035268766" lon="8.963809248550016"><ele>37.666666666666664</ele><time>2026-04-25T07:51:15Z</time></trkpt><trkpt lat="44.44205865594758" lon="8.963856695961999"><ele>37.83333333333333</ele><time>2026-04-25T07:51:17Z</time></trkpt><trkpt lat="44.442153028188095" lon="8.963901490873402"><ele>38.0</ele><time>2026-04-25T07:51:20Z</time></trkpt><trkpt lat="44.44221862514005" lon="8.963952123078743"><ele>37.666666666666664</ele><time>2026-04-25T07:51:22Z</time></trkpt><trkpt lat="44.44230074077007" lon="8.96400443527199"><ele>37.33333333333333</ele><time>2026-04-25T07:51:24Z</time></trkpt><trkpt lat="44.44237232673847" lon="8.964061052987171"><ele>37.0</ele><time>2026-04-25T07:51:26Z</time></trkpt><trkpt lat="44.44243883473313" lon="8.964128333097273"><ele>36.666666666666664</ele><time>2026-04-25T07:51:28Z</time></trkpt><trkpt lat="44.44251407262192" lon="8.964185914299996"><ele>36.333333333333336</ele><time>2026-04-25T07:51:30Z</time></trkpt><trkpt lat="44.44259098223002" lon="8.96425111428607"><ele>36.0</ele><time>2026-04-25T07:51:32Z</time></trkpt><trkpt lat="44.44267354066167" lon="8.964312259139831"><ele>36.0</ele><time>2026-04-25T07:51:34Z</time></trkpt><trkpt lat="44.44275016536784" lon="8.96438633143327"><ele>36.0</ele><time>2026-04-25T07:51:36Z</time></trkpt><trkpt lat="44.44282421003316" lon="8.964464739804999"><ele>36.0</ele><time>2026-04-25T07:51:38Z</time></trkpt><trkpt lat="44.44290337210796" lon="8.96454157890935"><ele>36.0</ele><time>2026-04-25T07:51:40Z</time></trkpt><trkpt lat="44.44298272322198" lon="8.964622318576245"><ele>36.0</ele><time>2026-04-25T07:51:42Z</time></trkpt><trkpt lat="44.44305932652324" lon="8.964694897606657"><ele>36.8</ele><time>2026-04-25T07:51:44Z</time></trkpt><trkpt lat="44.44313759351761" lon="8.96477578343571"><ele>37.6</ele><time>2026-04-25T07:51:46Z</time></trkpt><trkpt lat="44.44321196691792" lon="8.964848672196519"><ele>38.4</ele><time>2026-04-25T07:51:48Z</time></trkpt><trkpt lat="44.44328793453036" lon="8.964931305573877"><ele>39.2</ele><time>2026-04-25T07:51:50Z</time></trkpt><trkpt lat="44.44336007838412" lon="8.9650174234625"><ele>40.0</ele><time>2026-04-25T07:51:52.001Z</time></trkpt><trkpt lat="44.44343872629495" lon="8.965096752211439"><ele>40.0</ele><time>2026-04-25T07:51:54.001Z</time></trkpt><trkpt lat="44.443511642728595" lon="8.965167709292343"><ele>40.0</ele><time>2026-04-25T07:51:56.001Z</time></trkpt><trkpt lat="44.443593007819004" lon="8.965247312540468"><ele>40.0</ele><time>2026-04-25T07:51:58.001Z</time></trkpt><trkpt lat="44.443670539340964" lon="8.965320658434226"><ele>40.0</ele><time>2026-04-25T07:52:00.001Z</time></trkpt><trkpt lat="44.44374694966737" lon="8.965394000652635"><ele>40.0</ele><time>2026-04-25T07:52:02.001Z</time></trkpt><trkpt lat="44.443825406163825" lon="8.965481736317662"><ele>39.8</ele><time>2026-04-25T07:52:04.001Z</time></trkpt><trkpt lat="44.44390803961181" lon="8.965560940229569"><ele>39.6</ele><time>2026-04-25T07:52:06.001Z</time></trkpt><trkpt lat="44.443998690535615" lon="8.965642691559617"><ele>39.4</ele><time>2026-04-25T07:52:08.001Z</time></trkpt><trkpt lat="44.444074911650986" lon="8.965734094253175"><ele>39.2</ele><time>2026-04-25T07:52:10.001Z</time></trkpt><trkpt lat="44.44416033575487" lon="8.965810139570042"><ele>39.0</ele><time>2026-04-25T07:52:12.001Z</time></trkpt><trkpt lat="44.44425236150079" lon="8.965891660562079"><ele>39.0</ele><time>2026-04-25T07:52:14.001Z</time></trkpt><trkpt lat="44.444338198715236" lon="8.965988991178845"><ele>39.0</ele><time>2026-04-25T07:52:16.001Z</time></trkpt><trkpt lat="44.444422210302726" lon="8.966077005812867"><ele>39.0</ele><time>2026-04-25T07:52:18.001Z</time></trkpt><trkpt lat="44.44450008798169" lon="8.966172853463316"><ele>39.0</ele><time>2026-04-25T07:52:20.001Z</time></trkpt><trkpt lat="44.4445846430737" lon="8.966268836323522"><ele>39.0</ele><time>2026-04-25T07:52:22.001Z</time></trkpt><trkpt lat="44.444665726643755" lon="8.966359719655037"><ele>39.4</ele><time>2026-04-25T07:52:24.001Z</time></trkpt><trkpt lat="44.444746369858386" lon="8.966446998208701"><ele>39.8</ele><time>2026-04-25T07:52:26.001Z</time></trkpt><trkpt lat="44.44482019310902" lon="8.96655172295647"><ele>40.199999999999996</ele><time>2026-04-25T07:52:28.001Z</time></trkpt><trkpt lat="44.44489375084486" lon="8.966658429182297"><ele>40.599999999999994</ele><time>2026-04-25T07:52:30.001Z</time></trkpt><trkpt lat="44.4449719443891" lon="8.966766935008039"><ele>41.0</ele><time>2026-04-25T07:52:32.001Z</time></trkpt><trkpt lat="44.44505142336932" lon="8.966867125030552"><ele>41.0</ele><time>2026-04-25T07:52:34.001Z</time></trkpt><trkpt lat="44.44512709229778" lon="8.966959185113074"><ele>41.0</ele><time>2026-04-25T07:52:36.001Z</time></trkpt><trkpt lat="44.44519864817202" lon="8.96705524894195"><ele>41.0</ele><time>2026-04-25T07:52:38.001Z</time></trkpt><trkpt lat="44.44527165932959" lon="8.967147572288681"><ele>41.0</ele><time>2026-04-25T07:52:40.001Z</time></trkpt><trkpt lat="44.445333069060425" lon="8.967258377617014"><ele>41.0</ele><time>2026-04-25T07:52:42.001Z</time></trkpt><trkpt lat="44.44540455281271" lon="8.96732424768265"><ele>41.5</ele><time>2026-04-25T07:52:44.001Z</time></trkpt><trkpt lat="44.44547032285851" lon="8.967422925613473"><ele>42.0</ele><time>2026-04-25T07:52:46.001Z</time></trkpt><trkpt lat="44.44554984367618" lon="8.967493234813588"><ele>42.5</ele><time>2026-04-25T07:52:48.001Z</time></trkpt><trkpt lat="44.44561465909964" lon="8.967585992707917"><ele>43.0</ele><time>2026-04-25T07:52:50.001Z</time></trkpt><trkpt lat="44.44566888083155" lon="8.967657796215727"><ele>43.5</ele><time>2026-04-25T07:52:52.001Z</time></trkpt><trkpt lat="44.44573390167639" lon="8.967747141554629"><ele>44.0</ele><time>2026-04-25T07:52:54.001Z</time></trkpt><trkpt lat="44.44579836410754" lon="8.967824852059278"><ele>44.0</ele><time>2026-04-25T07:52:56.001Z</time></trkpt><trkpt lat="44.4458565067595" lon="8.967920090140147"><ele>44.0</ele><time>2026-04-25T07:52:58.001Z</time></trkpt><trkpt lat="44.44589444209065" lon="8.968004903401255"><ele>44.0</ele><time>2026-04-25T07:53:00.001Z</time></trkpt><trkpt lat="44.44595356097238" lon="8.96805553380316"><ele>44.0</ele><time>2026-04-25T07:53:03Z</time></trkpt><trkpt lat="44.44602853240727" lon="8.968084861468487"><ele>44.0</ele><time>2026-04-25T07:54:47.001Z</time></trkpt><trkpt lat="44.44606856688792" lon="8.96815626963368"><ele>44.0</ele><time>2026-04-25T07:54:49.001Z</time></trkpt><trkpt lat="44.44612136434512" lon="8.968216974438247"><ele>44.0</ele><time>2026-04-25T07:54:51.001Z</time></trkpt><trkpt lat="44.446178169284266" lon="8.968284230811612"><ele>43.85714285714286</ele><time>2026-04-25T07:54:53.001Z</time></trkpt><trkpt lat="44.44623307579935" lon="8.968360104297505"><ele>43.714285714285715</ele><time>2026-04-25T07:54:55.001Z</time></trkpt><trkpt lat="44.44628884690414" lon="8.968435517907999"><ele>43.57142857142857</ele><time>2026-04-25T07:54:57.001Z</time></trkpt><trkpt lat="44.44632085474187" lon="8.96852434798233"><ele>43.42857142857143</ele><time>2026-04-25T07:54:59.001Z</time></trkpt><trkpt lat="44.446366832074446" lon="8.968594800995785"><ele>43.285714285714285</ele><time>2026-04-25T07:55:01.001Z</time></trkpt><trkpt lat="44.44641740020907" lon="8.968675786601459"><ele>43.142857142857146</ele><time>2026-04-25T07:55:04.001Z</time></trkpt><trkpt lat="44.44648394563796" lon="8.968636554720996"><ele>43.0</ele><time>2026-04-25T07:55:20Z</time></trkpt><trkpt lat="44.44644308279178" lon="8.96856036607477"><ele>43.00000000000001</ele><time>2026-04-25T08:05:50Z</time></trkpt><trkpt lat="44.446376583038855" lon="8.968523036641697"><ele>43.0</ele><time>2026-04-25T08:05:56Z</time></trkpt><trkpt lat="44.446335535568146" lon="8.968429057683927"><ele>43.0</ele><time>2026-04-25T08:06:01Z</time></trkpt><trkpt lat="44.44630431623157" lon="8.968337131821572"><ele>43.0</ele><time>2026-04-25T08:06:07Z</time></trkpt><trkpt lat="44.4462583463151" lon="8.968273911265157"><ele>43.0</ele><time>2026-04-25T08:06:10Z</time></trkpt><trkpt lat="44.44621110236564" lon="8.968199405622364"><ele>43.00000000000001</ele><time>2026-04-25T08:06:13Z</time></trkpt><trkpt lat="44.446165534022285" lon="8.968137498320997"><ele>43.0</ele><time>2026-04-25T08:06:16Z</time></trkpt><trkpt lat="44.446099075790954" lon="8.9680900278972"><ele>43.142857142857146</ele><time>2026-04-25T08:06:20Z</time></trkpt><trkpt lat="44.4460464038736" lon="8.968041482353902"><ele>43.285714285714285</ele><time>2026-04-25T08:06:23Z</time></trkpt><trkpt lat="44.445986565673735" lon="8.967975141165104"><ele>43.42857142857143</ele><time>2026-04-25T08:06:26Z</time></trkpt><trkpt lat="44.445915065509304" lon="8.968015207336984"><ele>43.57142857142857</ele><time>2026-04-25T08:06:30Z</time></trkpt><trkpt lat="44.44598431689789" lon="8.968006207895218"><ele>43.714285714285715</ele><time>2026-04-25T08:10:15.999Z</time></trkpt><trkpt lat="44.446054181197" lon="8.968016725984851"><ele>43.85714285714286</ele><time>2026-04-25T08:10:20Z</time></trkpt><trkpt lat="44.446105106696336" lon="8.96807993518109"><ele>44.0</ele><time>2026-04-25T08:10:24Z</time></trkpt><trkpt lat="44.44617049410767" lon="8.96816213276869"><ele>44.0</ele><time>2026-04-25T08:10:27Z</time></trkpt><trkpt lat="44.446218826705866" lon="8.968221808622324"><ele>44.0</ele><time>2026-04-25T08:10:29Z</time></trkpt><trkpt lat="44.44626647755149" lon="8.9682863564775"><ele>44.0</ele><time>2026-04-25T08:10:32Z</time></trkpt><trkpt lat="44.44631080975852" lon="8.968363342882013"><ele>44.0</ele><time>2026-04-25T08:10:49Z</time></trkpt><trkpt lat="44.44636325922234" lon="8.968418609140834"><ele>44.0</ele><time>2026-04-25T08:10:53Z</time></trkpt><trkpt lat="44.44641449630525" lon="8.968507628000213"><ele>44.0</ele><time>2026-04-25T08:10:57Z</time></trkpt><trkpt lat="44.44647729537722" lon="8.968579147982858"><ele>44.0</ele><time>2026-04-25T08:11:01Z</time></trkpt><trkpt lat="44.4465264995062" lon="8.968641675944305"><ele>43.83333333333333</ele><time>2026-04-25T08:13:18.001Z</time></trkpt><trkpt lat="44.44656834816721" lon="8.968714664597227"><ele>43.666666666666664</ele><time>2026-04-25T08:13:21.001Z</time></trkpt><trkpt lat="44.446596615514565" lon="8.968798234454114"><ele>43.5</ele><time>2026-04-25T08:13:23.001Z</time></trkpt><trkpt lat="44.44664787927553" lon="8.968885620470951"><ele>43.333333333333336</ele><time>2026-04-25T08:13:25.001Z</time></trkpt><trkpt lat="44.446722558669556" lon="8.968946581485902"><ele>43.16666666666667</ele><time>2026-04-25T08:13:27.001Z</time></trkpt><trkpt lat="44.44677971924727" lon="8.969029199355303"><ele>43.0</ele><time>2026-04-25T08:13:29.001Z</time></trkpt><trkpt lat="44.44684235364581" lon="8.969117377200028"><ele>43.0</ele><time>2026-04-25T08:13:31.001Z</time></trkpt><trkpt lat="44.446907364375065" lon="8.969196454135261"><ele>43.0</ele><time>2026-04-25T08:13:33.001Z</time></trkpt><trkpt lat="44.44697848636989" lon="8.969282921308213"><ele>43.0</ele><time>2026-04-25T08:13:35.001Z</time></trkpt><trkpt lat="44.4470478206439" lon="8.969375154057811"><ele>43.0</ele><time>2026-04-25T08:13:37.001Z</time></trkpt><trkpt lat="44.447115840575805" lon="8.969470413366354"><ele>43.0</ele><time>2026-04-25T08:13:39.001Z</time></trkpt><trkpt lat="44.44718196468041" lon="8.969565381623328"><ele>43.16666666666667</ele><time>2026-04-25T08:13:41.001Z</time></trkpt><trkpt lat="44.44723964787002" lon="8.96964112890725"><ele>43.333333333333336</ele><time>2026-04-25T08:13:43.001Z</time></trkpt><trkpt lat="44.447297477376836" lon="8.969712093560004"><ele>43.5</ele><time>2026-04-25T08:13:45.001Z</time></trkpt><trkpt lat="44.44735610699133" lon="8.969796473575373"><ele>43.666666666666664</ele><time>2026-04-25T08:13:47.001Z</time></trkpt><trkpt lat="44.44743285096382" lon="8.969872708305813"><ele>43.83333333333333</ele><time>2026-04-25T08:13:49.001Z</time></trkpt><trkpt lat="44.44749934204056" lon="8.969973832799763"><ele>44.0</ele><time>2026-04-25T08:13:51.001Z</time></trkpt><trkpt lat="44.447577320603784" lon="8.970057662096202"><ele>44.0</ele><time>2026-04-25T08:13:53.001Z</time></trkpt><trkpt lat="44.447654198000556" lon="8.970144070157957"><ele>44.0</ele><time>2026-04-25T08:13:55.001Z</time></trkpt><trkpt lat="44.44773980247468" lon="8.970229803613513"><ele>44.0</ele><time>2026-04-25T08:13:57.001Z</time></trkpt><trkpt lat="44.447830297792144" lon="8.970305880004586"><ele>44.0</ele><time>2026-04-25T08:13:59.001Z</time></trkpt><trkpt lat="44.44789884725581" lon="8.97041518577825"><ele>44.0</ele><time>2026-04-25T08:14:01.001Z</time></trkpt><trkpt lat="44.447971705273964" lon="8.970512493155095"><ele>44.0</ele><time>2026-04-25T08:14:02.999Z</time></trkpt><trkpt lat="44.44804209247483" lon="8.970612608676888"><ele>44.0</ele><time>2026-04-25T08:14:04.999Z</time></trkpt><trkpt lat="44.44811951857441" lon="8.970706879423279"><ele>44.0</ele><time>2026-04-25T08:14:06.999Z</time></trkpt><trkpt lat="44.44818731637228" lon="8.970804294820589"><ele>44.0</ele><time>2026-04-25T08:14:08.999Z</time></trkpt><trkpt lat="44.44825987145688" lon="8.970900023236371"><ele>44.0</ele><time>2026-04-25T08:14:10.999Z</time></trkpt><trkpt lat="44.44832142037818" lon="8.971010548114144"><ele>44.0</ele><time>2026-04-25T08:14:12.999Z</time></trkpt><trkpt lat="44.4483894869052" lon="8.9711168878286"><ele>44.0</ele><time>2026-04-25T08:14:15Z</time></trkpt><trkpt lat="44.44846526324222" lon="8.971229810214291"><ele>44.0</ele><time>2026-04-25T08:14:17Z</time></trkpt><trkpt lat="44.44852967673193" lon="8.971352055638235"><ele>44.0</ele><time>2026-04-25T08:14:19Z</time></trkpt><trkpt lat="44.4486102170784" lon="8.971457065317836"><ele>44.0</ele><time>2026-04-25T08:14:21Z</time></trkpt><trkpt lat="44.44868532961608" lon="8.971561304133937"><ele>44.0</ele><time>2026-04-25T08:14:23Z</time></trkpt><trkpt lat="44.448770603764935" lon="8.971651078709318"><ele>44.0</ele><time>2026-04-25T08:14:25Z</time></trkpt><trkpt lat="44.44885948734249" lon="8.971714595854232"><ele>44.0</ele><time>2026-04-25T08:14:27Z</time></trkpt><trkpt lat="44.44894537981175" lon="8.971775755717777"><ele>44.0</ele><time>2026-04-25T08:14:29Z</time></trkpt><trkpt lat="44.449015703154004" lon="8.971870168947643"><ele>44.0</ele><time>2026-04-25T08:14:31Z</time></trkpt><trkpt lat="44.44908844911881" lon="8.971963294126054"><ele>44.33333333333333</ele><time>2026-04-25T08:14:33Z</time></trkpt><trkpt lat="44.44914983129613" lon="8.97205998994577"><ele>44.666666666666664</ele><time>2026-04-25T08:14:35Z</time></trkpt><trkpt lat="44.44921903596953" lon="8.972132331826284"><ele>45.0</ele><time>2026-04-25T08:14:37Z</time></trkpt><trkpt lat="44.44928580618176" lon="8.97220533272913"><ele>45.333333333333336</ele><time>2026-04-25T08:14:39Z</time></trkpt><trkpt lat="44.44935177017631" lon="8.97227967647789"><ele>45.66666666666667</ele><time>2026-04-25T08:14:41Z</time></trkpt><trkpt lat="44.44941612455369" lon="8.972357740714628"><ele>46.0</ele><time>2026-04-25T08:14:43Z</time></trkpt><trkpt lat="44.44948100230858" lon="8.972430478079744"><ele>46.0</ele><time>2026-04-25T08:14:45Z</time></trkpt><trkpt lat="44.449544081060196" lon="8.972502046670394"><ele>46.0</ele><time>2026-04-25T08:14:47Z</time></trkpt><trkpt lat="44.44960845565268" lon="8.972583955825456"><ele>46.0</ele><time>2026-04-25T08:14:49Z</time></trkpt><trkpt lat="44.44967188291697" lon="8.97266627289852"><ele>46.0</ele><time>2026-04-25T08:14:51Z</time></trkpt><trkpt lat="44.449701650401444" lon="8.972779001099937"><ele>46.0</ele><time>2026-04-25T08:14:53Z</time></trkpt><trkpt lat="44.4497642582087" lon="8.972867542596383"><ele>46.0</ele><time>2026-04-25T08:14:55Z</time></trkpt><trkpt lat="44.44982347774459" lon="8.972950521005375"><ele>46.333333333333336</ele><time>2026-04-25T08:14:57Z</time></trkpt><trkpt lat="44.44988664008286" lon="8.97302211780281"><ele>46.66666666666667</ele><time>2026-04-25T08:14:59.001Z</time></trkpt><trkpt lat="44.44995042399365" lon="8.973099225160006"><ele>47.0</ele><time>2026-04-25T08:15:01.001Z</time></trkpt><trkpt lat="44.4500118519781" lon="8.973174778500816"><ele>47.333333333333336</ele><time>2026-04-25T08:15:03.001Z</time></trkpt><trkpt lat="44.450074191292444" lon="8.973247721622077"><ele>47.666666666666664</ele><time>2026-04-25T08:15:05.001Z</time></trkpt><trkpt lat="44.45013434556259" lon="8.973324481158743"><ele>48.0</ele><time>2026-04-25T08:15:07.001Z</time></trkpt><trkpt lat="44.4501970900676" lon="8.97339807149434"><ele>48.166666666666664</ele><time>2026-04-25T08:15:09.001Z</time></trkpt><trkpt lat="44.45025751310936" lon="8.973468706082723"><ele>48.33333333333333</ele><time>2026-04-25T08:15:11.001Z</time></trkpt><trkpt lat="44.45031759932424" lon="8.973539427687351"><ele>48.5</ele><time>2026-04-25T08:15:13.001Z</time></trkpt><trkpt lat="44.4503806947918" lon="8.973615991571247"><ele>48.666666666666664</ele><time>2026-04-25T08:15:15.001Z</time></trkpt><trkpt lat="44.45044380328822" lon="8.973688370668938"><ele>48.83333333333333</ele><time>2026-04-25T08:15:17.001Z</time></trkpt><trkpt lat="44.450505282143396" lon="8.973771662937917"><ele>49.0</ele><time>2026-04-25T08:15:19.001Z</time></trkpt><trkpt lat="44.45057209930943" lon="8.97384966878924"><ele>49.166666666666664</ele><time>2026-04-25T08:15:21.001Z</time></trkpt><trkpt lat="44.45063581845141" lon="8.973926267710729"><ele>49.33333333333333</ele><time>2026-04-25T08:15:23.001Z</time></trkpt><trkpt lat="44.45070079083577" lon="8.974008496924283"><ele>49.5</ele><time>2026-04-25T08:15:25.001Z</time></trkpt><trkpt lat="44.450767329442066" lon="8.974081394426545"><ele>49.66666666666667</ele><time>2026-04-25T08:15:27.001Z</time></trkpt><trkpt lat="44.450830609844985" lon="8.974158273445237"><ele>49.833333333333336</ele><time>2026-04-25T08:15:29.001Z</time></trkpt><trkpt lat="44.45089717539968" lon="8.974234602983852"><ele>50.0</ele><time>2026-04-25T08:15:31.001Z</time></trkpt><trkpt lat="44.45096036597549" lon="8.974309795991172"><ele>49.50000000000001</ele><time>2026-04-25T08:15:33.001Z</time></trkpt><trkpt lat="44.45102743864448" lon="8.974381496108453"><ele>49.0</ele><time>2026-04-25T08:15:35.001Z</time></trkpt><trkpt lat="44.45108820005988" lon="8.974470915355095"><ele>48.5</ele><time>2026-04-25T08:15:37.001Z</time></trkpt><trkpt lat="44.451156292549804" lon="8.97454779709019"><ele>48.0</ele><time>2026-04-25T08:15:39.001Z</time></trkpt><trkpt lat="44.45122645316784" lon="8.97463020726049"><ele>47.5</ele><time>2026-04-25T08:15:41.001Z</time></trkpt><trkpt lat="44.45129469519088" lon="8.974712499941491"><ele>47.0</ele><time>2026-04-25T08:15:43.001Z</time></trkpt><trkpt lat="44.451362332244244" lon="8.974795163491228"><ele>47.83333333333333</ele><time>2026-04-25T08:15:45.001Z</time></trkpt><trkpt lat="44.45142329968878" lon="8.974873443584377"><ele>48.666666666666664</ele><time>2026-04-25T08:15:47.001Z</time></trkpt><trkpt lat="44.45148863440874" lon="8.974942094226547"><ele>49.5</ele><time>2026-04-25T08:15:49.001Z</time></trkpt><trkpt lat="44.45155366521297" lon="8.975023916008086"><ele>50.33333333333333</ele><time>2026-04-25T08:15:51.001Z</time></trkpt><trkpt lat="44.451622720600284" lon="8.975096947887582"><ele>51.166666666666664</ele><time>2026-04-25T08:15:53.002Z</time></trkpt><trkpt lat="44.45168878008951" lon="8.975167926274953"><ele>52.0</ele><time>2026-04-25T08:15:55.002Z</time></trkpt><trkpt lat="44.451749758537034" lon="8.975250880845227"><ele>51.99999999999999</ele><time>2026-04-25T08:15:57.002Z</time></trkpt><trkpt lat="44.451782844421416" lon="8.975358748508292"><ele>52.0</ele><time>2026-04-25T08:15:59.002Z</time></trkpt><trkpt lat="44.451802194912695" lon="8.975470285897599"><ele>52.0</ele><time>2026-04-25T08:16:01.002Z</time></trkpt><trkpt lat="44.45183841227006" lon="8.97558122034346"><ele>52.0</ele><time>2026-04-25T08:16:03.002Z</time></trkpt><trkpt lat="44.45186957000809" lon="8.975698141010941"><ele>51.99999999999999</ele><time>2026-04-25T08:16:05.002Z</time></trkpt><trkpt lat="44.4518916850577" lon="8.97582130586775"><ele>52.0</ele><time>2026-04-25T08:16:07.002Z</time></trkpt><trkpt lat="44.451945970117926" lon="8.97592697295316"><ele>52.6</ele><time>2026-04-25T08:16:08.999Z</time></trkpt><trkpt lat="44.45200559497891" lon="8.97603380315547"><ele>53.2</ele><time>2026-04-25T08:16:10.999Z</time></trkpt><trkpt lat="44.45206434715589" lon="8.976143675623957"><ele>53.8</ele><time>2026-04-25T08:16:12.999Z</time></trkpt><trkpt lat="44.45212795099936" lon="8.976257246405636"><ele>54.4</ele><time>2026-04-25T08:16:14.999Z</time></trkpt><trkpt lat="44.45218958636423" lon="8.976377438237083"><ele>55.0</ele><time>2026-04-25T08:16:16.999Z</time></trkpt><trkpt lat="44.45225309298722" lon="8.976494554703672"><ele>55.0</ele><time>2026-04-25T08:16:18.999Z</time></trkpt><trkpt lat="44.45231723489617" lon="8.976616833493303"><ele>55.0</ele><time>2026-04-25T08:16:20.999Z</time></trkpt><trkpt lat="44.452383855335576" lon="8.976738441200144"><ele>55.0</ele><time>2026-04-25T08:16:22.999Z</time></trkpt><trkpt lat="44.45244840081166" lon="8.976861357884559"><ele>55.0</ele><time>2026-04-25T08:16:24.999Z</time></trkpt><trkpt lat="44.452505928639425" lon="8.97699051637129"><ele>55.0</ele><time>2026-04-25T08:16:27Z</time></trkpt><trkpt lat="44.452564432442195" lon="8.97712165292523"><ele>55.4</ele><time>2026-04-25T08:16:29Z</time></trkpt><trkpt lat="44.452620030684734" lon="8.977252622116131"><ele>55.8</ele><time>2026-04-25T08:16:31Z</time></trkpt><trkpt lat="44.45267684987244" lon="8.977387658438627"><ele>56.2</ele><time>2026-04-25T08:16:33Z</time></trkpt><trkpt lat="44.452731086758796" lon="8.97752285269022"><ele>56.6</ele><time>2026-04-25T08:16:35Z</time></trkpt><trkpt lat="44.452787013618774" lon="8.977656150360893"><ele>57.0</ele><time>2026-04-25T08:16:37Z</time></trkpt><trkpt lat="44.45283905744929" lon="8.977787136111049"><ele>57.6</ele><time>2026-04-25T08:16:39Z</time></trkpt><trkpt lat="44.452891062958784" lon="8.977917959823705"><ele>58.2</ele><time>2026-04-25T08:16:41Z</time></trkpt><trkpt lat="44.452937498825676" lon="8.978044698425428"><ele>58.8</ele><time>2026-04-25T08:16:43Z</time></trkpt><trkpt lat="44.45298148710546" lon="8.978173056685083"><ele>59.4</ele><time>2026-04-25T08:16:45Z</time></trkpt><trkpt lat="44.453024403609746" lon="8.978302730419816"><ele>60.0</ele><time>2026-04-25T08:16:47Z</time></trkpt><trkpt lat="44.45306764325552" lon="8.978431403566185"><ele>60.0</ele><time>2026-04-25T08:16:49Z</time></trkpt><trkpt lat="44.45310900954612" lon="8.978565416688497"><ele>60.0</ele><time>2026-04-25T08:16:51Z</time></trkpt><trkpt lat="44.453145764436655" lon="8.978691458658732"><ele>60.0</ele><time>2026-04-25T08:16:53Z</time></trkpt><trkpt lat="44.45317938644481" lon="8.978810004621671"><ele>60.0</ele><time>2026-04-25T08:16:55Z</time></trkpt><trkpt lat="44.45321009934687" lon="8.97891849423653"><ele>60.0</ele><time>2026-04-25T08:16:57Z</time></trkpt><trkpt lat="44.45324246936627" lon="8.979019175758996"><ele>60.0</ele><time>2026-04-25T08:16:59Z</time></trkpt><trkpt lat="44.45327237732331" lon="8.979115452534073"><ele>60.0</ele><time>2026-04-25T08:17:01Z</time></trkpt><trkpt lat="44.453303775746996" lon="8.979213826573886"><ele>60.0</ele><time>2026-04-25T08:17:04.001Z</time></trkpt><trkpt lat="44.45334026380987" lon="8.979325307579764"><ele>60.0</ele><time>2026-04-25T08:17:07.001Z</time></trkpt><trkpt lat="44.453372197084896" lon="8.979438186465384"><ele>60.0</ele><time>2026-04-25T08:17:10.001Z</time></trkpt><trkpt lat="44.45342180954941" lon="8.97954557966978"><ele>60.0</ele><time>2026-04-25T08:17:13.001Z</time></trkpt><trkpt lat="44.45344540556655" lon="8.979678407510026"><ele>59.166666666666664</ele><time>2026-04-25T08:17:16.001Z</time></trkpt><trkpt lat="44.45346588224242" lon="8.979794983958266"><ele>58.33333333333333</ele><time>2026-04-25T08:17:18.001Z</time></trkpt><trkpt lat="44.453489986187066" lon="8.979913170620685"><ele>57.5</ele><time>2026-04-25T08:17:20.001Z</time></trkpt><trkpt lat="44.453506266691974" lon="8.98004361657796"><ele>56.666666666666664</ele><time>2026-04-25T08:17:22.001Z</time></trkpt><trkpt lat="44.45353468302352" lon="8.980159388043756"><ele>55.83333333333333</ele><time>2026-04-25T08:17:24.001Z</time></trkpt><trkpt lat="44.453542773290586" lon="8.98025346818363"><ele>55.0</ele><time>2026-04-25T08:17:26.001Z</time></trkpt><trkpt lat="44.4535501199449" lon="8.9803421080061"><ele>54.71428571428571</ele><time>2026-04-25T08:17:34.001Z</time></trkpt><trkpt lat="44.453611035928795" lon="8.980370850331585"><ele>54.42857142857143</ele><time>2026-04-25T08:17:39.001Z</time></trkpt><trkpt lat="44.4536652445664" lon="8.980325277643228"><ele>54.14285714285714</ele><time>2026-04-25T08:17:41.001Z</time></trkpt><trkpt lat="44.453730072350815" lon="8.980298869152378"><ele>53.857142857142854</ele><time>2026-04-25T08:17:44.001Z</time></trkpt><trkpt lat="44.45379607719612" lon="8.980310462825576"><ele>53.57142857142857</ele><time>2026-04-25T08:17:48.001Z</time></trkpt><trkpt lat="44.4538436514112" lon="8.98024118484205"><ele>53.285714285714285</ele><time>2026-04-25T08:24:07.002Z</time></trkpt><trkpt lat="44.45392661336952" lon="8.980171466560522"><ele>53.0</ele><time>2026-04-25T08:24:10.002Z</time></trkpt><trkpt lat="44.45400006337459" lon="8.980125598409384"><ele>54.16666666666667</ele><time>2026-04-25T08:24:13.002Z</time></trkpt><trkpt lat="44.454065334554365" lon="8.980106411753754"><ele>55.333333333333336</ele><time>2026-04-25T08:24:16.002Z</time></trkpt><trkpt lat="44.454131204838106" lon="8.980140096553852"><ele>56.5</ele><time>2026-04-25T08:24:18.002Z</time></trkpt><trkpt lat="44.45416802095389" lon="8.980261172246555"><ele>57.66666666666667</ele><time>2026-04-25T08:24:20.002Z</time></trkpt><trkpt lat="44.4541961370632" lon="8.980377452989128"><ele>58.833333333333336</ele><time>2026-04-25T08:24:22.002Z</time></trkpt><trkpt lat="44.454228230243764" lon="8.980490860718188"><ele>60.0</ele><time>2026-04-25T08:24:24.002Z</time></trkpt><trkpt lat="44.45425674747941" lon="8.980596766102353"><ele>60.0</ele><time>2026-04-25T08:24:26.002Z</time></trkpt><trkpt lat="44.45428172406747" lon="8.98070492449745"><ele>60.0</ele><time>2026-04-25T08:24:28.002Z</time></trkpt><trkpt lat="44.45429926424609" lon="8.980795282473663"><ele>60.0</ele><time>2026-04-25T08:24:30.002Z</time></trkpt><trkpt lat="44.45431420194919" lon="8.980885430674105"><ele>60.0</ele><time>2026-04-25T08:24:32.002Z</time></trkpt><trkpt lat="44.454329018192894" lon="8.981016344289335"><ele>60.0</ele><time>2026-04-25T08:24:35Z</time></trkpt><trkpt lat="44.45433438694064" lon="8.981123906684315"><ele>60.0</ele><time>2026-04-25T08:24:36.999Z</time></trkpt><trkpt lat="44.45434497153692" lon="8.981229577961122"><ele>59.5</ele><time>2026-04-25T08:24:39Z</time></trkpt><trkpt lat="44.45435679496898" lon="8.98132812180417"><ele>59.0</ele><time>2026-04-25T08:24:41Z</time></trkpt><trkpt lat="44.45438781508192" lon="8.98142077957525"><ele>58.5</ele><time>2026-04-25T08:24:43Z</time></trkpt><trkpt lat="44.45438482214027" lon="8.981542495798811"><ele>58.0</ele><time>2026-04-25T08:24:45Z</time></trkpt><trkpt lat="44.45439375087286" lon="8.981679713202363"><ele>57.5</ele><time>2026-04-25T08:24:47Z</time></trkpt><trkpt lat="44.454405999462054" lon="8.981834002797278"><ele>57.0</ele><time>2026-04-25T08:24:49Z</time></trkpt><trkpt lat="44.45442242952996" lon="8.98200556157322"><ele>57.0</ele><time>2026-04-25T08:24:51Z</time></trkpt><trkpt lat="44.45442926013014" lon="8.982093281763655"><ele>57.0</ele><time>2026-04-25T08:24:52Z</time></trkpt><trkpt lat="44.45444416991254" lon="8.982269559622114"><ele>57.0</ele><time>2026-04-25T08:24:54Z</time></trkpt><trkpt lat="44.45445845829041" lon="8.982443382056271"><ele>57.0</ele><time>2026-04-25T08:24:56Z</time></trkpt><trkpt lat="44.454470941945814" lon="8.982617411332308"><ele>57.0</ele><time>2026-04-25T08:24:58Z</time></trkpt><trkpt lat="44.45447789211606" lon="8.982706087482029"><ele>57.0</ele><time>2026-04-25T08:24:59Z</time></trkpt><trkpt lat="44.45449476376771" lon="8.982879971480079"><ele>57.0</ele><time>2026-04-25T08:25:01Z</time></trkpt><trkpt lat="44.45451418673371" lon="8.983051342657594"><ele>57.0</ele><time>2026-04-25T08:25:03Z</time></trkpt><trkpt lat="44.45452609225705" lon="8.98322010199724"><ele>57.0</ele><time>2026-04-25T08:25:05Z</time></trkpt><trkpt lat="44.454541422914986" lon="8.983378189134307"><ele>56.8</ele><time>2026-04-25T08:25:07Z</time></trkpt><trkpt lat="44.45455444182582" lon="8.983529894467019"><ele>56.6</ele><time>2026-04-25T08:25:09Z</time></trkpt><trkpt lat="44.454566661507656" lon="8.983682192519087"><ele>56.39999999999999</ele><time>2026-04-25T08:25:11Z</time></trkpt><trkpt lat="44.45458621223434" lon="8.983825972528587"><ele>56.199999999999996</ele><time>2026-04-25T08:25:13Z</time></trkpt><trkpt lat="44.45460310343614" lon="8.983976317596513"><ele>56.0</ele><time>2026-04-25T08:25:15.001Z</time></trkpt><trkpt lat="44.45462232675551" lon="8.984133940464364"><ele>57.75</ele><time>2026-04-25T08:25:17.001Z</time></trkpt><trkpt lat="44.454640723223164" lon="8.984295810628195"><ele>59.5</ele><time>2026-04-25T08:25:19.001Z</time></trkpt><trkpt lat="44.45465722269509" lon="8.984456185128165"><ele>61.25</ele><time>2026-04-25T08:25:21.001Z</time></trkpt><trkpt lat="44.45468972150566" lon="8.984611671207032"><ele>63.0</ele><time>2026-04-25T08:25:23.001Z</time></trkpt><trkpt lat="44.454700463255506" lon="8.984766341307767"><ele>63.0</ele><time>2026-04-25T08:25:25.001Z</time></trkpt><trkpt lat="44.45470601042873" lon="8.984912658644568"><ele>63.0</ele><time>2026-04-25T08:25:27.001Z</time></trkpt><trkpt lat="44.45470164782784" lon="8.985054143121443"><ele>63.0</ele><time>2026-04-25T08:25:29.001Z</time></trkpt><trkpt lat="44.45468314446381" lon="8.985182539872248"><ele>63.0</ele><time>2026-04-25T08:25:31.001Z</time></trkpt><trkpt lat="44.454636653969395" lon="8.98528083252233"><ele>63.0</ele><time>2026-04-25T08:25:33.001Z</time></trkpt><trkpt lat="44.45463464802599" lon="8.985384102921474"><ele>63.166666666666664</ele><time>2026-04-25T08:25:35.001Z</time></trkpt><trkpt lat="44.45463194696295" lon="8.985494734021053"><ele>63.33333333333333</ele><time>2026-04-25T08:25:37.001Z</time></trkpt><trkpt lat="44.454608059565544" lon="8.98559965741391"><ele>63.5</ele><time>2026-04-25T08:25:39.001Z</time></trkpt><trkpt lat="44.45458879133925" lon="8.985708415490995"><ele>63.666666666666664</ele><time>2026-04-25T08:25:41.001Z</time></trkpt><trkpt lat="44.45456833708125" lon="8.985805483508006"><ele>63.83333333333333</ele><time>2026-04-25T08:25:43.001Z</time></trkpt><trkpt lat="44.45454209063792" lon="8.985926458725912"><ele>64.0</ele><time>2026-04-25T08:25:45.001Z</time></trkpt><trkpt lat="44.454512521251914" lon="8.98605098293118"><ele>63.6</ele><time>2026-04-25T08:25:47.001Z</time></trkpt><trkpt lat="44.45448152840762" lon="8.986189809357136"><ele>63.2</ele><time>2026-04-25T08:25:49.001Z</time></trkpt><trkpt lat="44.454440981904526" lon="8.986318669170936"><ele>62.800000000000004</ele><time>2026-04-25T08:25:51.001Z</time></trkpt><trkpt lat="44.45440689598669" lon="8.986456500737923"><ele>62.400000000000006</ele><time>2026-04-25T08:25:53.002Z</time></trkpt><trkpt lat="44.454379150332095" lon="8.986558113028803"><ele>62.0</ele><time>2026-04-25T08:25:55.002Z</time></trkpt><trkpt lat="44.45432657895516" lon="8.986709852092954"><ele>62.0</ele><time>2026-04-25T08:25:57.002Z</time></trkpt><trkpt lat="44.45429310999385" lon="8.986834650918125"><ele>62.0</ele><time>2026-04-25T08:25:59.002Z</time></trkpt><trkpt lat="44.45426261584611" lon="8.986960287113833"><ele>62.0</ele><time>2026-04-25T08:26:01.002Z</time></trkpt><trkpt lat="44.45422663407459" lon="8.987081803962205"><ele>62.0</ele><time>2026-04-25T08:26:03.002Z</time></trkpt><trkpt lat="44.45419560241001" lon="8.987206694963204"><ele>62.0</ele><time>2026-04-25T08:26:05.002Z</time></trkpt><trkpt lat="44.454159935991214" lon="8.98732261390148"><ele>62.0</ele><time>2026-04-25T08:26:07.002Z</time></trkpt><trkpt lat="44.45413574900024" lon="8.987448111834805"><ele>62.0</ele><time>2026-04-25T08:26:09.002Z</time></trkpt><trkpt lat="44.4540991963368" lon="8.987569007892969"><ele>62.0</ele><time>2026-04-25T08:26:11.002Z</time></trkpt><trkpt lat="44.454067130450035" lon="8.98768380187652"><ele>62.0</ele><time>2026-04-25T08:26:13.002Z</time></trkpt><trkpt lat="44.454034759276766" lon="8.98780348116869"><ele>62.0</ele><time>2026-04-25T08:26:15.002Z</time></trkpt><trkpt lat="44.454001503788405" lon="8.987927284492416"><ele>64.2</ele><time>2026-04-25T08:26:17.002Z</time></trkpt><trkpt lat="44.45397404820213" lon="8.988053331166382"><ele>66.4</ele><time>2026-04-25T08:26:19.002Z</time></trkpt><trkpt lat="44.45394114166108" lon="8.988168734797965"><ele>68.6</ele><time>2026-04-25T08:26:21.002Z</time></trkpt><trkpt lat="44.45390970708864" lon="8.988295077767976"><ele>70.8</ele><time>2026-04-25T08:26:23.002Z</time></trkpt><trkpt lat="44.453874722934884" lon="8.988416899638626"><ele>73.0</ele><time>2026-04-25T08:26:25.002Z</time></trkpt><trkpt lat="44.45384422306703" lon="8.988550137854"><ele>73.8</ele><time>2026-04-25T08:26:27.002Z</time></trkpt><trkpt lat="44.45380616934851" lon="8.988678351653132"><ele>74.6</ele><time>2026-04-25T08:26:29.002Z</time></trkpt><trkpt lat="44.45377237200325" lon="8.988809886664908"><ele>75.4</ele><time>2026-04-25T08:26:31.003Z</time></trkpt><trkpt lat="44.453736199342686" lon="8.988935625758497"><ele>76.2</ele><time>2026-04-25T08:26:33.003Z</time></trkpt><trkpt lat="44.45370320426517" lon="8.989064064664555"><ele>77.0</ele><time>2026-04-25T08:26:35.003Z</time></trkpt><trkpt lat="44.45366996851055" lon="8.989188536950403"><ele>73.2</ele><time>2026-04-25T08:26:37.003Z</time></trkpt><trkpt lat="44.453635068996434" lon="8.989317971892678"><ele>69.4</ele><time>2026-04-25T08:26:38.999Z</time></trkpt><trkpt lat="44.45360309863085" lon="8.989435838352884"><ele>65.6</ele><time>2026-04-25T08:26:40.999Z</time></trkpt><trkpt lat="44.45356936469925" lon="8.989558472491565"><ele>61.8</ele><time>2026-04-25T08:26:42.999Z</time></trkpt><trkpt lat="44.45353585648948" lon="8.989681434771386"><ele>58.0</ele><time>2026-04-25T08:26:44.999Z</time></trkpt><trkpt lat="44.453508182077755" lon="8.989798982556882"><ele>58.0</ele><time>2026-04-25T08:26:46.999Z</time></trkpt><trkpt lat="44.4534746616917" lon="8.989921790136693"><ele>58.0</ele><time>2026-04-25T08:26:48.999Z</time></trkpt><trkpt lat="44.453444259655285" lon="8.990039322950139"><ele>58.0</ele><time>2026-04-25T08:26:50.999Z</time></trkpt><trkpt lat="44.453408670349745" lon="8.990161163244416"><ele>58.0</ele><time>2026-04-25T08:26:52.999Z</time></trkpt><trkpt lat="44.4533693520656" lon="8.990268404329496"><ele>58.0</ele><time>2026-04-25T08:26:54.999Z</time></trkpt><trkpt lat="44.453328182006324" lon="8.990381913159112"><ele>59.2</ele><time>2026-04-25T08:26:56.999Z</time></trkpt><trkpt lat="44.45328438475915" lon="8.99049825980726"><ele>60.4</ele><time>2026-04-25T08:26:58.999Z</time></trkpt><trkpt lat="44.45323900858068" lon="8.990609306206675"><ele>61.60000000000001</ele><time>2026-04-25T08:27:01Z</time></trkpt><trkpt lat="44.45319445445313" lon="8.990724763722136"><ele>62.800000000000004</ele><time>2026-04-25T08:27:03Z</time></trkpt><trkpt lat="44.45314316422332" lon="8.990827965065554"><ele>64.0</ele><time>2026-04-25T08:27:05Z</time></trkpt><trkpt lat="44.45308790012083" lon="8.990932051689816"><ele>63.99999999999999</ele><time>2026-04-25T08:27:07Z</time></trkpt><trkpt lat="44.45303470555164" lon="8.991035553611072"><ele>64.0</ele><time>2026-04-25T08:27:09Z</time></trkpt><trkpt lat="44.45297720890695" lon="8.991136087542515"><ele>64.0</ele><time>2026-04-25T08:27:11Z</time></trkpt><trkpt lat="44.452919880185775" lon="8.991227234633268"><ele>64.0</ele><time>2026-04-25T08:27:13Z</time></trkpt><trkpt lat="44.452859949416506" lon="8.99132130891092"><ele>63.99999999999999</ele><time>2026-04-25T08:27:15Z</time></trkpt><trkpt lat="44.45279829401069" lon="8.991408712282064"><ele>64.0</ele><time>2026-04-25T08:27:17Z</time></trkpt><trkpt lat="44.45273539451708" lon="8.991501331993156"><ele>63.99999999999999</ele><time>2026-04-25T08:27:19Z</time></trkpt><trkpt lat="44.452671110327465" lon="8.991584414370417"><ele>64.0</ele><time>2026-04-25T08:27:21Z</time></trkpt><trkpt lat="44.45260218879636" lon="8.991665423705836"><ele>64.0</ele><time>2026-04-25T08:27:23Z</time></trkpt><trkpt lat="44.45253778192401" lon="8.991750091442015"><ele>64.0</ele><time>2026-04-25T08:27:25Z</time></trkpt><trkpt lat="44.45247299279633" lon="8.991833652449609"><ele>63.99999999999999</ele><time>2026-04-25T08:27:27.001Z</time></trkpt><trkpt lat="44.452408902694934" lon="8.991915357129987"><ele>64.0</ele><time>2026-04-25T08:27:29.001Z</time></trkpt><trkpt lat="44.45234767777065" lon="8.991996527832779"><ele>64.5</ele><time>2026-04-25T08:27:31.001Z</time></trkpt><trkpt lat="44.45228676075841" lon="8.99207981236791"><ele>65.0</ele><time>2026-04-25T08:27:33.001Z</time></trkpt><trkpt lat="44.45222760874774" lon="8.992161703794197"><ele>65.5</ele><time>2026-04-25T08:27:35.001Z</time></trkpt><trkpt lat="44.45215774282852" lon="8.992222066175687"><ele>66.0</ele><time>2026-04-25T08:27:37.001Z</time></trkpt><trkpt lat="44.45208762492477" lon="8.99229119829429"><ele>66.5</ele><time>2026-04-25T08:27:39.001Z</time></trkpt><trkpt lat="44.452014333817765" lon="8.99235276971882"><ele>67.0</ele><time>2026-04-25T08:27:41.001Z</time></trkpt><trkpt lat="44.45194154562008" lon="8.992413328205112"><ele>67.0</ele><time>2026-04-25T08:27:43.001Z</time></trkpt><trkpt lat="44.45186318397195" lon="8.992446121697592"><ele>67.0</ele><time>2026-04-25T08:27:45.001Z</time></trkpt><trkpt lat="44.45177911198123" lon="8.992470052332937"><ele>67.0</ele><time>2026-04-25T08:27:47.001Z</time></trkpt><trkpt lat="44.451694304931316" lon="8.99248982184469"><ele>67.0</ele><time>2026-04-25T08:27:49.001Z</time></trkpt><trkpt lat="44.451606574822456" lon="8.992492750818045"><ele>67.0</ele><time>2026-04-25T08:27:51.001Z</time></trkpt><trkpt lat="44.45151505970804" lon="8.99248584606266"><ele>67.0</ele><time>2026-04-25T08:27:53.001Z</time></trkpt><trkpt lat="44.45142896569256" lon="8.99245446676709"><ele>67.0</ele><time>2026-04-25T08:27:55.001Z</time></trkpt><trkpt lat="44.451342671775265" lon="8.99242137387747"><ele>67.0</ele><time>2026-04-25T08:27:57.001Z</time></trkpt><trkpt lat="44.45125561750819" lon="8.99238729422467"><ele>67.0</ele><time>2026-04-25T08:27:59.001Z</time></trkpt><trkpt lat="44.45117361876188" lon="8.992361654088352"><ele>67.0</ele><time>2026-04-25T08:28:01.002Z</time></trkpt><trkpt lat="44.45108948611714" lon="8.992334131634708"><ele>67.0</ele><time>2026-04-25T08:28:03.002Z</time></trkpt><trkpt lat="44.45100735541694" lon="8.992310435105711"><ele>67.0</ele><time>2026-04-25T08:28:05.002Z</time></trkpt><trkpt lat="44.45092417159662" lon="8.992290908198271"><ele>66.83333333333333</ele><time>2026-04-25T08:28:07.002Z</time></trkpt><trkpt lat="44.45083417000976" lon="8.992293310105941"><ele>66.66666666666666</ele><time>2026-04-25T08:28:09.002Z</time></trkpt><trkpt lat="44.450759072046615" lon="8.992292184362027"><ele>66.5</ele><time>2026-04-25T08:28:11.002Z</time></trkpt><trkpt lat="44.45067781246942" lon="8.992319127664919"><ele>66.33333333333333</ele><time>2026-04-25T08:28:13.002Z</time></trkpt><trkpt lat="44.450598396003755" lon="8.99235301426227"><ele>66.16666666666667</ele><time>2026-04-25T08:28:15.002Z</time></trkpt><trkpt lat="44.45052319051785" lon="8.99239865992634"><ele>66.0</ele><time>2026-04-25T08:28:17.002Z</time></trkpt><trkpt lat="44.45045755752703" lon="8.992460399802148"><ele>66.5</ele><time>2026-04-25T08:28:19.002Z</time></trkpt><trkpt lat="44.45038931791477" lon="8.992535206537987"><ele>67.0</ele><time>2026-04-25T08:28:21.002Z</time></trkpt><trkpt lat="44.45033177119741" lon="8.992621095540137"><ele>67.5</ele><time>2026-04-25T08:28:23.002Z</time></trkpt><trkpt lat="44.45028008458624" lon="8.992716632032534"><ele>68.0</ele><time>2026-04-25T08:28:25.002Z</time></trkpt><trkpt lat="44.450230521998854" lon="8.992818135523775"><ele>68.5</ele><time>2026-04-25T08:28:27.002Z</time></trkpt><trkpt lat="44.450177635951775" lon="8.9929249226253"><ele>69.0</ele><time>2026-04-25T08:28:29.002Z</time></trkpt><trkpt lat="44.45011228746291" lon="8.99301511068738"><ele>69.0</ele><time>2026-04-25T08:28:31.002Z</time></trkpt><trkpt lat="44.45005256262591" lon="8.993116677819868"><ele>69.0</ele><time>2026-04-25T08:28:33.002Z</time></trkpt><trkpt lat="44.450001443749855" lon="8.993230545082218"><ele>69.0</ele><time>2026-04-25T08:28:35.003Z</time></trkpt><trkpt lat="44.44994836534112" lon="8.993344542379246"><ele>69.0</ele><time>2026-04-25T08:28:37.003Z</time></trkpt><trkpt lat="44.44989061006225" lon="8.99345578948746"><ele>69.0</ele><time>2026-04-25T08:28:39.003Z</time></trkpt><trkpt lat="44.44983318211314" lon="8.993565880121588"><ele>68.8</ele><time>2026-04-25T08:28:41.003Z</time></trkpt><trkpt lat="44.44976706080447" lon="8.993669376610141"><ele>68.60000000000001</ele><time>2026-04-25T08:28:43.003Z</time></trkpt><trkpt lat="44.44970839846847" lon="8.993781647267971"><ele>68.4</ele><time>2026-04-25T08:28:44.999Z</time></trkpt><trkpt lat="44.44966035437697" lon="8.993907007950773"><ele>68.2</ele><time>2026-04-25T08:28:46.999Z</time></trkpt><trkpt lat="44.44962142032686" lon="8.994037852803334"><ele>68.0</ele><time>2026-04-25T08:28:48.999Z</time></trkpt><trkpt lat="44.449576455664136" lon="8.994166729381085"><ele>68.4</ele><time>2026-04-25T08:28:50.999Z</time></trkpt><trkpt lat="44.44954174204251" lon="8.994304826030909"><ele>68.8</ele><time>2026-04-25T08:28:52.999Z</time></trkpt><trkpt lat="44.44950394439143" lon="8.994438808374845"><ele>69.2</ele><time>2026-04-25T08:28:54.999Z</time></trkpt><trkpt lat="44.44946497962112" lon="8.994568453263545"><ele>69.6</ele><time>2026-04-25T08:28:56.999Z</time></trkpt><trkpt lat="44.449432984273976" lon="8.994709595314623"><ele>70.0</ele><time>2026-04-25T08:28:58.999Z</time></trkpt><trkpt lat="44.44939755126335" lon="8.99484579595046"><ele>70.0</ele><time>2026-04-25T08:29:00.999Z</time></trkpt><trkpt lat="44.44935854533331" lon="8.994982688826536"><ele>70.0</ele><time>2026-04-25T08:29:02.999Z</time></trkpt><trkpt lat="44.44932508569589" lon="8.995125236301934"><ele>70.0</ele><time>2026-04-25T08:29:05Z</time></trkpt><trkpt lat="44.4492901759148" lon="8.99526459310804"><ele>70.0</ele><time>2026-04-25T08:29:07Z</time></trkpt><trkpt lat="44.449246885363955" lon="8.995410182309863"><ele>70.0</ele><time>2026-04-25T08:29:09Z</time></trkpt><trkpt lat="44.449210232475814" lon="8.99555239682304"><ele>70.6</ele><time>2026-04-25T08:29:11Z</time></trkpt><trkpt lat="44.44917456500676" lon="8.995695356110309"><ele>71.2</ele><time>2026-04-25T08:29:13Z</time></trkpt><trkpt lat="44.44914750709905" lon="8.995842620292551"><ele>71.8</ele><time>2026-04-25T08:29:15Z</time></trkpt><trkpt lat="44.449107795080444" lon="8.995972686425386"><ele>72.4</ele><time>2026-04-25T08:29:17Z</time></trkpt><trkpt lat="44.44908696345377" lon="8.996112712459889"><ele>73.0</ele><time>2026-04-25T08:29:19Z</time></trkpt><trkpt lat="44.4490525570435" lon="8.996250893382953"><ele>73.6</ele><time>2026-04-25T08:29:21Z</time></trkpt><trkpt lat="44.44901417477323" lon="8.996389586607021"><ele>74.19999999999999</ele><time>2026-04-25T08:29:23Z</time></trkpt><trkpt lat="44.4489782808026" lon="8.996534663493312"><ele>74.8</ele><time>2026-04-25T08:29:25Z</time></trkpt><trkpt lat="44.448934877667675" lon="8.996670750870402"><ele>75.39999999999999</ele><time>2026-04-25T08:29:27Z</time></trkpt><trkpt lat="44.44889134239395" lon="8.996812745367977"><ele>76.0</ele><time>2026-04-25T08:29:29Z</time></trkpt><trkpt lat="44.44884880305304" lon="8.996951977715458"><ele>76.2</ele><time>2026-04-25T08:29:31.001Z</time></trkpt><trkpt lat="44.448806361661525" lon="8.997087568813882"><ele>76.39999999999999</ele><time>2026-04-25T08:29:33.001Z</time></trkpt><trkpt lat="44.44877128723368" lon="8.997226903355527"><ele>76.6</ele><time>2026-04-25T08:29:35.001Z</time></trkpt><trkpt lat="44.44873312554296" lon="8.997358745725704"><ele>76.8</ele><time>2026-04-25T08:29:37.001Z</time></trkpt><trkpt lat="44.448695643394935" lon="8.997497983016274"><ele>77.0</ele><time>2026-04-25T08:29:39.001Z</time></trkpt><trkpt lat="44.4486586894586" lon="8.997635907024314"><ele>75.2</ele><time>2026-04-25T08:29:41.001Z</time></trkpt><trkpt lat="44.44862369917004" lon="8.997775605761333"><ele>73.4</ele><time>2026-04-25T08:29:43.001Z</time></trkpt><trkpt lat="44.44859027131143" lon="8.997914459787065"><ele>71.6</ele><time>2026-04-25T08:29:45.001Z</time></trkpt><trkpt lat="44.448556939414466" lon="8.9980441968494"><ele>69.8</ele><time>2026-04-25T08:29:47.001Z</time></trkpt><trkpt lat="44.448530467336504" lon="8.9981783348669"><ele>68.0</ele><time>2026-04-25T08:29:49.001Z</time></trkpt><trkpt lat="44.44848357290845" lon="8.998322406068501"><ele>68.6</ele><time>2026-04-25T08:29:51.001Z</time></trkpt><trkpt lat="44.448454426077355" lon="8.99846298039608"><ele>69.19999999999999</ele><time>2026-04-25T08:29:53.001Z</time></trkpt><trkpt lat="44.44842421213121" lon="8.998601569895502"><ele>69.8</ele><time>2026-04-25T08:29:55.001Z</time></trkpt><trkpt lat="44.448377359023915" lon="8.998731769610181"><ele>70.39999999999999</ele><time>2026-04-25T08:29:57.001Z</time></trkpt><trkpt lat="44.44834162827556" lon="8.99886588659843"><ele>71.0</ele><time>2026-04-25T08:29:59.001Z</time></trkpt><trkpt lat="44.44830684209585" lon="8.998997619484763"><ele>71.0</ele><time>2026-04-25T08:30:01.001Z</time></trkpt><trkpt lat="44.448269967281114" lon="8.999128120627137"><ele>71.0</ele><time>2026-04-25T08:30:03.002Z</time></trkpt><trkpt lat="44.44823411435535" lon="8.999255916279585"><ele>71.0</ele><time>2026-04-25T08:30:05.002Z</time></trkpt><trkpt lat="44.44820475665427" lon="8.999384548806525"><ele>71.0</ele><time>2026-04-25T08:30:07.002Z</time></trkpt><trkpt lat="44.44817091227437" lon="8.99950503639985"><ele>71.0</ele><time>2026-04-25T08:30:09.002Z</time></trkpt><trkpt lat="44.448144565426716" lon="8.999625856925928"><ele>71.8</ele><time>2026-04-25T08:30:11.002Z</time></trkpt><trkpt lat="44.44811794944436" lon="8.999751407651608"><ele>72.6</ele><time>2026-04-25T08:30:13.002Z</time></trkpt><trkpt lat="44.44808284442466" lon="8.999866803594992"><ele>73.4</ele><time>2026-04-25T08:30:15.002Z</time></trkpt><trkpt lat="44.44805271777759" lon="8.999986414928081"><ele>74.2</ele><time>2026-04-25T08:30:17.002Z</time></trkpt><trkpt lat="44.44801917532857" lon="9.000106000513854"><ele>75.0</ele><time>2026-04-25T08:30:19.002Z</time></trkpt><trkpt lat="44.44798589345565" lon="9.000226878791757"><ele>74.83333333333333</ele><time>2026-04-25T08:30:21.002Z</time></trkpt><trkpt lat="44.44795282631194" lon="9.000340547079933"><ele>74.66666666666667</ele><time>2026-04-25T08:30:23.002Z</time></trkpt><trkpt lat="44.44792589437556" lon="9.000460839389254"><ele>74.5</ele><time>2026-04-25T08:30:25.002Z</time></trkpt><trkpt lat="44.44790227558996" lon="9.000581767625746"><ele>74.33333333333334</ele><time>2026-04-25T08:30:27.002Z</time></trkpt><trkpt lat="44.44786549972994" lon="9.000695161078818"><ele>74.16666666666667</ele><time>2026-04-25T08:30:29.002Z</time></trkpt><trkpt lat="44.4478251324201" lon="9.00081099199869"><ele>74.0</ele><time>2026-04-25T08:30:31.002Z</time></trkpt><trkpt lat="44.44779139512742" lon="9.000938570785165"><ele>73.2</ele><time>2026-04-25T08:30:33.002Z</time></trkpt><trkpt lat="44.44775541133147" lon="9.001064806708087"><ele>72.4</ele><time>2026-04-25T08:30:35.002Z</time></trkpt><trkpt lat="44.44772210966751" lon="9.001188408748439"><ele>71.6</ele><time>2026-04-25T08:30:37.003Z</time></trkpt><trkpt lat="44.44769296879391" lon="9.001305998212084"><ele>70.8</ele><time>2026-04-25T08:30:39.003Z</time></trkpt><trkpt lat="44.44767100337313" lon="9.001431048121647"><ele>70.0</ele><time>2026-04-25T08:30:41.003Z</time></trkpt><trkpt lat="44.44765248293372" lon="9.001556894266884"><ele>70.0</ele><time>2026-04-25T08:30:43.003Z</time></trkpt><trkpt lat="44.44763536395565" lon="9.001681734125265"><ele>70.0</ele><time>2026-04-25T08:30:45.003Z</time></trkpt><trkpt lat="44.44761534037592" lon="9.001806613627853"><ele>70.0</ele><time>2026-04-25T08:30:47.003Z</time></trkpt><trkpt lat="44.44760027362181" lon="9.001922862098938"><ele>70.0</ele><time>2026-04-25T08:30:49.003Z</time></trkpt><trkpt lat="44.447571992779906" lon="9.002053326975945"><ele>70.0</ele><time>2026-04-25T08:30:50.999Z</time></trkpt><trkpt lat="44.4475660698565" lon="9.002157150673787"><ele>70.0</ele><time>2026-04-25T08:30:52.999Z</time></trkpt><trkpt lat="44.44755097277492" lon="9.002267940068307"><ele>70.0</ele><time>2026-04-25T08:30:54.999Z</time></trkpt><trkpt lat="44.44753812289297" lon="9.002384382870602"><ele>70.0</ele><time>2026-04-25T08:30:56.999Z</time></trkpt><trkpt lat="44.44752450037473" lon="9.002496297588594"><ele>70.0</ele><time>2026-04-25T08:30:59Z</time></trkpt><trkpt lat="44.447509523910135" lon="9.002613089411543"><ele>70.0</ele><time>2026-04-25T08:31:01Z</time></trkpt><trkpt lat="44.44749868009026" lon="9.00272236678305"><ele>70.0</ele><time>2026-04-25T08:31:03Z</time></trkpt><trkpt lat="44.44749383710945" lon="9.002845244569317"><ele>70.0</ele><time>2026-04-25T08:31:05Z</time></trkpt><trkpt lat="44.447492334883606" lon="9.002962610379255"><ele>70.16666666666666</ele><time>2026-04-25T08:31:07Z</time></trkpt><trkpt lat="44.447506578458466" lon="9.00308346405952"><ele>70.33333333333333</ele><time>2026-04-25T08:31:09Z</time></trkpt><trkpt lat="44.44751811825783" lon="9.003204775532392"><ele>70.5</ele><time>2026-04-25T08:31:11Z</time></trkpt><trkpt lat="44.447521426526166" lon="9.00332882733925"><ele>70.66666666666667</ele><time>2026-04-25T08:31:13Z</time></trkpt><trkpt lat="44.44752511355587" lon="9.003452110161325"><ele>70.83333333333334</ele><time>2026-04-25T08:31:15Z</time></trkpt><trkpt lat="44.44753088827277" lon="9.003575536312844"><ele>71.0</ele><time>2026-04-25T08:31:17Z</time></trkpt><trkpt lat="44.44752568474954" lon="9.003697889450688"><ele>71.33333333333334</ele><time>2026-04-25T08:31:19Z</time></trkpt><trkpt lat="44.447513456055134" lon="9.003820941134794"><ele>71.66666666666667</ele><time>2026-04-25T08:31:21Z</time></trkpt><trkpt lat="44.4475219476583" lon="9.003940170197144"><ele>72.0</ele><time>2026-04-25T08:31:23Z</time></trkpt><trkpt lat="44.447534278984726" lon="9.004062907102929"><ele>72.33333333333333</ele><time>2026-04-25T08:31:25.001Z</time></trkpt><trkpt lat="44.44754518472743" lon="9.004184202677573"><ele>72.66666666666666</ele><time>2026-04-25T08:31:27.001Z</time></trkpt><trkpt lat="44.447560187082345" lon="9.004308069497023"><ele>73.0</ele><time>2026-04-25T08:31:29.001Z</time></trkpt><trkpt lat="44.44758207454739" lon="9.00442434719601"><ele>73.16666666666666</ele><time>2026-04-25T08:31:31.001Z</time></trkpt><trkpt lat="44.44760662990921" lon="9.004541048109354"><ele>73.33333333333333</ele><time>2026-04-25T08:31:33.001Z</time></trkpt><trkpt lat="44.44763083563526" lon="9.004658567115333"><ele>73.5</ele><time>2026-04-25T08:31:35.001Z</time></trkpt><trkpt lat="44.447658588588" lon="9.0047736700784"><ele>73.66666666666667</ele><time>2026-04-25T08:31:37.001Z</time></trkpt><trkpt lat="44.447687493928676" lon="9.004892660995628"><ele>73.83333333333334</ele><time>2026-04-25T08:31:39.001Z</time></trkpt><trkpt lat="44.44771926744634" lon="9.0050117875111"><ele>74.0</ele><time>2026-04-25T08:31:41.001Z</time></trkpt><trkpt lat="44.4477327267566" lon="9.005136430711167"><ele>74.16666666666667</ele><time>2026-04-25T08:31:43.001Z</time></trkpt><trkpt lat="44.447754643859085" lon="9.00526196489185"><ele>74.33333333333334</ele><time>2026-04-25T08:31:45.001Z</time></trkpt><trkpt lat="44.4477871779114" lon="9.00537829048784"><ele>74.5</ele><time>2026-04-25T08:31:47.001Z</time></trkpt><trkpt lat="44.44780993929937" lon="9.005495586167266"><ele>74.66666666666667</ele><time>2026-04-25T08:31:49.001Z</time></trkpt><trkpt lat="44.44783583115335" lon="9.005614751257907"><ele>74.83333333333333</ele><time>2026-04-25T08:31:51.001Z</time></trkpt><trkpt lat="44.44786069613791" lon="9.00573218952804"><ele>75.0</ele><time>2026-04-25T08:31:53.001Z</time></trkpt><trkpt lat="44.447887624427175" lon="9.005849926036886"><ele>75.0</ele><time>2026-04-25T08:31:55.002Z</time></trkpt><trkpt lat="44.447911506809454" lon="9.005971296984224"><ele>75.0</ele><time>2026-04-25T08:31:57.002Z</time></trkpt><trkpt lat="44.44794182230596" lon="9.006090136261184"><ele>75.0</ele><time>2026-04-25T08:31:59.002Z</time></trkpt><trkpt lat="44.44797539307509" lon="9.006218651858347"><ele>75.0</ele><time>2026-04-25T08:32:01.002Z</time></trkpt><trkpt lat="44.4480012167629" lon="9.006357706067675"><ele>75.0</ele><time>2026-04-25T08:32:03.002Z</time></trkpt><trkpt lat="44.448019521621234" lon="9.006498394898802"><ele>75.0</ele><time>2026-04-25T08:32:05.002Z</time></trkpt><trkpt lat="44.44794766187744" lon="9.006623074279432"><ele>75.0</ele><time>2026-04-25T08:32:07.002Z</time></trkpt><trkpt lat="44.4479000714928" lon="9.006687330408964"><ele>75.0</ele><time>2026-04-25T08:32:09.002Z</time></trkpt><trkpt lat="44.44785298492061" lon="9.006782945184986"><ele>75.0</ele><time>2026-04-25T08:32:20.002Z</time></trkpt><trkpt lat="44.4478495185186" lon="9.006878350444506"><ele>75.0</ele><time>2026-04-25T08:32:22.002Z</time></trkpt><trkpt lat="44.44788630526079" lon="9.006998053802997"><ele>75.0</ele><time>2026-04-25T08:32:25.002Z</time></trkpt><trkpt lat="44.44791822865224" lon="9.007102950877364"><ele>75.4</ele><time>2026-04-25T08:32:27.003Z</time></trkpt><trkpt lat="44.44795422412508" lon="9.007215512794113"><ele>75.8</ele><time>2026-04-25T08:32:29.003Z</time></trkpt><trkpt lat="44.4479937905697" lon="9.007329861548213"><ele>76.2</ele><time>2026-04-25T08:32:31.003Z</time></trkpt><trkpt lat="44.448032751659824" lon="9.007447722197563"><ele>76.6</ele><time>2026-04-25T08:32:33.003Z</time></trkpt><trkpt lat="44.44808653533117" lon="9.007553816618472"><ele>77.0</ele><time>2026-04-25T08:32:35.003Z</time></trkpt><trkpt lat="44.44815494479365" lon="9.007644953996492"><ele>77.6</ele><time>2026-04-25T08:32:37.003Z</time></trkpt><trkpt lat="44.44821980518354" lon="9.007735036245379"><ele>78.2</ele><time>2026-04-25T08:32:39.003Z</time></trkpt><trkpt lat="44.44827159326404" lon="9.0078450297886"><ele>78.8</ele><time>2026-04-25T08:32:41.003Z</time></trkpt><trkpt lat="44.44831064184671" lon="9.007967857639992"><ele>79.4</ele><time>2026-04-25T08:32:43.003Z</time></trkpt><trkpt lat="44.44834021531612" lon="9.008098347626389"><ele>80.0</ele><time>2026-04-25T08:32:45.003Z</time></trkpt><trkpt lat="44.44835974127278" lon="9.0082385775224"><ele>80.6</ele><time>2026-04-25T08:32:47.003Z</time></trkpt><trkpt lat="44.44838684445266" lon="9.008380175947314"><ele>81.2</ele><time>2026-04-25T08:32:49.003Z</time></trkpt><trkpt lat="44.44842313398394" lon="9.008510048537273"><ele>81.80000000000001</ele><time>2026-04-25T08:32:51.003Z</time></trkpt><trkpt lat="44.448449422196404" lon="9.00865131489539"><ele>82.4</ele><time>2026-04-25T08:32:53.003Z</time></trkpt><trkpt lat="44.4484831502969" lon="9.008791040746019"><ele>83.0</ele><time>2026-04-25T08:32:55.003Z</time></trkpt><trkpt lat="44.44850441195907" lon="9.008928236605318"><ele>83.0</ele><time>2026-04-25T08:32:57Z</time></trkpt><trkpt lat="44.44853912168935" lon="9.00906082678388"><ele>83.0</ele><time>2026-04-25T08:32:59Z</time></trkpt><trkpt lat="44.448567991909684" lon="9.009197025781216"><ele>83.0</ele><time>2026-04-25T08:33:01Z</time></trkpt><trkpt lat="44.44859758860646" lon="9.009332949768766"><ele>83.0</ele><time>2026-04-25T08:33:03Z</time></trkpt><trkpt lat="44.44863135607869" lon="9.009457379655112"><ele>83.0</ele><time>2026-04-25T08:33:05Z</time></trkpt><trkpt lat="44.44865881925424" lon="9.009590574724422"><ele>82.2</ele><time>2026-04-25T08:33:07Z</time></trkpt><trkpt lat="44.44868275021559" lon="9.009722312338583"><ele>81.4</ele><time>2026-04-25T08:33:09Z</time></trkpt><trkpt lat="44.44871023092934" lon="9.009849732935676"><ele>80.60000000000001</ele><time>2026-04-25T08:33:11Z</time></trkpt><trkpt lat="44.44873135489461" lon="9.009980724439135"><ele>79.80000000000001</ele><time>2026-04-25T08:33:13Z</time></trkpt><trkpt lat="44.44875681676464" lon="9.010108861945941"><ele>79.0</ele><time>2026-04-25T08:33:15Z</time></trkpt><trkpt lat="44.44878925538577" lon="9.010235073430954"><ele>79.80000000000001</ele><time>2026-04-25T08:33:17Z</time></trkpt><trkpt lat="44.44881520286414" lon="9.010358795599137"><ele>80.60000000000001</ele><time>2026-04-25T08:33:19Z</time></trkpt><trkpt lat="44.44884420352419" lon="9.01048597021311"><ele>81.4</ele><time>2026-04-25T08:33:21Z</time></trkpt><trkpt lat="44.44887276197126" lon="9.010616762188633"><ele>82.2</ele><time>2026-04-25T08:33:23Z</time></trkpt><trkpt lat="44.448895710016295" lon="9.010742880078702"><ele>83.0</ele><time>2026-04-25T08:33:25Z</time></trkpt><trkpt lat="44.448917006563555" lon="9.010874681202969"><ele>83.0</ele><time>2026-04-25T08:33:27Z</time></trkpt><trkpt lat="44.44894461790542" lon="9.01100550065873"><ele>83.0</ele><time>2026-04-25T08:33:29Z</time></trkpt><trkpt lat="44.448972352454476" lon="9.01113140579766"><ele>83.0</ele><time>2026-04-25T08:33:31.001Z</time></trkpt><trkpt lat="44.44900019700319" lon="9.011259523843052"><ele>83.0</ele><time>2026-04-25T08:33:33.001Z</time></trkpt><trkpt lat="44.449025906492224" lon="9.011385541053299"><ele>83.0</ele><time>2026-04-25T08:33:35.001Z</time></trkpt><trkpt lat="44.449053943293734" lon="9.01151259442478"><ele>83.0</ele><time>2026-04-25T08:33:37.001Z</time></trkpt><trkpt lat="44.44908696708423" lon="9.011635100463725"><ele>83.0</ele><time>2026-04-25T08:33:39.001Z</time></trkpt><trkpt lat="44.4491223261579" lon="9.011754290949659"><ele>83.0</ele><time>2026-04-25T08:33:41.001Z</time></trkpt><trkpt lat="44.44915196106255" lon="9.011876461257419"><ele>83.0</ele><time>2026-04-25T08:33:43.001Z</time></trkpt><trkpt lat="44.449169661202916" lon="9.012006129239856"><ele>83.0</ele><time>2026-04-25T08:33:45.001Z</time></trkpt><trkpt lat="44.44919641750362" lon="9.012125382345229"><ele>83.33333333333334</ele><time>2026-04-25T08:33:47.001Z</time></trkpt><trkpt lat="44.44921770691073" lon="9.012250880537447"><ele>83.66666666666667</ele><time>2026-04-25T08:33:49.001Z</time></trkpt><trkpt lat="44.449239159600864" lon="9.012380116430764"><ele>84.0</ele><time>2026-04-25T08:33:51.001Z</time></trkpt><trkpt lat="44.449270158083515" lon="9.012495316706039"><ele>84.33333333333333</ele><time>2026-04-25T08:33:53.001Z</time></trkpt><trkpt lat="44.44929267508391" lon="9.012611603034102"><ele>84.66666666666666</ele><time>2026-04-25T08:33:55.001Z</time></trkpt><trkpt lat="44.44931999287775" lon="9.012727103140465"><ele>85.0</ele><time>2026-04-25T08:33:57.001Z</time></trkpt><trkpt lat="44.449339656348855" lon="9.01284734656061"><ele>84.4</ele><time>2026-04-25T08:33:59.001Z</time></trkpt><trkpt lat="44.44936467996508" lon="9.012974791038936"><ele>83.8</ele><time>2026-04-25T08:34:01.001Z</time></trkpt><trkpt lat="44.44939642939066" lon="9.01309378492969"><ele>83.19999999999999</ele><time>2026-04-25T08:34:03.002Z</time></trkpt><trkpt lat="44.449422963331585" lon="9.013215484601943"><ele>82.6</ele><time>2026-04-25T08:34:04.002Z</time></trkpt><trkpt lat="44.44946492022585" lon="9.013355411457374"><ele>82.0</ele><time>2026-04-25T08:34:07.002Z</time></trkpt><trkpt lat="44.44948681490913" lon="9.013482861548132"><ele>82.0</ele><time>2026-04-25T08:34:09.002Z</time></trkpt><trkpt lat="44.44951492371536" lon="9.013598924161661"><ele>82.0</ele><time>2026-04-25T08:34:11.002Z</time></trkpt><trkpt lat="44.44953539670352" lon="9.013718305120918"><ele>82.0</ele><time>2026-04-25T08:34:13.002Z</time></trkpt><trkpt lat="44.44955882586262" lon="9.013844246782755"><ele>82.0</ele><time>2026-04-25T08:34:15.002Z</time></trkpt><trkpt lat="44.449584996904335" lon="9.013962377746795"><ele>82.0</ele><time>2026-04-25T08:34:17.002Z</time></trkpt><trkpt lat="44.449610228210844" lon="9.014086185280615"><ele>82.0</ele><time>2026-04-25T08:34:19.002Z</time></trkpt><trkpt lat="44.449631299307846" lon="9.014208380260133"><ele>83.6</ele><time>2026-04-25T08:34:21.002Z</time></trkpt><trkpt lat="44.449654218912535" lon="9.014334206908993"><ele>85.19999999999999</ele><time>2026-04-25T08:34:23.002Z</time></trkpt><trkpt lat="44.44968150986865" lon="9.0144581130558"><ele>86.8</ele><time>2026-04-25T08:34:25.002Z</time></trkpt><trkpt lat="44.44970123645786" lon="9.014585250073504"><ele>88.4</ele><time>2026-04-25T08:34:27.002Z</time></trkpt><trkpt lat="44.44972413093658" lon="9.014712813191922"><ele>90.0</ele><time>2026-04-25T08:34:29.002Z</time></trkpt><trkpt lat="44.44973817323287" lon="9.014849277669285"><ele>90.0</ele><time>2026-04-25T08:34:31.002Z</time></trkpt><trkpt lat="44.44975312776271" lon="9.01498589713126"><ele>90.0</ele><time>2026-04-25T08:34:33.002Z</time></trkpt><trkpt lat="44.44976852281194" lon="9.015120915353748"><ele>90.0</ele><time>2026-04-25T08:34:35.002Z</time></trkpt><trkpt lat="44.44978348854363" lon="9.015255196712356"><ele>90.0</ele><time>2026-04-25T08:34:37.003Z</time></trkpt><trkpt lat="44.44978762569896" lon="9.015392586678653"><ele>90.0</ele><time>2026-04-25T08:34:39.003Z</time></trkpt><trkpt lat="44.449800683080426" lon="9.015527571177005"><ele>90.0</ele><time>2026-04-25T08:34:41.003Z</time></trkpt><trkpt lat="44.44980343058367" lon="9.015662260967002"><ele>90.0</ele><time>2026-04-25T08:34:43.003Z</time></trkpt><trkpt lat="44.44980289262861" lon="9.0157914307147"><ele>90.0</ele><time>2026-04-25T08:34:45.003Z</time></trkpt><trkpt lat="44.44980430579145" lon="9.015923621715555"><ele>90.0</ele><time>2026-04-25T08:34:47.003Z</time></trkpt><trkpt lat="44.44980257282114" lon="9.01605534205331"><ele>90.0</ele><time>2026-04-25T08:34:49.003Z</time></trkpt><trkpt lat="44.449811343570346" lon="9.016186424823545"><ele>90.0</ele><time>2026-04-25T08:34:51.003Z</time></trkpt><trkpt lat="44.44981148024331" lon="9.016314041244387"><ele>90.0</ele><time>2026-04-25T08:34:53.003Z</time></trkpt><trkpt lat="44.44980447132796" lon="9.016440433909587"><ele>90.0</ele><time>2026-04-25T08:34:55.003Z</time></trkpt><trkpt lat="44.4497965972392" lon="9.016574182007249"><ele>90.0</ele><time>2026-04-25T08:34:57.003Z</time></trkpt><trkpt lat="44.44978788489056" lon="9.016703751148905"><ele>90.0</ele><time>2026-04-25T08:34:59.003Z</time></trkpt><trkpt lat="44.44977960860441" lon="9.016831384318492"><ele>90.0</ele><time>2026-04-25T08:35:01.003Z</time></trkpt><trkpt lat="44.44976753000203" lon="9.016954458928046"><ele>90.0</ele><time>2026-04-25T08:35:03Z</time></trkpt><trkpt lat="44.449756999306025" lon="9.017080120687822"><ele>90.0</ele><time>2026-04-25T08:35:05Z</time></trkpt><trkpt lat="44.449743344764116" lon="9.017202314306987"><ele>90.0</ele><time>2026-04-25T08:35:07Z</time></trkpt><trkpt lat="44.449731549021344" lon="9.017327539229484"><ele>90.0</ele><time>2026-04-25T08:35:09Z</time></trkpt><trkpt lat="44.44972824454892" lon="9.017450070874414"><ele>90.0</ele><time>2026-04-25T08:35:11Z</time></trkpt><trkpt lat="44.44971962522935" lon="9.017569380509459"><ele>90.16666666666667</ele><time>2026-04-25T08:35:13Z</time></trkpt><trkpt lat="44.44970989113546" lon="9.017689513538526"><ele>90.33333333333333</ele><time>2026-04-25T08:35:15Z</time></trkpt><trkpt lat="44.44970274286074" lon="9.017812488739626"><ele>90.5</ele><time>2026-04-25T08:35:17Z</time></trkpt><trkpt lat="44.44969620908985" lon="9.017934333652926"><ele>90.66666666666666</ele><time>2026-04-25T08:35:19Z</time></trkpt><trkpt lat="44.44968247418238" lon="9.018052759778161"><ele>90.83333333333333</ele><time>2026-04-25T08:35:21Z</time></trkpt><trkpt lat="44.449656148421525" lon="9.018172205694677"><ele>91.0</ele><time>2026-04-25T08:35:23Z</time></trkpt><trkpt lat="44.4496735040397" lon="9.018289841279465"><ele>91.16666666666666</ele><time>2026-04-25T08:35:25Z</time></trkpt><trkpt lat="44.44966543489414" lon="9.018408182499149"><ele>91.33333333333333</ele><time>2026-04-25T08:35:27Z</time></trkpt><trkpt lat="44.4496473477436" lon="9.018523642234832"><ele>91.5</ele><time>2026-04-25T08:35:29Z</time></trkpt><trkpt lat="44.44963186777969" lon="9.01863594761375"><ele>91.66666666666667</ele><time>2026-04-25T08:35:31Z</time></trkpt><trkpt lat="44.44960562486117" lon="9.018748933930127"><ele>91.83333333333334</ele><time>2026-04-25T08:35:33Z</time></trkpt><trkpt lat="44.44960510225581" lon="9.018871761849185"><ele>92.0</ele><time>2026-04-25T08:35:35.001Z</time></trkpt><trkpt lat="44.44959882823224" lon="9.018993420154855"><ele>91.33333333333334</ele><time>2026-04-25T08:35:37.001Z</time></trkpt><trkpt lat="44.44959161860899" lon="9.019116275966375"><ele>90.66666666666667</ele><time>2026-04-25T08:35:39.001Z</time></trkpt><trkpt lat="44.44957053978479" lon="9.019226584935847"><ele>90.0</ele><time>2026-04-25T08:35:41.001Z</time></trkpt><trkpt lat="44.449557056003925" lon="9.019326103802126"><ele>89.33333333333333</ele><time>2026-04-25T08:35:43.001Z</time></trkpt><trkpt lat="44.44955182220939" lon="9.019435570015082"><ele>88.66666666666666</ele><time>2026-04-25T08:35:45.001Z</time></trkpt><trkpt lat="44.44954851889029" lon="9.01954312575941"><ele>88.0</ele><time>2026-04-25T08:35:47.001Z</time></trkpt><trkpt lat="44.449544409107226" lon="9.019645419501913"><ele>88.0</ele><time>2026-04-25T08:35:49.001Z</time></trkpt><trkpt lat="44.44954080984299" lon="9.019752431316755"><ele>88.0</ele><time>2026-04-25T08:35:51.001Z</time></trkpt><trkpt lat="44.44953884844429" lon="9.019853534079475"><ele>88.0</ele><time>2026-04-25T08:35:53.001Z</time></trkpt><trkpt lat="44.44952805560572" lon="9.019956541773103"><ele>88.0</ele><time>2026-04-25T08:35:55.001Z</time></trkpt><trkpt lat="44.449516519965705" lon="9.020068407777021"><ele>88.0</ele><time>2026-04-25T08:35:57.001Z</time></trkpt><trkpt lat="44.449498898460774" lon="9.02017160433537"><ele>88.0</ele><time>2026-04-25T08:35:59.001Z</time></trkpt><trkpt lat="44.44948966829312" lon="9.020269841050412"><ele>88.16666666666666</ele><time>2026-04-25T08:36:01.001Z</time></trkpt><trkpt lat="44.44948212345529" lon="9.020380152113091"><ele>88.33333333333333</ele><time>2026-04-25T08:36:03.001Z</time></trkpt><trkpt lat="44.44946633831006" lon="9.020490190654147"><ele>88.5</ele><time>2026-04-25T08:36:05.001Z</time></trkpt><trkpt lat="44.44945529516671" lon="9.020603235190338"><ele>88.66666666666667</ele><time>2026-04-25T08:36:07.002Z</time></trkpt><trkpt lat="44.449447975636" lon="9.020710661981699"><ele>88.83333333333334</ele><time>2026-04-25T08:36:09.002Z</time></trkpt><trkpt lat="44.44944283287752" lon="9.020824144187577"><ele>89.0</ele><time>2026-04-25T08:36:11.002Z</time></trkpt><trkpt lat="44.44943558155556" lon="9.020930371527326"><ele>89.0</ele><time>2026-04-25T08:36:13.002Z</time></trkpt><trkpt lat="44.44942817683534" lon="9.02103759213728"><ele>89.0</ele><time>2026-04-25T08:36:15.002Z</time></trkpt><trkpt lat="44.449420297983174" lon="9.021144368436355"><ele>89.0</ele><time>2026-04-25T08:36:17.002Z</time></trkpt><trkpt lat="44.44940917740344" lon="9.021251420952462"><ele>89.0</ele><time>2026-04-25T08:36:19.002Z</time></trkpt><trkpt lat="44.449398497339345" lon="9.021360614787643"><ele>89.0</ele><time>2026-04-25T08:36:21.002Z</time></trkpt><trkpt lat="44.44939007978066" lon="9.02147105459844"><ele>89.0</ele><time>2026-04-25T08:36:23.002Z</time></trkpt><trkpt lat="44.44938318616971" lon="9.02158114507846"><ele>89.16666666666667</ele><time>2026-04-25T08:36:25.002Z</time></trkpt><trkpt lat="44.449377028221534" lon="9.021688048850727"><ele>89.33333333333334</ele><time>2026-04-25T08:36:27.002Z</time></trkpt><trkpt lat="44.449370876581774" lon="9.021793559839788"><ele>89.5</ele><time>2026-04-25T08:36:29.002Z</time></trkpt><trkpt lat="44.44936091166839" lon="9.021904214152856"><ele>89.66666666666667</ele><time>2026-04-25T08:36:31.002Z</time></trkpt><trkpt lat="44.44935573393638" lon="9.022019934993928"><ele>89.83333333333333</ele><time>2026-04-25T08:36:33.002Z</time></trkpt><trkpt lat="44.449349286899746" lon="9.02213079237796"><ele>90.0</ele><time>2026-04-25T08:36:35.002Z</time></trkpt><trkpt lat="44.44933659851349" lon="9.02223464068198"><ele>90.0</ele><time>2026-04-25T08:36:37.002Z</time></trkpt><trkpt lat="44.44932278976526" lon="9.022340112962539"><ele>90.0</ele><time>2026-04-25T08:36:39.002Z</time></trkpt><trkpt lat="44.449316296541475" lon="9.02244638359726"><ele>90.0</ele><time>2026-04-25T08:36:41.003Z</time></trkpt><trkpt lat="44.44930774754508" lon="9.022551458338894"><ele>90.0</ele><time>2026-04-25T08:36:43.003Z</time></trkpt><trkpt lat="44.44929615583001" lon="9.02264918287296"><ele>90.0</ele><time>2026-04-25T08:36:45.003Z</time></trkpt><trkpt lat="44.44928583855952" lon="9.022758210903616"><ele>90.0</ele><time>2026-04-25T08:36:47.003Z</time></trkpt><trkpt lat="44.44927818245957" lon="9.022862194430214"><ele>90.71428571428571</ele><time>2026-04-25T08:36:49.003Z</time></trkpt><trkpt lat="44.449281685682514" lon="9.02296110345819"><ele>91.42857142857143</ele><time>2026-04-25T08:36:51.003Z</time></trkpt><trkpt lat="44.449274649224144" lon="9.023060454607645"><ele>92.14285714285714</ele><time>2026-04-25T08:36:53.003Z</time></trkpt><trkpt lat="44.44925910142615" lon="9.023160064545296"><ele>92.85714285714286</ele><time>2026-04-25T08:36:55.003Z</time></trkpt><trkpt lat="44.449251256406036" lon="9.023256850465904"><ele>93.57142857142858</ele><time>2026-04-25T08:36:57.003Z</time></trkpt><trkpt lat="44.449245076012105" lon="9.023361235533066"><ele>94.28571428571429</ele><time>2026-04-25T08:36:59.003Z</time></trkpt><trkpt lat="44.44923701545051" lon="9.023473880368751"><ele>95.0</ele><time>2026-04-25T08:37:01.003Z</time></trkpt><trkpt lat="44.44922996709646" lon="9.02358659138593"><ele>96.0</ele><time>2026-04-25T08:37:03.003Z</time></trkpt><trkpt lat="44.44922141704026" lon="9.02370113525553"><ele>97.0</ele><time>2026-04-25T08:37:05.003Z</time></trkpt><trkpt lat="44.44921258586048" lon="9.023812593730216"><ele>98.0</ele><time>2026-04-25T08:37:07.003Z</time></trkpt><trkpt lat="44.44920776310043" lon="9.023920146516307"><ele>99.0</ele><time>2026-04-25T08:37:09Z</time></trkpt><trkpt lat="44.44920036419933" lon="9.024026611535364"><ele>99.99999999999999</ele><time>2026-04-25T08:37:11Z</time></trkpt><trkpt lat="44.44920488665632" lon="9.024131401050392"><ele>101.0</ele><time>2026-04-25T08:37:13Z</time></trkpt><trkpt lat="44.44922940239899" lon="9.024231778694162"><ele>102.14285714285714</ele><time>2026-04-25T08:37:15Z</time></trkpt><trkpt lat="44.449257286545276" lon="9.024326111527863"><ele>103.28571428571428</ele><time>2026-04-25T08:37:17Z</time></trkpt><trkpt lat="44.44930211111289" lon="9.024417919491242"><ele>104.42857142857143</ele><time>2026-04-25T08:37:19Z</time></trkpt><trkpt lat="44.44935656649353" lon="9.024492052054017"><ele>105.57142857142857</ele><time>2026-04-25T08:37:21Z</time></trkpt><trkpt lat="44.44941242784926" lon="9.024547790683009"><ele>106.71428571428572</ele><time>2026-04-25T08:37:23Z</time></trkpt><trkpt lat="44.44947669796289" lon="9.024596826298621"><ele>107.85714285714286</ele><time>2026-04-25T08:37:25Z</time></trkpt><trkpt lat="44.44954719313927" lon="9.024638615079928"><ele>109.0</ele><time>2026-04-25T08:37:27Z</time></trkpt><trkpt lat="44.44960734421094" lon="9.024672990027662"><ele>108.33333333333334</ele><time>2026-04-25T08:37:29Z</time></trkpt><trkpt lat="44.44967817461632" lon="9.024723964009636"><ele>107.66666666666667</ele><time>2026-04-25T08:37:31Z</time></trkpt><trkpt lat="44.44974839982115" lon="9.02474558468341"><ele>107.0</ele><time>2026-04-25T08:37:33Z</time></trkpt><trkpt lat="44.44981844675975" lon="9.024815280001354"><ele>106.33333333333334</ele><time>2026-04-25T08:37:35Z</time></trkpt><trkpt lat="44.44988814219022" lon="9.024870650964045"><ele>105.66666666666667</ele><time>2026-04-25T08:37:37Z</time></trkpt><trkpt lat="44.44995502216617" lon="9.024935347423238"><ele>105.0</ele><time>2026-04-25T08:37:39Z</time></trkpt><trkpt lat="44.45001351901478" lon="9.02500225109919"><ele>105.0</ele><time>2026-04-25T08:37:41.001Z</time></trkpt><trkpt lat="44.450071298813164" lon="9.025086128343007"><ele>105.0</ele><time>2026-04-25T08:37:43.001Z</time></trkpt><trkpt lat="44.450125091069076" lon="9.025154850316675"><ele>105.0</ele><time>2026-04-25T08:37:45.001Z</time></trkpt><trkpt lat="44.45016568144162" lon="9.025241382207694"><ele>105.0</ele><time>2026-04-25T08:37:47.001Z</time></trkpt><trkpt lat="44.45020129909322" lon="9.025329860648801"><ele>105.0</ele><time>2026-04-25T08:37:49.001Z</time></trkpt><trkpt lat="44.45023118190144" lon="9.025421173775648"><ele>105.0</ele><time>2026-04-25T08:37:51.001Z</time></trkpt><trkpt lat="44.45024592679589" lon="9.02551471278804"><ele>105.0</ele><time>2026-04-25T08:37:53.001Z</time></trkpt><trkpt lat="44.45023782259513" lon="9.025613471251589"><ele>105.0</ele><time>2026-04-25T08:37:55.001Z</time></trkpt><trkpt lat="44.45020654248475" lon="9.02570987886707"><ele>105.0</ele><time>2026-04-25T08:37:57.001Z</time></trkpt><trkpt lat="44.45015790940912" lon="9.02580305671092"><ele>105.0</ele><time>2026-04-25T08:37:59.001Z</time></trkpt><trkpt lat="44.45009853239347" lon="9.025885945980294"><ele>105.0</ele><time>2026-04-25T08:38:01.001Z</time></trkpt><trkpt lat="44.450032950382614" lon="9.025954633672455"><ele>105.0</ele><time>2026-04-25T08:38:03.001Z</time></trkpt><trkpt lat="44.44996313472852" lon="9.026025796160296"><ele>105.0</ele><time>2026-04-25T08:38:05.001Z</time></trkpt><trkpt lat="44.449890290114325" lon="9.026086400798576"><ele>106.16666666666667</ele><time>2026-04-25T08:38:07.001Z</time></trkpt><trkpt lat="44.44981053155069" lon="9.026146458674448"><ele>107.33333333333334</ele><time>2026-04-25T08:38:09.001Z</time></trkpt><trkpt lat="44.449745412303365" lon="9.026228157574163"><ele>108.5</ele><time>2026-04-25T08:38:11.001Z</time></trkpt><trkpt lat="44.449668219601314" lon="9.026289795444884"><ele>109.66666666666667</ele><time>2026-04-25T08:38:13.001Z</time></trkpt><trkpt lat="44.449601890271545" lon="9.026361538856904"><ele>110.83333333333334</ele><time>2026-04-25T08:38:15.002Z</time></trkpt><trkpt lat="44.44954539542972" lon="9.026439767256162"><ele>112.0</ele><time>2026-04-25T08:38:17.002Z</time></trkpt><trkpt lat="44.44949218923919" lon="9.026523390959417"><ele>116.83333333333334</ele><time>2026-04-25T08:38:19.002Z</time></trkpt><trkpt lat="44.44946107967815" lon="9.026617948279918"><ele>121.66666666666667</ele><time>2026-04-25T08:38:21.002Z</time></trkpt><trkpt lat="44.449442533688554" lon="9.026715714402538"><ele>126.5</ele><time>2026-04-25T08:38:23.002Z</time></trkpt><trkpt lat="44.449444090849106" lon="9.026813502061938"><ele>131.33333333333334</ele><time>2026-04-25T08:38:25.002Z</time></trkpt><trkpt lat="44.44947378709132" lon="9.026893046291589"><ele>136.16666666666666</ele><time>2026-04-25T08:38:27.002Z</time></trkpt><trkpt lat="44.449548028564934" lon="9.02695069847827"><ele>141.0</ele><time>2026-04-25T08:41:46.001Z</time></trkpt><trkpt lat="44.44958606256647" lon="9.027071302423991"><ele>137.0</ele><time>2026-04-25T08:41:49.001Z</time></trkpt><trkpt lat="44.44962627097259" lon="9.027158701073356"><ele>133.0</ele><time>2026-04-25T08:41:51.001Z</time></trkpt><trkpt lat="44.44967711367583" lon="9.027239825735345"><ele>129.0</ele><time>2026-04-25T08:41:53.001Z</time></trkpt><trkpt lat="44.44971482462692" lon="9.02734809428697"><ele>125.0</ele><time>2026-04-25T08:41:55.001Z</time></trkpt><trkpt lat="44.449782463991596" lon="9.02743178848341"><ele>121.0</ele><time>2026-04-25T08:41:57.001Z</time></trkpt><trkpt lat="44.44985465976685" lon="9.027499878207442"><ele>117.0</ele><time>2026-04-25T08:41:59.001Z</time></trkpt><trkpt lat="44.44992636406152" lon="9.027573601388347"><ele>117.0</ele><time>2026-04-25T08:42:01.001Z</time></trkpt><trkpt lat="44.44999887055739" lon="9.027641685072966"><ele>117.0</ele><time>2026-04-25T08:42:03.001Z</time></trkpt><trkpt lat="44.45007583583406" lon="9.027704480394698"><ele>117.0</ele><time>2026-04-25T08:42:05.001Z</time></trkpt><trkpt lat="44.450154452294775" lon="9.027764528293174"><ele>117.0</ele><time>2026-04-25T08:42:07.001Z</time></trkpt><trkpt lat="44.450231724077895" lon="9.027831691874862"><ele>117.0</ele><time>2026-04-25T08:42:09.001Z</time></trkpt><trkpt lat="44.45030570985648" lon="9.027895178364513"><ele>117.0</ele><time>2026-04-25T08:42:11.001Z</time></trkpt><trkpt lat="44.45038394749464" lon="9.027960063693406"><ele>116.8</ele><time>2026-04-25T08:42:13.001Z</time></trkpt><trkpt lat="44.45046410215568" lon="9.028023685572888"><ele>116.6</ele><time>2026-04-25T08:42:15.002Z</time></trkpt><trkpt lat="44.45054320397925" lon="9.028098720233977"><ele>116.39999999999999</ele><time>2026-04-25T08:42:17.002Z</time></trkpt><trkpt lat="44.45062232815182" lon="9.028179316728577"><ele>116.19999999999999</ele><time>2026-04-25T08:42:19.002Z</time></trkpt><trkpt lat="44.45069625704109" lon="9.028268285788482"><ele>116.0</ele><time>2026-04-25T08:42:21.002Z</time></trkpt><trkpt lat="44.450757706883834" lon="9.028357459222134"><ele>116.0</ele><time>2026-04-25T08:42:23.002Z</time></trkpt><trkpt lat="44.45081086963063" lon="9.028454449960298"><ele>116.0</ele><time>2026-04-25T08:42:25.002Z</time></trkpt><trkpt lat="44.45084470291936" lon="9.028579347110535"><ele>116.0</ele><time>2026-04-25T08:42:27.002Z</time></trkpt><trkpt lat="44.45086014476995" lon="9.028718841862515"><ele>116.0</ele><time>2026-04-25T08:42:29.002Z</time></trkpt><trkpt lat="44.45083688485563" lon="9.02884818285652"><ele>116.0</ele><time>2026-04-25T08:42:31.002Z</time></trkpt><trkpt lat="44.45079232221005" lon="9.02895739186556"><ele>115.99999999999999</ele><time>2026-04-25T08:42:33.002Z</time></trkpt><trkpt lat="44.450757175831534" lon="9.029054712427936"><ele>116.0</ele><time>2026-04-25T08:42:35.002Z</time></trkpt><trkpt lat="44.450708123803224" lon="9.02915080922875"><ele>116.0</ele><time>2026-04-25T08:42:37.002Z</time></trkpt><trkpt lat="44.450654113253286" lon="9.029234230880514"><ele>116.0</ele><time>2026-04-25T08:42:39.002Z</time></trkpt><trkpt lat="44.45060396923313" lon="9.029315380813124"><ele>115.99999999999999</ele><time>2026-04-25T08:42:41.002Z</time></trkpt><trkpt lat="44.450524343044904" lon="9.029411839586663"><ele>116.0</ele><time>2026-04-25T08:42:43.002Z</time></trkpt><trkpt lat="44.450485795727616" lon="9.029504048987363"><ele>120.33333333333333</ele><time>2026-04-25T08:42:45.002Z</time></trkpt><trkpt lat="44.450422477262094" lon="9.029589247908683"><ele>124.66666666666666</ele><time>2026-04-25T08:42:47.002Z</time></trkpt><trkpt lat="44.450355958514955" lon="9.029690573066453"><ele>129.0</ele><time>2026-04-25T08:42:49.002Z</time></trkpt><trkpt lat="44.45030664268655" lon="9.029772945426416"><ele>133.33333333333334</ele><time>2026-04-25T08:42:51.002Z</time></trkpt><trkpt lat="44.450279802240004" lon="9.029855623994349"><ele>137.66666666666669</ele><time>2026-04-25T08:42:53.003Z</time></trkpt><trkpt lat="44.45024350209629" lon="9.029959073528161"><ele>142.0</ele><time>2026-04-25T08:42:55.003Z</time></trkpt><trkpt lat="44.450231113956136" lon="9.030063441504218"><ele>142.0</ele><time>2026-04-25T08:42:57.003Z</time></trkpt><trkpt lat="44.45020104098571" lon="9.03016344067342"><ele>142.0</ele><time>2026-04-25T08:42:59.003Z</time></trkpt><trkpt lat="44.45018152653689" lon="9.030282760939572"><ele>142.0</ele><time>2026-04-25T08:43:01.003Z</time></trkpt><trkpt lat="44.4501715638067" lon="9.030400049340175"><ele>142.0</ele><time>2026-04-25T08:43:03.003Z</time></trkpt><trkpt lat="44.450163473574335" lon="9.030514249524991"><ele>142.0</ele><time>2026-04-25T08:43:05.003Z</time></trkpt><trkpt lat="44.45016846255286" lon="9.030628066089703"><ele>142.0</ele><time>2026-04-25T08:43:07.003Z</time></trkpt><trkpt lat="44.45018920272827" lon="9.030743473369144"><ele>142.57142857142856</ele><time>2026-04-25T08:43:09.003Z</time></trkpt><trkpt lat="44.450200766533456" lon="9.030846049307454"><ele>143.14285714285714</ele><time>2026-04-25T08:43:11.003Z</time></trkpt><trkpt lat="44.45023342788757" lon="9.030935751065444"><ele>143.71428571428572</ele><time>2026-04-25T08:43:13.003Z</time></trkpt><trkpt lat="44.45027358417606" lon="9.031060089920535"><ele>144.28571428571428</ele><time>2026-04-25T08:43:16.003Z</time></trkpt><trkpt lat="44.450312023612426" lon="9.031134353821367"><ele>144.85714285714286</ele><time>2026-04-25T08:43:18.003Z</time></trkpt><trkpt lat="44.45036187092199" lon="9.031204755672489"><ele>145.42857142857142</ele><time>2026-04-25T08:43:20.003Z</time></trkpt><trkpt lat="44.450403728256546" lon="9.031274250760044"><ele>146.0</ele><time>2026-04-25T08:43:22.003Z</time></trkpt><trkpt lat="44.45047477346105" lon="9.031357363811509"><ele>142.5</ele><time>2026-04-25T08:43:25.003Z</time></trkpt><trkpt lat="44.45054644819424" lon="9.03144312492434"><ele>139.0</ele><time>2026-04-25T08:43:28.001Z</time></trkpt><trkpt lat="44.45060664743011" lon="9.03148984993369"><ele>135.5</ele><time>2026-04-25T08:43:30.001Z</time></trkpt><trkpt lat="44.45068717047241" lon="9.0315582234795"><ele>132.0</ele><time>2026-04-25T08:43:33.001Z</time></trkpt><trkpt lat="44.45075043304872" lon="9.031573184293313"><ele>128.5</ele><time>2026-04-25T08:43:35.001Z</time></trkpt><trkpt lat="44.450805174999445" lon="9.03163151158655"><ele>125.0</ele><time>2026-04-25T08:43:37.001Z</time></trkpt><trkpt lat="44.450880776371946" lon="9.031696815362167"><ele>124.66666666666666</ele><time>2026-04-25T08:43:40.001Z</time></trkpt><trkpt lat="44.45095768591812" lon="9.031751620660659"><ele>124.33333333333333</ele><time>2026-04-25T08:43:43.001Z</time></trkpt><trkpt lat="44.45103774057218" lon="9.031812180365652"><ele>124.0</ele><time>2026-04-25T08:43:46.001Z</time></trkpt><trkpt lat="44.451119514857545" lon="9.031885367275436"><ele>123.66666666666666</ele><time>2026-04-25T08:43:49.001Z</time></trkpt><trkpt lat="44.451183293291365" lon="9.031949234294071"><ele>123.33333333333333</ele><time>2026-04-25T08:43:51.001Z</time></trkpt><trkpt lat="44.4512064999531" lon="9.032055117186646"><ele>123.0</ele><time>2026-04-25T08:43:53.001Z</time></trkpt><trkpt lat="44.45128755006355" lon="9.032045380299545"><ele>123.0</ele><time>2026-04-25T08:43:55.001Z</time></trkpt><trkpt lat="44.4513117030777" lon="9.032162289791538"><ele>123.0</ele><time>2026-04-25T08:44:09.001Z</time></trkpt><trkpt lat="44.45134871369172" lon="9.03226533071628"><ele>123.0</ele><time>2026-04-25T08:44:12.001Z</time></trkpt><trkpt lat="44.45137979041424" lon="9.032392552869547"><ele>123.0</ele><time>2026-04-25T08:44:15.001Z</time></trkpt><trkpt lat="44.4513824342693" lon="9.032497803751435"><ele>123.0</ele><time>2026-04-25T08:44:18.001Z</time></trkpt><trkpt lat="44.45136380976662" lon="9.032620948115145"><ele>123.0</ele><time>2026-04-25T08:44:21.001Z</time></trkpt><trkpt lat="44.45131756464866" lon="9.032725921863907"><ele>123.57142857142858</ele><time>2026-04-25T08:44:24.001Z</time></trkpt><trkpt lat="44.45126967347129" lon="9.032785134335008"><ele>124.14285714285714</ele><time>2026-04-25T08:44:26.001Z</time></trkpt><trkpt lat="44.45119032507761" lon="9.032858762972817"><ele>124.71428571428572</ele><time>2026-04-25T08:44:28.002Z</time></trkpt><trkpt lat="44.45112193944486" lon="9.032887100640629"><ele>125.28571428571429</ele><time>2026-04-25T08:44:31.002Z</time></trkpt><trkpt lat="44.451061274216144" lon="9.032913264582248"><ele>125.85714285714286</ele><time>2026-04-25T08:44:33.002Z</time></trkpt><trkpt lat="44.450983159825384" lon="9.032945421109298"><ele>126.42857142857143</ele><time>2026-04-25T08:44:36.002Z</time></trkpt><trkpt lat="44.450921114267636" lon="9.032965581976185"><ele>127.0</ele><time>2026-04-25T08:44:38.002Z</time></trkpt><trkpt lat="44.45085896826652" lon="9.032980554418298"><ele>127.00000000000001</ele><time>2026-04-25T08:44:40.002Z</time></trkpt><trkpt lat="44.45077163784129" lon="9.03300798413953"><ele>127.0</ele><time>2026-04-25T08:44:43.002Z</time></trkpt><trkpt lat="44.450689045893974" lon="9.033042285211874"><ele>127.0</ele><time>2026-04-25T08:44:46.002Z</time></trkpt><trkpt lat="44.45060839821784" lon="9.033076544530335"><ele>127.0</ele><time>2026-04-25T08:44:49.002Z</time></trkpt><trkpt lat="44.45053901562858" lon="9.033103133980042"><ele>127.00000000000001</ele><time>2026-04-25T08:44:52.002Z</time></trkpt><trkpt lat="44.45050935173706" lon="9.033184139190624"><ele>127.0</ele><time>2026-04-25T08:45:04.002Z</time></trkpt><trkpt lat="44.450573684814294" lon="9.033267183305135"><ele>125.42857142857143</ele><time>2026-04-25T08:45:08.002Z</time></trkpt><trkpt lat="44.45059827405342" lon="9.033374304415812"><ele>123.85714285714286</ele><time>2026-04-25T08:45:11.003Z</time></trkpt><trkpt lat="44.45059360872046" lon="9.033480628661527"><ele>122.28571428571429</ele><time>2026-04-25T08:46:58.002Z</time></trkpt><trkpt lat="44.45060794951798" lon="9.033574316048924"><ele>120.71428571428572</ele><time>2026-04-25T08:47:01.002Z</time></trkpt><trkpt lat="44.450625732015986" lon="9.033673196724752"><ele>119.14285714285714</ele><time>2026-04-25T08:47:04.002Z</time></trkpt><trkpt lat="44.450628062979405" lon="9.033782680162467"><ele>117.57142857142858</ele><time>2026-04-25T08:47:07.002Z</time></trkpt><trkpt lat="44.450639740129965" lon="9.033876553329334"><ele>116.00000000000001</ele><time>2026-04-25T08:47:10.002Z</time></trkpt><trkpt lat="44.45058111905344" lon="9.033943094967723"><ele>116.00000000000001</ele><time>2026-04-25T08:47:13.002Z</time></trkpt><trkpt lat="44.45051785023377" lon="9.033990957432843"><ele>116.0</ele><time>2026-04-25T08:47:16.002Z</time></trkpt><trkpt lat="44.450448100992304" lon="9.034019343863637"><ele>116.00000000000001</ele><time>2026-04-25T08:47:19.002Z</time></trkpt><trkpt lat="44.450383680374166" lon="9.034061464392451"><ele>116.00000000000001</ele><time>2026-04-25T08:47:22.002Z</time></trkpt><trkpt lat="44.45031455126944" lon="9.034096212149176"><ele>116.0</ele><time>2026-04-25T08:47:25.002Z</time></trkpt><trkpt lat="44.45024673263097" lon="9.034155314010015"><ele>116.00000000000001</ele><time>2026-04-25T08:47:28.003Z</time></trkpt><trkpt lat="44.45019440341068" lon="9.034229480038327"><ele>116.00000000000001</ele><time>2026-04-25T08:47:31.003Z</time></trkpt><trkpt lat="44.45013217743125" lon="9.034301429537466"><ele>117.2857142857143</ele><time>2026-04-25T08:47:34.003Z</time></trkpt><trkpt lat="44.45009508457621" lon="9.034377765306562"><ele>118.57142857142858</ele><time>2026-04-25T08:47:37.003Z</time></trkpt><trkpt lat="44.45004610192178" lon="9.034460507797258"><ele>119.85714285714286</ele><time>2026-04-25T08:47:40.001Z</time></trkpt><trkpt lat="44.45000487043216" lon="9.034536568803125"><ele>121.14285714285715</ele><time>2026-04-25T08:47:43.001Z</time></trkpt><trkpt lat="44.44996969237948" lon="9.034618529721872"><ele>122.42857142857144</ele><time>2026-04-25T08:47:46.001Z</time></trkpt><trkpt lat="44.44992901418405" lon="9.034710034710326"><ele>123.71428571428571</ele><time>2026-04-25T08:47:49.001Z</time></trkpt><trkpt lat="44.449903970025474" lon="9.034803625813492"><ele>125.0</ele><time>2026-04-25T08:47:52.001Z</time></trkpt><trkpt lat="44.449877340422255" lon="9.034897812123026"><ele>126.42857142857142</ele><time>2026-04-25T08:47:55.001Z</time></trkpt><trkpt lat="44.44988337809433" lon="9.035006227140231"><ele>127.85714285714286</ele><time>2026-04-25T08:47:58.001Z</time></trkpt><trkpt lat="44.44988670172862" lon="9.03510904454594"><ele>129.28571428571428</ele><time>2026-04-25T08:48:01.001Z</time></trkpt><trkpt lat="44.449898875676446" lon="9.035207197190664"><ele>130.71428571428572</ele><time>2026-04-25T08:48:04.001Z</time></trkpt><trkpt lat="44.449900475837275" lon="9.035309999113453"><ele>132.14285714285714</ele><time>2026-04-25T08:48:07.001Z</time></trkpt><trkpt lat="44.44989337541017" lon="9.035415297746177"><ele>133.57142857142856</ele><time>2026-04-25T08:48:10.001Z</time></trkpt><trkpt lat="44.449878381933274" lon="9.03551347152198"><ele>135.0</ele><time>2026-04-25T08:48:13.001Z</time></trkpt><trkpt lat="44.44986777808941" lon="9.035602660438387"><ele>135.0</ele><time>2026-04-25T08:48:16.001Z</time></trkpt><trkpt lat="44.44985456884497" lon="9.03569163527821"><ele>135.0</ele><time>2026-04-25T08:48:19.001Z</time></trkpt><trkpt lat="44.449844246230654" lon="9.035788798539471"><ele>135.0</ele><time>2026-04-25T08:48:22.001Z</time></trkpt><trkpt lat="44.44982711625749" lon="9.03588018109227"><ele>135.0</ele><time>2026-04-25T08:48:25.001Z</time></trkpt><trkpt lat="44.44981129219327" lon="9.035971314808558"><ele>135.0</ele><time>2026-04-25T08:48:28.001Z</time></trkpt><trkpt lat="44.449800144631816" lon="9.036060246683663"><ele>135.0</ele><time>2026-04-25T08:48:31.001Z</time></trkpt><trkpt lat="44.44982418864297" lon="9.036149568788717"><ele>135.0</ele><time>2026-04-25T08:48:34.001Z</time></trkpt><trkpt lat="44.44988010537177" lon="9.036203989527326"><ele>135.0</ele><time>2026-04-25T08:48:37.001Z</time></trkpt><trkpt lat="44.44995043529062" lon="9.036193133309874"><ele>135.0</ele><time>2026-04-25T08:48:40.001Z</time></trkpt><trkpt lat="44.44999647739118" lon="9.036110172311547"><ele>135.0</ele><time>2026-04-25T08:48:43.002Z</time></trkpt><trkpt lat="44.450006523887474" lon="9.035995708354186"><ele>135.0</ele><time>2026-04-25T08:48:46.002Z</time></trkpt><trkpt lat="44.44998628094312" lon="9.035877809467143"><ele>135.0</ele><time>2026-04-25T08:48:49.002Z</time></trkpt><trkpt lat="44.449987762054654" lon="9.035771375593173"><ele>135.0</ele><time>2026-04-25T08:48:52.002Z</time></trkpt><trkpt lat="44.45002426373688" lon="9.035670253179429"><ele>135.0</ele><time>2026-04-25T08:48:55.002Z</time></trkpt><trkpt lat="44.45004313289096" lon="9.035562661237867"><ele>135.0</ele><time>2026-04-25T08:48:58.002Z</time></trkpt><trkpt lat="44.45005069367982" lon="9.035457813770211"><ele>135.0</ele><time>2026-04-25T08:49:01.002Z</time></trkpt><trkpt lat="44.45005744438655" lon="9.035339180776358"><ele>135.0</ele><time>2026-04-25T08:49:04.002Z</time></trkpt><trkpt lat="44.45006940318331" lon="9.035238096051492"><ele>135.0</ele><time>2026-04-25T08:49:07.002Z</time></trkpt><trkpt lat="44.45007505011609" lon="9.03514790495315"><ele>135.0</ele><time>2026-04-25T08:49:10.002Z</time></trkpt><trkpt lat="44.45007724001778" lon="9.035058067761907"><ele>135.0</ele><time>2026-04-25T08:49:13.002Z</time></trkpt><trkpt lat="44.45008301765579" lon="9.034962318579241"><ele>133.33333333333334</ele><time>2026-04-25T08:49:16.002Z</time></trkpt><trkpt lat="44.450098777648975" lon="9.034864927540662"><ele>131.66666666666666</ele><time>2026-04-25T08:49:19.002Z</time></trkpt><trkpt lat="44.45014019118274" lon="9.034758090263153"><ele>130.0</ele><time>2026-04-25T08:49:23.002Z</time></trkpt><trkpt lat="44.450182005540626" lon="9.034680896859662"><ele>128.33333333333331</ele><time>2026-04-25T08:49:26.002Z</time></trkpt><trkpt lat="44.45023362327381" lon="9.034608137410405"><ele>126.66666666666666</ele><time>2026-04-25T08:49:29.002Z</time></trkpt><trkpt lat="44.450280131112216" lon="9.034527896653005"><ele>125.0</ele><time>2026-04-25T08:49:32.002Z</time></trkpt><trkpt lat="44.45031725739103" lon="9.034435537674717"><ele>125.0</ele><time>2026-04-25T08:49:35.003Z</time></trkpt><trkpt lat="44.45037003672464" lon="9.034374492907357"><ele>125.0</ele><time>2026-04-25T08:49:38.003Z</time></trkpt><trkpt lat="44.45042660500237" lon="9.034332811752057"><ele>125.0</ele><time>2026-04-25T08:49:41.003Z</time></trkpt><trkpt lat="44.45047612211111" lon="9.034269949668074"><ele>125.0</ele><time>2026-04-25T08:49:45Z</time></trkpt><trkpt lat="44.45054868003786" lon="9.034242619175052"><ele>125.0</ele><time>2026-04-25T08:49:49Z</time></trkpt><trkpt lat="44.45063020715927" lon="9.03424622016976"><ele>125.0</ele><time>2026-04-25T08:49:52Z</time></trkpt><trkpt lat="44.450694656730505" lon="9.034279608577526"><ele>125.0</ele><time>2026-04-25T08:49:54Z</time></trkpt><trkpt lat="44.45075949844808" lon="9.034333390398508"><ele>125.99999999999999</ele><time>2026-04-25T08:49:56Z</time></trkpt><trkpt lat="44.45081449627755" lon="9.034423026208179"><ele>127.0</ele><time>2026-04-25T08:49:58Z</time></trkpt><trkpt lat="44.450843979231884" lon="9.034522799908489"><ele>128.0</ele><time>2026-04-25T08:50:00Z</time></trkpt><trkpt lat="44.45087306669223" lon="9.034634322089245"><ele>129.0</ele><time>2026-04-25T08:50:03Z</time></trkpt><trkpt lat="44.450897162492694" lon="9.034545744175471"><ele>130.0</ele><time>2026-04-25T08:50:06Z</time></trkpt><trkpt lat="44.450864068814326" lon="9.034445205401841"><ele>131.0</ele><time>2026-04-25T08:50:09Z</time></trkpt><trkpt lat="44.45090423216266" lon="9.03433698830526"><ele>131.0</ele><time>2026-04-25T08:50:13Z</time></trkpt><trkpt lat="44.451020797980426" lon="9.034325642256839"><ele>131.0</ele><time>2026-04-25T08:50:16Z</time></trkpt><trkpt lat="44.45110700738996" lon="9.034280006255601"><ele>131.0</ele><time>2026-04-25T08:50:19Z</time></trkpt><trkpt lat="44.4511695625298" lon="9.034261651473063"><ele>131.0</ele><time>2026-04-25T08:50:21Z</time></trkpt><trkpt lat="44.4512474887105" lon="9.034236589505532"><ele>131.0</ele><time>2026-04-25T08:50:24.001Z</time></trkpt><trkpt lat="44.45131373256035" lon="9.03421162062515"><ele>131.0</ele><time>2026-04-25T08:50:28.001Z</time></trkpt><trkpt lat="44.45138445306864" lon="9.034199182244844"><ele>131.66666666666666</ele><time>2026-04-25T08:50:51.001Z</time></trkpt><trkpt lat="44.451449442808475" lon="9.034177811968313"><ele>132.33333333333331</ele><time>2026-04-25T08:50:54.001Z</time></trkpt><trkpt lat="44.45151873144009" lon="9.034141667791733"><ele>133.0</ele><time>2026-04-25T08:50:57.001Z</time></trkpt><trkpt lat="44.45159177847191" lon="9.034112592963233"><ele>133.66666666666666</ele><time>2026-04-25T08:51:00.001Z</time></trkpt><trkpt lat="44.45166920310856" lon="9.0340873818971"><ele>134.33333333333334</ele><time>2026-04-25T08:51:03.001Z</time></trkpt><trkpt lat="44.45174975522382" lon="9.034059661301029"><ele>135.0</ele><time>2026-04-25T08:51:06.001Z</time></trkpt><trkpt lat="44.45181902546498" lon="9.034029793204978"><ele>132.66666666666666</ele><time>2026-04-25T08:51:09.001Z</time></trkpt><trkpt lat="44.45187149997739" lon="9.033972240204402"><ele>130.33333333333334</ele><time>2026-04-25T08:51:12.001Z</time></trkpt><trkpt lat="44.45189630475364" lon="9.03386158383211"><ele>128.0</ele><time>2026-04-25T08:51:15.001Z</time></trkpt><trkpt lat="44.451939758658646" lon="9.03376488250023"><ele>125.66666666666667</ele><time>2026-04-25T08:51:18.002Z</time></trkpt><trkpt lat="44.45196653438836" lon="9.033683579975015"><ele>123.33333333333334</ele><time>2026-04-25T08:51:20.002Z</time></trkpt><trkpt lat="44.45200394717489" lon="9.03356803627996"><ele>121.0</ele><time>2026-04-25T08:51:23.002Z</time></trkpt><trkpt lat="44.45204971974366" lon="9.033488596073514"><ele>121.00000000000001</ele><time>2026-04-25T08:51:26.002Z</time></trkpt><trkpt lat="44.45209667419907" lon="9.033429443187387"><ele>121.0</ele><time>2026-04-25T08:51:29.002Z</time></trkpt><trkpt lat="44.452134301937996" lon="9.033355372870071"><ele>121.0</ele><time>2026-04-25T08:51:32.002Z</time></trkpt><trkpt lat="44.45219321408372" lon="9.033261243327923"><ele>121.0</ele><time>2026-04-25T08:51:35.002Z</time></trkpt><trkpt lat="44.45221644360922" lon="9.03317165655776"><ele>121.00000000000001</ele><time>2026-04-25T08:51:37.002Z</time></trkpt><trkpt lat="44.452265926886156" lon="9.033053896196911"><ele>121.0</ele><time>2026-04-25T08:51:40.002Z</time></trkpt><trkpt lat="44.452308460550675" lon="9.032960852873654"><ele>128.33333333333334</ele><time>2026-04-25T08:51:43.002Z</time></trkpt><trkpt lat="44.45232273036119" lon="9.032852224637177"><ele>135.66666666666669</ele><time>2026-04-25T08:51:47.002Z</time></trkpt><trkpt lat="44.45233864857141" lon="9.032761453398889"><ele>143.0</ele><time>2026-04-25T08:51:50.002Z</time></trkpt><trkpt lat="44.45237581030912" lon="9.032671599113145"><ele>150.33333333333334</ele><time>2026-04-25T08:51:52.999Z</time></trkpt><trkpt lat="44.45236533503974" lon="9.03254572686582"><ele>157.66666666666666</ele><time>2026-04-25T08:51:56.999Z</time></trkpt><trkpt lat="44.45240256704798" lon="9.032425701624806"><ele>165.0</ele><time>2026-04-25T08:52:00.999Z</time></trkpt><trkpt lat="44.45243124786183" lon="9.032337093956505"><ele>165.5</ele><time>2026-04-25T08:52:03.999Z</time></trkpt><trkpt lat="44.452380923920764" lon="9.032241609820508"><ele>166.0</ele><time>2026-04-25T08:52:08Z</time></trkpt><trkpt lat="44.45231851898304" lon="9.032163680424391"><ele>166.5</ele><time>2026-04-25T08:52:11Z</time></trkpt><trkpt lat="44.45226913178731" lon="9.032060268370277"><ele>167.0</ele><time>2026-04-25T08:52:15Z</time></trkpt><trkpt lat="44.452245403793036" lon="9.031978366745793"><ele>167.5</ele><time>2026-04-25T08:52:18Z</time></trkpt><trkpt lat="44.452203453001" lon="9.031889367599161"><ele>168.0</ele><time>2026-04-25T08:52:21Z</time></trkpt><trkpt lat="44.45219994210023" lon="9.031798451302334"><ele>168.0</ele><time>2026-04-25T08:52:24Z</time></trkpt><trkpt lat="44.45214400481325" lon="9.03173268058602"><ele>168.0</ele><time>2026-04-25T08:52:27Z</time></trkpt><trkpt lat="44.452091804822544" lon="9.031651568845847"><ele>168.0</ele><time>2026-04-25T08:52:44.001Z</time></trkpt><trkpt lat="44.452067288628264" lon="9.031566478780114"><ele>168.0</ele><time>2026-04-25T08:52:47.001Z</time></trkpt><trkpt lat="44.45202178591272" lon="9.031474192218663"><ele>168.0</ele><time>2026-04-25T08:52:55.001Z</time></trkpt><trkpt lat="44.45197943723628" lon="9.031379457570845"><ele>168.0</ele><time>2026-04-25T08:52:58.001Z</time></trkpt><trkpt lat="44.451924017187174" lon="9.031310095960956"><ele>165.33333333333334</ele><time>2026-04-25T08:53:01.001Z</time></trkpt><trkpt lat="44.45184450142026" lon="9.031256060586037"><ele>162.66666666666666</ele><time>2026-04-25T08:53:04.001Z</time></trkpt><trkpt lat="44.45181368309999" lon="9.031176634114287"><ele>160.0</ele><time>2026-04-25T08:53:07.001Z</time></trkpt><trkpt lat="44.45173683301044" lon="9.0311116568359"><ele>157.33333333333331</ele><time>2026-04-25T08:53:10.001Z</time></trkpt><trkpt lat="44.451680621443344" lon="9.031053617334466"><ele>154.66666666666666</ele><time>2026-04-25T08:53:13.001Z</time></trkpt><trkpt lat="44.451633720596064" lon="9.03098873160307"><ele>152.0</ele><time>2026-04-25T08:53:16.001Z</time></trkpt><trkpt lat="44.451569636267166" lon="9.030918428898316"><ele>152.0</ele><time>2026-04-25T08:53:19.001Z</time></trkpt><trkpt lat="44.45149955460387" lon="9.030857033734627"><ele>152.0</ele><time>2026-04-25T08:53:23.001Z</time></trkpt><trkpt lat="44.45141322822569" lon="9.030808021404557"><ele>152.0</ele><time>2026-04-25T08:53:26.001Z</time></trkpt><trkpt lat="44.451339665249876" lon="9.030781705070524"><ele>152.0</ele><time>2026-04-25T08:53:29.002Z</time></trkpt><trkpt lat="44.45126895362337" lon="9.030763304439452"><ele>152.0</ele><time>2026-04-25T08:53:31.002Z</time></trkpt><trkpt lat="44.45118387781918" lon="9.03073210507225"><ele>152.0</ele><time>2026-04-25T08:53:34.002Z</time></trkpt><trkpt lat="44.45111421771367" lon="9.030699832109246"><ele>146.33333333333331</ele><time>2026-04-25T08:53:37.002Z</time></trkpt><trkpt lat="44.4510747360902" lon="9.030610873491717"><ele>140.66666666666666</ele><time>2026-04-25T08:53:40.002Z</time></trkpt><trkpt lat="44.45107844095695" lon="9.030502274578552"><ele>135.0</ele><time>2026-04-25T08:53:43.002Z</time></trkpt><trkpt lat="44.451102050054374" lon="9.030415707212704"><ele>129.33333333333334</ele><time>2026-04-25T08:53:46.002Z</time></trkpt><trkpt lat="44.45113934231174" lon="9.03034322666371"><ele>123.66666666666667</ele><time>2026-04-25T08:53:53.002Z</time></trkpt><trkpt lat="44.451189651350894" lon="9.03025517451236"><ele>118.0</ele><time>2026-04-25T08:53:56.002Z</time></trkpt><trkpt lat="44.451241392903555" lon="9.030145552080604"><ele>118.00000000000001</ele><time>2026-04-25T08:53:58.999Z</time></trkpt><trkpt lat="44.451281349704146" lon="9.030074976320027"><ele>118.0</ele><time>2026-04-25T08:54:00.999Z</time></trkpt><trkpt lat="44.45134362964959" lon="9.029983247376894"><ele>118.0</ele><time>2026-04-25T08:54:03.999Z</time></trkpt><trkpt lat="44.45141688543995" lon="9.029929486479254"><ele>118.0</ele><time>2026-04-25T08:54:06.999Z</time></trkpt><trkpt lat="44.451481003146185" lon="9.029857354141633"><ele>118.00000000000001</ele><time>2026-04-25T08:54:09.999Z</time></trkpt><trkpt lat="44.451529467670085" lon="9.029746933571136"><ele>118.0</ele><time>2026-04-25T08:54:12.999Z</time></trkpt><trkpt lat="44.45160500006951" lon="9.02971779613964"><ele>122.00000000000001</ele><time>2026-04-25T08:54:14.999Z</time></trkpt><trkpt lat="44.45164175681584" lon="9.029614249502407"><ele>126.0</ele><time>2026-04-25T08:54:18Z</time></trkpt><trkpt lat="44.45167330251772" lon="9.029505812745313"><ele>130.0</ele><time>2026-04-25T08:54:21Z</time></trkpt><trkpt lat="44.45171873584471" lon="9.029411668648274"><ele>134.0</ele><time>2026-04-25T08:54:24Z</time></trkpt><trkpt lat="44.45174164363515" lon="9.02932348568191"><ele>138.0</ele><time>2026-04-25T08:54:26Z</time></trkpt><trkpt lat="44.45179116813324" lon="9.02922793300626"><ele>142.0</ele><time>2026-04-25T08:54:29Z</time></trkpt><trkpt lat="44.45176193988809" lon="9.029138018156768"><ele>143.16666666666669</ele><time>2026-04-25T08:54:31Z</time></trkpt><trkpt lat="44.451747178720346" lon="9.02902535132661"><ele>144.33333333333334</ele><time>2026-04-25T08:54:34Z</time></trkpt><trkpt lat="44.4517395121049" lon="9.028891283346633"><ele>145.5</ele><time>2026-04-25T08:54:37Z</time></trkpt><trkpt lat="44.45175734416402" lon="9.028805324398093"><ele>146.66666666666666</ele><time>2026-04-25T08:54:39Z</time></trkpt><trkpt lat="44.45175733327677" lon="9.028687013842692"><ele>147.83333333333331</ele><time>2026-04-25T08:54:42Z</time></trkpt><trkpt lat="44.45176071556078" lon="9.028592818145881"><ele>149.0</ele><time>2026-04-25T08:54:45Z</time></trkpt><trkpt lat="44.45177190333572" lon="9.028492648334696"><ele>149.0</ele><time>2026-04-25T08:54:52.001Z</time></trkpt><trkpt lat="44.45180714223503" lon="9.028392797799983"><ele>149.0</ele><time>2026-04-25T08:55:05.001Z</time></trkpt><trkpt lat="44.451819346025935" lon="9.028292691422582"><ele>149.0</ele><time>2026-04-25T08:55:09.001Z</time></trkpt><trkpt lat="44.45182266381532" lon="9.028182313355764"><ele>149.0</ele><time>2026-04-25T08:55:13.001Z</time></trkpt><trkpt lat="44.45176201570472" lon="9.02811146259589"><ele>149.0</ele><time>2026-04-25T08:55:16.001Z</time></trkpt><trkpt lat="44.451684634681186" lon="9.02808526232035"><ele>149.0</ele><time>2026-04-25T08:55:20.001Z</time></trkpt><trkpt lat="44.45160766528358" lon="9.028046185487327"><ele>145.83333333333331</ele><time>2026-04-25T08:55:24.001Z</time></trkpt><trkpt lat="44.45154582153314" lon="9.027978773131077"><ele>142.66666666666666</ele><time>2026-04-25T08:55:27.002Z</time></trkpt><trkpt lat="44.45151823553892" lon="9.02786951023018"><ele>139.5</ele><time>2026-04-25T08:55:30.002Z</time></trkpt><trkpt lat="44.45146321942754" lon="9.027787057735704"><ele>136.33333333333334</ele><time>2026-04-25T08:55:33.002Z</time></trkpt><trkpt lat="44.45137933433808" lon="9.027730486892168"><ele>133.16666666666669</ele><time>2026-04-25T08:55:36.002Z</time></trkpt><trkpt lat="44.45132070976077" lon="9.027643861522524"><ele>130.0</ele><time>2026-04-25T08:55:39.002Z</time></trkpt><trkpt lat="44.45126959041038" lon="9.027537559009573"><ele>130.66666666666669</ele><time>2026-04-25T08:55:42.002Z</time></trkpt><trkpt lat="44.45119075110913" lon="9.027466946990927"><ele>131.33333333333334</ele><time>2026-04-25T08:55:45.002Z</time></trkpt><trkpt lat="44.451151972479146" lon="9.027376699877205"><ele>132.0</ele><time>2026-04-25T08:55:48.002Z</time></trkpt><trkpt lat="44.45107966048598" lon="9.027399095240268"><ele>132.66666666666666</ele><time>2026-04-25T08:55:50.002Z</time></trkpt><trkpt lat="44.45102153976977" lon="9.02735143062239"><ele>133.33333333333331</ele><time>2026-04-25T08:55:52.002Z</time></trkpt><trkpt lat="44.450940905349306" lon="9.027307859146266"><ele>134.0</ele><time>2026-04-25T08:55:55.002Z</time></trkpt><trkpt lat="44.45085748619865" lon="9.02725022235049"><ele>134.0</ele><time>2026-04-25T08:55:58.002Z</time></trkpt><trkpt lat="44.45079050878056" lon="9.027199166680678"><ele>134.0</ele><time>2026-04-25T08:56:01.002Z</time></trkpt><trkpt lat="44.45070206604681" lon="9.027192152323833"><ele>134.0</ele><time>2026-04-25T08:56:04.999Z</time></trkpt><trkpt lat="44.450663367972574" lon="9.027093118650935"><ele>134.0</ele><time>2026-04-25T08:56:07.999Z</time></trkpt><trkpt lat="44.450668584935634" lon="9.026994494036215"><ele>134.0</ele><time>2026-04-25T08:56:14.999Z</time></trkpt><trkpt lat="44.45068572446342" lon="9.0269013578393"><ele>134.0</ele><time>2026-04-25T08:56:32Z</time></trkpt><trkpt lat="44.45074366863853" lon="9.026820372913583"><ele>134.0</ele><time>2026-04-25T08:56:45Z</time></trkpt><trkpt lat="44.45080608735545" lon="9.02676560413242"><ele>134.0</ele><time>2026-04-25T08:56:50Z</time></trkpt><trkpt lat="44.450871890620235" lon="9.026729622195832"><ele>134.0</ele><time>2026-04-25T08:56:53.001Z</time></trkpt><trkpt lat="44.450928800517794" lon="9.026682939664195"><ele>134.0</ele><time>2026-04-25T08:56:57.001Z</time></trkpt><trkpt lat="44.45098094446596" lon="9.026622331737485"><ele>134.0</ele><time>2026-04-25T08:57:03.001Z</time></trkpt><trkpt lat="44.45101136770002" lon="9.026544984594244"><ele>134.0</ele><time>2026-04-25T08:57:12.001Z</time></trkpt><trkpt lat="44.45106134926758" lon="9.026489943652159"><ele>134.0</ele><time>2026-04-25T08:57:19.001Z</time></trkpt><trkpt lat="44.4511087089465" lon="9.02642674960046"><ele>132.0</ele><time>2026-04-25T08:57:26.001Z</time></trkpt><trkpt lat="44.45116463338257" lon="9.026385835253267"><ele>130.0</ele><time>2026-04-25T08:58:31Z</time></trkpt><trkpt lat="44.451204979667686" lon="9.026308283718922"><ele>128.0</ele><time>2026-04-25T08:58:39Z</time></trkpt><trkpt lat="44.45124371661196" lon="9.026229567290526"><ele>126.0</ele><time>2026-04-25T08:58:44Z</time></trkpt><trkpt lat="44.45127227783357" lon="9.026145718297371"><ele>124.0</ele><time>2026-04-25T08:58:49Z</time></trkpt><trkpt lat="44.451299905506076" lon="9.026065319811392"><ele>122.0</ele><time>2026-04-25T08:58:54.001Z</time></trkpt><trkpt lat="44.45131055239141" lon="9.025976112805047"><ele>120.0</ele><time>2026-04-25T08:58:58.001Z</time></trkpt><trkpt lat="44.4513209446895" lon="9.025881057662595"><ele>126.57142857142858</ele><time>2026-04-25T08:59:03.001Z</time></trkpt><trkpt lat="44.45134907734397" lon="9.025769981141453"><ele>133.14285714285714</ele><time>2026-04-25T08:59:08.001Z</time></trkpt><trkpt lat="44.451353819226874" lon="9.025680983600287"><ele>139.71428571428572</ele><time>2026-04-25T08:59:11.001Z</time></trkpt><trkpt lat="44.45136936980663" lon="9.02559385717539"><ele>146.28571428571428</ele><time>2026-04-25T08:59:14.001Z</time></trkpt><trkpt lat="44.45138783340597" lon="9.025504158140855"><ele>152.85714285714286</ele><time>2026-04-25T08:59:18.001Z</time></trkpt><trkpt lat="44.45138026912845" lon="9.025411499493185"><ele>159.42857142857142</ele><time>2026-04-25T08:59:23.001Z</time></trkpt><trkpt lat="44.45136481732063" lon="9.02531417587592"><ele>166.0</ele><time>2026-04-25T08:59:30.002Z</time></trkpt><trkpt lat="44.451338641389796" lon="9.02522976910225"><ele>166.0</ele><time>2026-04-25T08:59:36.002Z</time></trkpt><trkpt lat="44.45132333091436" lon="9.025137825469123"><ele>166.0</ele><time>2026-04-25T09:00:04.003Z</time></trkpt><trkpt lat="44.45128892278931" lon="9.025042632123432"><ele>166.0</ele><time>2026-04-25T09:00:08.003Z</time></trkpt><trkpt lat="44.451254192099526" lon="9.024942537601676"><ele>166.0</ele><time>2026-04-25T09:00:12.003Z</time></trkpt><trkpt lat="44.45120196272772" lon="9.024876622828234"><ele>166.0</ele><time>2026-04-25T09:00:16.999Z</time></trkpt><trkpt lat="44.45116972309999" lon="9.024792688513712"><ele>166.0</ele><time>2026-04-25T09:00:21.999Z</time></trkpt><trkpt lat="44.45113969762141" lon="9.024711471347729"><ele>166.0</ele><time>2026-04-25T09:00:32Z</time></trkpt><trkpt lat="44.45111646569376" lon="9.024585792807743"><ele>159.85714285714286</ele><time>2026-04-25T09:00:53.001Z</time></trkpt><trkpt lat="44.451081869056935" lon="9.024497926905163"><ele>153.71428571428572</ele><time>2026-04-25T09:01:01.001Z</time></trkpt><trkpt lat="44.451073302348455" lon="9.024400237392681"><ele>147.57142857142858</ele><time>2026-04-25T09:01:13.001Z</time></trkpt><trkpt lat="44.45105495224726" lon="9.02430945536005"><ele>141.42857142857144</ele><time>2026-04-25T09:01:22.001Z</time></trkpt><trkpt lat="44.451121421615554" lon="9.024283300407905"><ele>135.28571428571428</ele><time>2026-04-25T09:04:49Z</time></trkpt><trkpt lat="44.45117016720136" lon="9.024221601969353"><ele>129.14285714285717</ele><time>2026-04-25T09:04:55.001Z</time></trkpt><trkpt lat="44.45122027501879" lon="9.024153399912368"><ele>123.00000000000001</ele><time>2026-04-25T09:04:59.001Z</time></trkpt><trkpt lat="44.451270301970965" lon="9.024095529702095"><ele>122.83333333333333</ele><time>2026-04-25T09:05:01.001Z</time></trkpt><trkpt lat="44.451330597486404" lon="9.024029856776416"><ele>122.66666666666666</ele><time>2026-04-25T09:05:04.001Z</time></trkpt><trkpt lat="44.45129795250519" lon="9.023922513252002"><ele>122.5</ele><time>2026-04-25T09:05:09.001Z</time></trkpt><trkpt lat="44.4512323194871" lon="9.023873462402955"><ele>122.33333333333333</ele><time>2026-04-25T09:05:12.001Z</time></trkpt><trkpt lat="44.45124425935659" lon="9.023757409658753"><ele>122.16666666666666</ele><time>2026-04-25T09:05:15.001Z</time></trkpt><trkpt lat="44.4512619553799" lon="9.023650602898307"><ele>122.0</ele><time>2026-04-25T09:05:18.001Z</time></trkpt><trkpt lat="44.451274992385706" lon="9.023554293069438"><ele>121.99999999999999</ele><time>2026-04-25T09:05:20.001Z</time></trkpt><trkpt lat="44.45128751192889" lon="9.023463225746216"><ele>122.0</ele><time>2026-04-25T09:05:23.001Z</time></trkpt><trkpt lat="44.451261533276856" lon="9.023366870708852"><ele>122.0</ele><time>2026-04-25T09:05:26.001Z</time></trkpt><trkpt lat="44.4512114958636" lon="9.02328038466586"><ele>122.0</ele><time>2026-04-25T09:05:29.001Z</time></trkpt><trkpt lat="44.451167038362215" lon="9.023171930942334"><ele>121.99999999999999</ele><time>2026-04-25T09:05:32.001Z</time></trkpt><trkpt lat="44.45122213755913" lon="9.023107380561019"><ele>122.0</ele><time>2026-04-25T09:05:35.001Z</time></trkpt><trkpt lat="44.45127754080014" lon="9.023040745972951"><ele>122.33333333333333</ele><time>2026-04-25T09:05:39.002Z</time></trkpt><trkpt lat="44.451330169700526" lon="9.022979746460159"><ele>122.66666666666666</ele><time>2026-04-25T09:05:42.002Z</time></trkpt><trkpt lat="44.45138131372293" lon="9.022904324908012"><ele>123.0</ele><time>2026-04-25T09:05:45.002Z</time></trkpt><trkpt lat="44.45145520805745" lon="9.022886638565636"><ele>123.33333333333334</ele><time>2026-04-25T09:05:49.002Z</time></trkpt><trkpt lat="44.45152867228437" lon="9.022929929927741"><ele>123.66666666666667</ele><time>2026-04-25T09:05:51.002Z</time></trkpt><trkpt lat="44.45160779413765" lon="9.022977373049102"><ele>124.0</ele><time>2026-04-25T09:05:54.002Z</time></trkpt><trkpt lat="44.451684586017066" lon="9.023014883169013"><ele>124.0</ele><time>2026-04-25T09:05:58.002Z</time></trkpt><trkpt lat="44.45174950740125" lon="9.023041670143494"><ele>124.00000000000001</ele><time>2026-04-25T09:06:01.002Z</time></trkpt><trkpt lat="44.45181231145319" lon="9.023031095296957"><ele>124.0</ele><time>2026-04-25T09:06:05.002Z</time></trkpt><trkpt lat="44.45185683186336" lon="9.022963816999868"><ele>124.0</ele><time>2026-04-25T09:06:08.002Z</time></trkpt><trkpt lat="44.45192536153686" lon="9.022922598830446"><ele>124.00000000000001</ele><time>2026-04-25T09:06:12.002Z</time></trkpt><trkpt lat="44.45197174681758" lon="9.022861083829776"><ele>124.0</ele><time>2026-04-25T09:06:16.003Z</time></trkpt><trkpt lat="44.45203466209414" lon="9.02285122826597"><ele>124.0</ele><time>2026-04-25T09:06:21.003Z</time></trkpt><trkpt lat="44.45210342822073" lon="9.022894383498253"><ele>127.16666666666667</ele><time>2026-04-25T09:06:27.003Z</time></trkpt><trkpt lat="44.45218331753899" lon="9.022901280138662"><ele>130.33333333333334</ele><time>2026-04-25T09:06:32.003Z</time></trkpt><trkpt lat="44.452243522439375" lon="9.022858867495703"><ele>133.5</ele><time>2026-04-25T09:06:36Z</time></trkpt><trkpt lat="44.45228462022737" lon="9.022782461030442"><ele>136.66666666666666</ele><time>2026-04-25T09:06:40Z</time></trkpt><trkpt lat="44.45232569540464" lon="9.022685868015882"><ele>139.83333333333331</ele><time>2026-04-25T09:06:44Z</time></trkpt><trkpt lat="44.45236346907369" lon="9.022593449052792"><ele>143.0</ele><time>2026-04-25T09:06:48Z</time></trkpt><trkpt lat="44.452402114496344" lon="9.022490205748088"><ele>144.28571428571428</ele><time>2026-04-25T09:06:52Z</time></trkpt><trkpt lat="44.452418859481604" lon="9.02238028774827"><ele>145.57142857142856</ele><time>2026-04-25T09:06:56Z</time></trkpt><trkpt lat="44.45242542276782" lon="9.022268257348815"><ele>146.85714285714283</ele><time>2026-04-25T09:07:00Z</time></trkpt><trkpt lat="44.45242534434645" lon="9.022175271405509"><ele>148.14285714285714</ele><time>2026-04-25T09:07:03Z</time></trkpt><trkpt lat="44.452417183966496" lon="9.02208632896058"><ele>149.42857142857144</ele><time>2026-04-25T09:07:06Z</time></trkpt><trkpt lat="44.45240105649094" lon="9.021993301925134"><ele>150.7142857142857</ele><time>2026-04-25T09:07:09.001Z</time></trkpt><trkpt lat="44.4523725759963" lon="9.021885277963719"><ele>152.0</ele><time>2026-04-25T09:07:13.001Z</time></trkpt><trkpt lat="44.45234495423841" lon="9.021779796061958"><ele>152.0</ele><time>2026-04-25T09:07:17.001Z</time></trkpt><trkpt lat="44.452313665878364" lon="9.021674114509805"><ele>152.0</ele><time>2026-04-25T09:07:21.001Z</time></trkpt><trkpt lat="44.452280683347176" lon="9.021566809544606"><ele>152.0</ele><time>2026-04-25T09:07:25.001Z</time></trkpt><trkpt lat="44.45223690628322" lon="9.021476693967918"><ele>152.0</ele><time>2026-04-25T09:07:29.001Z</time></trkpt><trkpt lat="44.452194382532625" lon="9.021385575444537"><ele>152.0</ele><time>2026-04-25T09:07:33.001Z</time></trkpt><trkpt lat="44.45216206100431" lon="9.021288350832009"><ele>152.0</ele><time>2026-04-25T09:07:37.001Z</time></trkpt><trkpt lat="44.45211198658703" lon="9.021224800833368"><ele>148.7142857142857</ele><time>2026-04-25T09:07:41.001Z</time></trkpt><trkpt lat="44.452074429034134" lon="9.021148752681201"><ele>145.42857142857144</ele><time>2026-04-25T09:07:44.002Z</time></trkpt><trkpt lat="44.45203616523743" lon="9.021070052234933"><ele>142.14285714285714</ele><time>2026-04-25T09:07:47.002Z</time></trkpt><trkpt lat="44.452019812698666" lon="9.02097358766161"><ele>138.85714285714283</ele><time>2026-04-25T09:07:50.002Z</time></trkpt><trkpt lat="44.4520108798735" lon="9.02087508338427"><ele>135.57142857142856</ele><time>2026-04-25T09:07:53.002Z</time></trkpt><trkpt lat="44.45200934927615" lon="9.020775993327812"><ele>132.28571428571428</ele><time>2026-04-25T09:07:56.002Z</time></trkpt><trkpt lat="44.45200251865014" lon="9.02068599282318"><ele>129.0</ele><time>2026-04-25T09:07:59.002Z</time></trkpt><trkpt lat="44.451998533401536" lon="9.0205852793122"><ele>129.0</ele><time>2026-04-25T09:08:02.002Z</time></trkpt><trkpt lat="44.45200150520685" lon="9.02048568062236"><ele>129.0</ele><time>2026-04-25T09:08:05.002Z</time></trkpt><trkpt lat="44.45199418318314" lon="9.020368253226984"><ele>129.0</ele><time>2026-04-25T09:08:08.002Z</time></trkpt><trkpt lat="44.45200249777841" lon="9.020272154460757"><ele>129.0</ele><time>2026-04-25T09:08:11.002Z</time></trkpt><trkpt lat="44.45200086255393" lon="9.020171008984065"><ele>129.0</ele><time>2026-04-25T09:08:14.002Z</time></trkpt><trkpt lat="44.45200535617806" lon="9.02006398667194"><ele>129.0</ele><time>2026-04-25T09:08:17.002Z</time></trkpt><trkpt lat="44.45200860828758" lon="9.019952592410753"><ele>128.42857142857142</ele><time>2026-04-25T09:08:20.003Z</time></trkpt><trkpt lat="44.45201327170589" lon="9.019857311390512"><ele>127.85714285714286</ele><time>2026-04-25T09:08:23.003Z</time></trkpt><trkpt lat="44.45203010207062" lon="9.019758752809619"><ele>127.28571428571428</ele><time>2026-04-25T09:08:26.003Z</time></trkpt><trkpt lat="44.452051708830105" lon="9.0196610318762"><ele>126.71428571428571</ele><time>2026-04-25T09:08:29.003Z</time></trkpt><trkpt lat="44.4520742811909" lon="9.01957414971871"><ele>126.14285714285714</ele><time>2026-04-25T09:08:32.003Z</time></trkpt><trkpt lat="44.45211045161967" lon="9.019482618299714"><ele>125.57142857142857</ele><time>2026-04-25T09:08:35.003Z</time></trkpt><trkpt lat="44.45214322975115" lon="9.019401088088383"><ele>125.0</ele><time>2026-04-25T09:08:38.003Z</time></trkpt><trkpt lat="44.45216931383998" lon="9.019313958239131"><ele>129.0</ele><time>2026-04-25T09:08:41Z</time></trkpt><trkpt lat="44.45220364842641" lon="9.01921964614885"><ele>133.0</ele><time>2026-04-25T09:08:44Z</time></trkpt><trkpt lat="44.452247254126654" lon="9.019124270180768"><ele>137.0</ele><time>2026-04-25T09:08:47Z</time></trkpt><trkpt lat="44.452281082177414" lon="9.019017936440523"><ele>141.0</ele><time>2026-04-25T09:08:50Z</time></trkpt><trkpt lat="44.45231147482006" lon="9.018915130094111"><ele>145.0</ele><time>2026-04-25T09:08:53Z</time></trkpt><trkpt lat="44.45234380425149" lon="9.018828938817416"><ele>149.0</ele><time>2026-04-25T09:08:56Z</time></trkpt><trkpt lat="44.452385078693155" lon="9.018760563703886"><ele>149.0</ele><time>2026-04-25T09:08:59Z</time></trkpt><trkpt lat="44.452421607877106" lon="9.018678019383684"><ele>149.0</ele><time>2026-04-25T09:09:02Z</time></trkpt><trkpt lat="44.45246624591461" lon="9.018593925383463"><ele>149.0</ele><time>2026-04-25T09:09:06Z</time></trkpt><trkpt lat="44.45242937747251" lon="9.018477988230543"><ele>149.0</ele><time>2026-04-25T09:09:09Z</time></trkpt><trkpt lat="44.452378263351925" lon="9.018380095346318"><ele>149.0</ele><time>2026-04-25T09:09:11Z</time></trkpt><trkpt lat="44.452352767248236" lon="9.018256146447408"><ele>149.0</ele><time>2026-04-25T09:09:13Z</time></trkpt><trkpt lat="44.45234246058313" lon="9.018137718184375"><ele>149.33333333333331</ele><time>2026-04-25T09:09:15Z</time></trkpt><trkpt lat="44.4523349520989" lon="9.01801715723349"><ele>149.66666666666666</ele><time>2026-04-25T09:09:17.001Z</time></trkpt><trkpt lat="44.45232735869604" lon="9.017895833335098"><ele>150.0</ele><time>2026-04-25T09:09:19.001Z</time></trkpt><trkpt lat="44.45232782764595" lon="9.017767078282075"><ele>150.33333333333334</ele><time>2026-04-25T09:09:21.001Z</time></trkpt><trkpt lat="44.452324423349886" lon="9.017653147684623"><ele>150.66666666666669</ele><time>2026-04-25T09:09:23.001Z</time></trkpt><trkpt lat="44.45232207969599" lon="9.017529159171492"><ele>151.0</ele><time>2026-04-25T09:09:25.001Z</time></trkpt><trkpt lat="44.452318978929306" lon="9.017395295222856"><ele>151.4</ele><time>2026-04-25T09:09:27.001Z</time></trkpt><trkpt lat="44.452306500703045" lon="9.017249304200629"><ele>151.8</ele><time>2026-04-25T09:09:29.001Z</time></trkpt><trkpt lat="44.45226335632019" lon="9.017102444888197"><ele>152.20000000000002</ele><time>2026-04-25T09:09:31.001Z</time></trkpt><trkpt lat="44.452185739622905" lon="9.016975645562324"><ele>152.6</ele><time>2026-04-25T09:09:33.001Z</time></trkpt><trkpt lat="44.45210949961861" lon="9.016862367070651"><ele>153.0</ele><time>2026-04-25T09:09:35.001Z</time></trkpt><trkpt lat="44.452059818174014" lon="9.016730092426364"><ele>150.0</ele><time>2026-04-25T09:09:38.001Z</time></trkpt><trkpt lat="44.451986726281206" lon="9.016677166811593"><ele>147.0</ele><time>2026-04-25T09:09:39.001Z</time></trkpt><trkpt lat="44.45193426502923" lon="9.016624982469397"><ele>144.0</ele><time>2026-04-25T09:09:40.001Z</time></trkpt><trkpt lat="44.451875122958384" lon="9.016521454021465"><ele>141.0</ele><time>2026-04-25T09:09:42.001Z</time></trkpt><trkpt lat="44.45183656098108" lon="9.016397532425525"><ele>138.0</ele><time>2026-04-25T09:09:44.001Z</time></trkpt><trkpt lat="44.45182926408362" lon="9.016282437641836"><ele>135.0</ele><time>2026-04-25T09:09:46.001Z</time></trkpt><trkpt lat="44.45187023825228" lon="9.016214757144315"><ele>135.0</ele><time>2026-04-25T09:09:48.001Z</time></trkpt><trkpt lat="44.45192209575039" lon="9.016120502119486"><ele>135.0</ele><time>2026-04-25T09:09:51.002Z</time></trkpt><trkpt lat="44.45196896166842" lon="9.016029840236431"><ele>135.0</ele><time>2026-04-25T09:09:54.002Z</time></trkpt><trkpt lat="44.45200605342114" lon="9.015932150948187"><ele>135.0</ele><time>2026-04-25T09:09:58.002Z</time></trkpt><trkpt lat="44.45202293472668" lon="9.015832384851699"><ele>135.0</ele><time>2026-04-25T09:10:01.002Z</time></trkpt><trkpt lat="44.45202318736324" lon="9.015738868665352"><ele>135.0</ele><time>2026-04-25T09:10:04.002Z</time></trkpt><trkpt lat="44.452042360464105" lon="9.015630873189272"><ele>135.5</ele><time>2026-04-25T09:10:07.002Z</time></trkpt><trkpt lat="44.4520192871715" lon="9.015520655984883"><ele>136.0</ele><time>2026-04-25T09:10:10.002Z</time></trkpt><trkpt lat="44.45199443823007" lon="9.015400205528554"><ele>136.5</ele><time>2026-04-25T09:10:13.002Z</time></trkpt><trkpt lat="44.45198323716239" lon="9.015300247265648"><ele>137.0</ele><time>2026-04-25T09:10:15.002Z</time></trkpt><trkpt lat="44.4519578059504" lon="9.015212505222086"><ele>137.5</ele><time>2026-04-25T09:10:17.002Z</time></trkpt><trkpt lat="44.45191812043434" lon="9.015140885031839"><ele>138.0</ele><time>2026-04-25T09:10:19.002Z</time></trkpt><trkpt lat="44.45184562184183" lon="9.01507703080193"><ele>138.0</ele><time>2026-04-25T09:10:22.002Z</time></trkpt><trkpt lat="44.451767034721186" lon="9.015017591448911"><ele>138.0</ele><time>2026-04-25T09:10:25.003Z</time></trkpt><trkpt lat="44.451701442083696" lon="9.014970179790643"><ele>138.0</ele><time>2026-04-25T09:10:28.003Z</time></trkpt><trkpt lat="44.45165669552792" lon="9.014869851168925"><ele>138.0</ele><time>2026-04-25T09:10:30.003Z</time></trkpt><trkpt lat="44.45162322574342" lon="9.01473202988628"><ele>138.0</ele><time>2026-04-25T09:10:32.003Z</time></trkpt><trkpt lat="44.45160688056388" lon="9.014607004640123"><ele>138.0</ele><time>2026-04-25T09:10:34.003Z</time></trkpt><trkpt lat="44.45157133034798" lon="9.014525255675128"><ele>139.66666666666666</ele><time>2026-04-25T09:10:36.003Z</time></trkpt><trkpt lat="44.451518375853006" lon="9.014451603157756"><ele>141.33333333333334</ele><time>2026-04-25T09:10:39.003Z</time></trkpt><trkpt lat="44.45148276162576" lon="9.014353808712373"><ele>143.0</ele><time>2026-04-25T09:10:42.003Z</time></trkpt><trkpt lat="44.4514855712889" lon="9.014255348995981"><ele>144.66666666666669</ele><time>2026-04-25T09:10:44.003Z</time></trkpt><trkpt lat="44.451478945815005" lon="9.014165648346653"><ele>146.33333333333334</ele><time>2026-04-25T09:10:45.999Z</time></trkpt><trkpt lat="44.45147040644492" lon="9.014070418675388"><ele>148.0</ele><time>2026-04-25T09:10:47.999Z</time></trkpt><trkpt lat="44.45146674497666" lon="9.013939376661202"><ele>148.0</ele><time>2026-04-25T09:10:50.999Z</time></trkpt><trkpt lat="44.45147412667272" lon="9.013829781944521"><ele>148.0</ele><time>2026-04-25T09:10:53.999Z</time></trkpt><trkpt lat="44.45147275857819" lon="9.013739967156004"><ele>148.0</ele><time>2026-04-25T09:10:56Z</time></trkpt><trkpt lat="44.451465055821714" lon="9.013614969065044"><ele>148.0</ele><time>2026-04-25T09:10:59Z</time></trkpt><trkpt lat="44.451445995350625" lon="9.013521784660242"><ele>148.0</ele><time>2026-04-25T09:11:01Z</time></trkpt><trkpt lat="44.4514290175773" lon="9.013428846842846"><ele>148.0</ele><time>2026-04-25T09:11:03Z</time></trkpt><trkpt lat="44.45141438949738" lon="9.013336025179154"><ele>148.0</ele><time>2026-04-25T09:11:05Z</time></trkpt><trkpt lat="44.451394277996116" lon="9.013209918147885"><ele>146.85714285714286</ele><time>2026-04-25T09:11:08Z</time></trkpt><trkpt lat="44.451407037317445" lon="9.013119074870493"><ele>145.71428571428572</ele><time>2026-04-25T09:11:10Z</time></trkpt><trkpt lat="44.45145840322181" lon="9.013041995084382"><ele>144.57142857142856</ele><time>2026-04-25T09:11:12Z</time></trkpt><trkpt lat="44.45150351397858" lon="9.012958543014616"><ele>143.42857142857144</ele><time>2026-04-25T09:11:14Z</time></trkpt><trkpt lat="44.451542623528965" lon="9.012870518553534"><ele>142.28571428571428</ele><time>2026-04-25T09:11:16Z</time></trkpt><trkpt lat="44.45158485853221" lon="9.012798356599761"><ele>141.14285714285714</ele><time>2026-04-25T09:11:18Z</time></trkpt><trkpt lat="44.45164093499251" lon="9.012709571058881"><ele>140.0</ele><time>2026-04-25T09:11:21Z</time></trkpt><trkpt lat="44.4517092734715" lon="9.01264102755801"><ele>140.0</ele><time>2026-04-25T09:11:23.001Z</time></trkpt><trkpt lat="44.45175335228195" lon="9.012540065007483"><ele>140.0</ele><time>2026-04-25T09:11:25.001Z</time></trkpt><trkpt lat="44.45178439938785" lon="9.012424526879666"><ele>140.0</ele><time>2026-04-25T09:11:27.001Z</time></trkpt><trkpt lat="44.451810972193684" lon="9.012324277190595"><ele>140.0</ele><time>2026-04-25T09:11:29.001Z</time></trkpt><trkpt lat="44.45183417027836" lon="9.012227739599263"><ele>140.0</ele><time>2026-04-25T09:11:31.001Z</time></trkpt><trkpt lat="44.4518703857871" lon="9.01213966891708"><ele>140.0</ele><time>2026-04-25T09:11:33.001Z</time></trkpt><trkpt lat="44.45189957297411" lon="9.012044790342753"><ele>139.5</ele><time>2026-04-25T09:11:35.001Z</time></trkpt><trkpt lat="44.45193457423904" lon="9.011947770688634"><ele>139.0</ele><time>2026-04-25T09:11:37.001Z</time></trkpt><trkpt lat="44.451979371684686" lon="9.011859899974883"><ele>138.5</ele><time>2026-04-25T09:11:39.001Z</time></trkpt><trkpt lat="44.45201363221012" lon="9.011762640525918"><ele>138.0</ele><time>2026-04-25T09:11:41.001Z</time></trkpt><trkpt lat="44.45204231241179" lon="9.011657233783762"><ele>137.5</ele><time>2026-04-25T09:11:43.001Z</time></trkpt><trkpt lat="44.452097413138034" lon="9.011552645339682"><ele>137.0</ele><time>2026-04-25T09:11:45.001Z</time></trkpt><trkpt lat="44.45216897506549" lon="9.01145603703494"><ele>137.0</ele><time>2026-04-25T09:11:47.001Z</time></trkpt><trkpt lat="44.4522401599302" lon="9.011349637071216"><ele>137.0</ele><time>2026-04-25T09:11:49.001Z</time></trkpt><trkpt lat="44.4523100796748" lon="9.011321238852656"><ele>137.0</ele><time>2026-04-25T09:11:51.001Z</time></trkpt><trkpt lat="44.45239203753054" lon="9.011251109950052"><ele>137.0</ele><time>2026-04-25T09:11:54.001Z</time></trkpt><trkpt lat="44.45245473704424" lon="9.011184107548697"><ele>137.0</ele><time>2026-04-25T09:11:56.002Z</time></trkpt><trkpt lat="44.45250576528058" lon="9.011125025636881"><ele>137.0</ele><time>2026-04-25T09:11:58.002Z</time></trkpt><trkpt lat="44.452548461949554" lon="9.011048627464044"><ele>137.00000000000003</ele><time>2026-04-25T09:12:01.002Z</time></trkpt><trkpt lat="44.4525686005966" lon="9.010963600125931"><ele>137.0</ele><time>2026-04-25T09:12:05.002Z</time></trkpt><trkpt lat="44.452570292304024" lon="9.010873399343907"><ele>137.0</ele><time>2026-04-25T09:12:09.002Z</time></trkpt><trkpt lat="44.45259290041925" lon="9.010784541387824"><ele>137.0</ele><time>2026-04-25T09:12:16.002Z</time></trkpt><trkpt lat="44.452654211114194" lon="9.010696596311746"><ele>137.0</ele><time>2026-04-25T09:12:20.002Z</time></trkpt><trkpt lat="44.452702006972785" lon="9.010632578625353"><ele>137.00000000000003</ele><time>2026-04-25T09:12:22.002Z</time></trkpt><trkpt lat="44.452760092384125" lon="9.010563323344794"><ele>137.0</ele><time>2026-04-25T09:12:25.002Z</time></trkpt><trkpt lat="44.45280367400116" lon="9.010486923459759"><ele>135.33333333333331</ele><time>2026-04-25T09:12:27.002Z</time></trkpt><trkpt lat="44.45286387057061" lon="9.01040573601232"><ele>133.66666666666666</ele><time>2026-04-25T09:12:30.003Z</time></trkpt><trkpt lat="44.4529110426162" lon="9.01033294989207"><ele>132.0</ele><time>2026-04-25T09:12:33.003Z</time></trkpt><trkpt lat="44.4529717561167" lon="9.010242363547725"><ele>130.33333333333334</ele><time>2026-04-25T09:12:36.003Z</time></trkpt><trkpt lat="44.453036852166846" lon="9.010226820347782"><ele>128.66666666666669</ele><time>2026-04-25T09:12:39.003Z</time></trkpt><trkpt lat="44.4530980482004" lon="9.010264046650006"><ele>127.0</ele><time>2026-04-25T09:12:41.003Z</time></trkpt><trkpt lat="44.453173073768845" lon="9.01032330206607"><ele>127.00000000000001</ele><time>2026-04-25T09:12:44.003Z</time></trkpt><trkpt lat="44.45326065349072" lon="9.01036065397859"><ele>127.0</ele><time>2026-04-25T09:12:47.003Z</time></trkpt><trkpt lat="44.45334331144171" lon="9.010368629273355"><ele>127.0</ele><time>2026-04-25T09:12:48.003Z</time></trkpt><trkpt lat="44.453411574833446" lon="9.010356383102222"><ele>127.0</ele><time>2026-04-25T09:12:50.999Z</time></trkpt><trkpt lat="44.453492914339954" lon="9.010395673860693"><ele>127.00000000000001</ele><time>2026-04-25T09:12:53.999Z</time></trkpt><trkpt lat="44.453593286442235" lon="9.010437830218933"><ele>127.0</ele><time>2026-04-25T09:12:55.999Z</time></trkpt><trkpt lat="44.453656245874264" lon="9.010475602002153"><ele>127.00000000000001</ele><time>2026-04-25T09:12:57.999Z</time></trkpt><trkpt lat="44.45371195077378" lon="9.01053470665857"><ele>127.0</ele><time>2026-04-25T09:12:59.999Z</time></trkpt><trkpt lat="44.45374178837593" lon="9.010631131090792"><ele>127.0</ele><time>2026-04-25T09:13:01.999Z</time></trkpt><trkpt lat="44.45375587295455" lon="9.010736026849427"><ele>127.0</ele><time>2026-04-25T09:13:03.999Z</time></trkpt><trkpt lat="44.45380057787027" lon="9.010831400659349"><ele>127.00000000000001</ele><time>2026-04-25T09:13:07Z</time></trkpt><trkpt lat="44.453857368900536" lon="9.010893239186894"><ele>127.0</ele><time>2026-04-25T09:13:09Z</time></trkpt><trkpt lat="44.453889707618664" lon="9.010991878169564"><ele>127.85714285714286</ele><time>2026-04-25T09:13:12Z</time></trkpt><trkpt lat="44.45394522228862" lon="9.011072343757645"><ele>128.71428571428572</ele><time>2026-04-25T09:13:16Z</time></trkpt><trkpt lat="44.45399760332268" lon="9.01112789377382"><ele>129.57142857142856</ele><time>2026-04-25T09:13:21Z</time></trkpt><trkpt lat="44.454076398461524" lon="9.011157379880414"><ele>130.42857142857144</ele><time>2026-04-25T09:13:24Z</time></trkpt><trkpt lat="44.4541357823391" lon="9.011197373771862"><ele>131.28571428571428</ele><time>2026-04-25T09:13:26Z</time></trkpt><trkpt lat="44.45420128732441" lon="9.011233735415866"><ele>132.14285714285714</ele><time>2026-04-25T09:13:29.001Z</time></trkpt><trkpt lat="44.454269597273786" lon="9.011243230433239"><ele>133.0</ele><time>2026-04-25T09:13:33.001Z</time></trkpt><trkpt lat="44.45433306881047" lon="9.011255840378281"><ele>133.0</ele><time>2026-04-25T09:13:35.001Z</time></trkpt><trkpt lat="44.454415682197656" lon="9.011260663145514"><ele>133.0</ele><time>2026-04-25T09:13:38.001Z</time></trkpt><trkpt lat="44.45448331022793" lon="9.011279882316218"><ele>133.0</ele><time>2026-04-25T09:13:41.001Z</time></trkpt><trkpt lat="44.454553293465366" lon="9.011280892917654"><ele>133.0</ele><time>2026-04-25T09:13:43.001Z</time></trkpt><trkpt lat="44.45462681513265" lon="9.011291850347208"><ele>133.0</ele><time>2026-04-25T09:13:46.001Z</time></trkpt><trkpt lat="44.45470004094086" lon="9.011262202984762"><ele>133.0</ele><time>2026-04-25T09:13:50.001Z</time></trkpt><trkpt lat="44.45477119133063" lon="9.01118294829567"><ele>133.28571428571428</ele><time>2026-04-25T09:13:52.001Z</time></trkpt><trkpt lat="44.454816872885615" lon="9.011112648178491"><ele>133.57142857142856</ele><time>2026-04-25T09:13:54.001Z</time></trkpt><trkpt lat="44.454870544897425" lon="9.011041785813067"><ele>133.85714285714286</ele><time>2026-04-25T09:13:57.002Z</time></trkpt><trkpt lat="44.454929884502334" lon="9.010962243345817"><ele>134.14285714285714</ele><time>2026-04-25T09:14:00.002Z</time></trkpt><trkpt lat="44.45500016114427" lon="9.010880435736453"><ele>134.42857142857142</ele><time>2026-04-25T09:14:03.002Z</time></trkpt><trkpt lat="44.455063332047644" lon="9.010859847118217"><ele>134.71428571428572</ele><time>2026-04-25T09:14:05.002Z</time></trkpt><trkpt lat="44.45512798581274" lon="9.010842637494585"><ele>135.0</ele><time>2026-04-25T09:14:07.002Z</time></trkpt><trkpt lat="44.4551928401767" lon="9.010837441872326"><ele>134.14285714285714</ele><time>2026-04-25T09:14:09.002Z</time></trkpt><trkpt lat="44.455258324608614" lon="9.010811922559663"><ele>133.28571428571428</ele><time>2026-04-25T09:14:11.002Z</time></trkpt><trkpt lat="44.455319313635584" lon="9.010774599490182"><ele>132.42857142857142</ele><time>2026-04-25T09:14:14.002Z</time></trkpt><trkpt lat="44.45535948696621" lon="9.01069933177563"><ele>131.57142857142856</ele><time>2026-04-25T09:14:19.002Z</time></trkpt><trkpt lat="44.455410069637345" lon="9.010613103518315"><ele>130.71428571428572</ele><time>2026-04-25T09:14:25.002Z</time></trkpt><trkpt lat="44.45545121557445" lon="9.01054628543593"><ele>129.85714285714283</ele><time>2026-04-25T09:14:28.002Z</time></trkpt><trkpt lat="44.455494303417005" lon="9.010469711099184"><ele>129.0</ele><time>2026-04-25T09:14:31.003Z</time></trkpt><trkpt lat="44.45553556091769" lon="9.010386208077527"><ele>129.0</ele><time>2026-04-25T09:14:34.003Z</time></trkpt><trkpt lat="44.455566300802325" lon="9.010307621765147"><ele>129.0</ele><time>2026-04-25T09:14:36.003Z</time></trkpt><trkpt lat="44.45562436002024" lon="9.01022807903282"><ele>129.0</ele><time>2026-04-25T09:14:39.003Z</time></trkpt><trkpt lat="44.45566578788394" lon="9.01014866451323"><ele>129.0</ele><time>2026-04-25T09:14:42.003Z</time></trkpt><trkpt lat="44.455715151327276" lon="9.010057501017029"><ele>129.0</ele><time>2026-04-25T09:14:45.003Z</time></trkpt><trkpt lat="44.45576023742969" lon="9.009975860619182"><ele>129.0</ele><time>2026-04-25T09:14:48.003Z</time></trkpt><trkpt lat="44.455800970970635" lon="9.009878179576129"><ele>130.57142857142856</ele><time>2026-04-25T09:14:51.003Z</time></trkpt><trkpt lat="44.45576672609638" lon="9.00976370219908"><ele>132.14285714285714</ele><time>2026-04-25T09:14:54.003Z</time></trkpt><trkpt lat="44.45575794473994" lon="9.00966254752888"><ele>133.71428571428572</ele><time>2026-04-25T09:14:56.999Z</time></trkpt><trkpt lat="44.45573791103975" lon="9.009571872409238"><ele>135.28571428571428</ele><time>2026-04-25T09:14:59.999Z</time></trkpt><trkpt lat="44.45572205348461" lon="9.009484022422418"><ele>136.85714285714286</ele><time>2026-04-25T09:15:02.999Z</time></trkpt><trkpt lat="44.45570101325958" lon="9.009398861666083"><ele>138.42857142857142</ele><time>2026-04-25T09:15:10.999Z</time></trkpt><trkpt lat="44.455741753684926" lon="9.009323717718265"><ele>140.0</ele><time>2026-04-25T09:15:13.999Z</time></trkpt><trkpt lat="44.45575319139364" lon="9.00923332454733"><ele>141.57142857142858</ele><time>2026-04-25T09:16:10.002Z</time></trkpt><trkpt lat="44.45576886772886" lon="9.00913526692874"><ele>143.14285714285714</ele><time>2026-04-25T09:16:14.002Z</time></trkpt><trkpt lat="44.45577977427659" lon="9.009042552244821"><ele>144.71428571428572</ele><time>2026-04-25T09:16:17.002Z</time></trkpt><trkpt lat="44.45577545600674" lon="9.008924551727075"><ele>146.28571428571428</ele><time>2026-04-25T09:16:20.002Z</time></trkpt><trkpt lat="44.455740775603424" lon="9.008847885621716"><ele>147.85714285714286</ele><time>2026-04-25T09:16:23.002Z</time></trkpt><trkpt lat="44.45570691130412" lon="9.008757267885146"><ele>149.42857142857144</ele><time>2026-04-25T09:16:27.002Z</time></trkpt><trkpt lat="44.45568885059835" lon="9.008648770199251"><ele>151.0</ele><time>2026-04-25T09:16:30.002Z</time></trkpt><trkpt lat="44.45567034257093" lon="9.00854470992616"><ele>151.0</ele><time>2026-04-25T09:16:33.002Z</time></trkpt><trkpt lat="44.45564202473972" lon="9.008449828311631"><ele>151.0</ele><time>2026-04-25T09:16:36.003Z</time></trkpt><trkpt lat="44.455608440217155" lon="9.008319334367087"><ele>151.0</ele><time>2026-04-25T09:16:40.003Z</time></trkpt><trkpt lat="44.45559379137763" lon="9.008227615879155"><ele>151.0</ele><time>2026-04-25T09:16:43.003Z</time></trkpt><trkpt lat="44.45555696482885" lon="9.008119945784047"><ele>151.0</ele><time>2026-04-25T09:16:46.003Z</time></trkpt><trkpt lat="44.45552752663414" lon="9.008019915113625"><ele>151.0</ele><time>2026-04-25T09:16:49.003Z</time></trkpt><trkpt lat="44.45550519998402" lon="9.007933131366963"><ele>152.42857142857144</ele><time>2026-04-25T09:16:52.003Z</time></trkpt><trkpt lat="44.455483527270786" lon="9.007835691087346"><ele>153.85714285714286</ele><time>2026-04-25T09:16:54.003Z</time></trkpt><trkpt lat="44.455481033311514" lon="9.007731461247483"><ele>155.28571428571428</ele><time>2026-04-25T09:16:57.003Z</time></trkpt><trkpt lat="44.455488702493824" lon="9.007620831778013"><ele>156.71428571428572</ele><time>2026-04-25T09:16:59.003Z</time></trkpt><trkpt lat="44.45551093328053" lon="9.00753818505954"><ele>158.14285714285714</ele><time>2026-04-25T09:17:01.003Z</time></trkpt><trkpt lat="44.455539485662015" lon="9.007456515708723"><ele>159.57142857142858</ele><time>2026-04-25T09:17:02.999Z</time></trkpt><trkpt lat="44.455585672922034" lon="9.007350963109069"><ele>161.0</ele><time>2026-04-25T09:17:05.999Z</time></trkpt><trkpt lat="44.45563611183959" lon="9.007257216128133"><ele>162.5</ele><time>2026-04-25T09:17:08.999Z</time></trkpt><trkpt lat="44.45567189800379" lon="9.007173665948235"><ele>164.0</ele><time>2026-04-25T09:17:11.999Z</time></trkpt><trkpt lat="44.45567030792956" lon="9.007078866450378"><ele>165.5</ele><time>2026-04-25T09:17:17.999Z</time></trkpt><trkpt lat="44.45561578080229" lon="9.007020307177491"><ele>167.0</ele><time>2026-04-25T09:17:19.999Z</time></trkpt><trkpt lat="44.45552825052187" lon="9.00697118674323"><ele>168.5</ele><time>2026-04-25T09:17:23Z</time></trkpt><trkpt lat="44.45546688501368" lon="9.006950457461805"><ele>170.0</ele><time>2026-04-25T09:17:25Z</time></trkpt><trkpt lat="44.45537629240701" lon="9.00696568090814"><ele>166.0</ele><time>2026-04-25T09:17:28Z</time></trkpt><trkpt lat="44.455308729875625" lon="9.006980860374652"><ele>162.0</ele><time>2026-04-25T09:17:45.001Z</time></trkpt><trkpt lat="44.455210083599944" lon="9.006991402349788"><ele>158.0</ele><time>2026-04-25T09:17:48.001Z</time></trkpt><trkpt lat="44.455141847765454" lon="9.006989211450414"><ele>154.0</ele><time>2026-04-25T09:17:50.001Z</time></trkpt><trkpt lat="44.455076943641515" lon="9.006973999220014"><ele>150.0</ele><time>2026-04-25T09:17:52.001Z</time></trkpt><trkpt lat="44.45499870500472" lon="9.006957347553536"><ele>146.0</ele><time>2026-04-25T09:17:55.001Z</time></trkpt><trkpt lat="44.454919147250294" lon="9.006889311245505"><ele>146.0</ele><time>2026-04-25T09:17:58.001Z</time></trkpt><trkpt lat="44.454871333276024" lon="9.006823981234238"><ele>146.0</ele><time>2026-04-25T09:18:01.001Z</time></trkpt><trkpt lat="44.45479712978134" lon="9.006850035743518"><ele>146.0</ele><time>2026-04-25T09:18:17.002Z</time></trkpt><trkpt lat="44.45472306811085" lon="9.00691656349368"><ele>146.0</ele><time>2026-04-25T09:18:21.002Z</time></trkpt><trkpt lat="44.45465082321756" lon="9.00698180871298"><ele>146.0</ele><time>2026-04-25T09:18:24.002Z</time></trkpt><trkpt lat="44.45457899551881" lon="9.007001240753297"><ele>146.0</ele><time>2026-04-25T09:18:27.002Z</time></trkpt><trkpt lat="44.45451159905124" lon="9.006957820383994"><ele>145.0</ele><time>2026-04-25T09:18:30.002Z</time></trkpt><trkpt lat="44.45443749532308" lon="9.006918184001654"><ele>144.0</ele><time>2026-04-25T09:18:33.002Z</time></trkpt><trkpt lat="44.454356829855186" lon="9.00687507002971"><ele>143.0</ele><time>2026-04-25T09:18:36.002Z</time></trkpt><trkpt lat="44.45427780673287" lon="9.006829043922009"><ele>142.0</ele><time>2026-04-25T09:18:39.002Z</time></trkpt><trkpt lat="44.45419633251464" lon="9.006780674753927"><ele>141.0</ele><time>2026-04-25T09:18:42.003Z</time></trkpt><trkpt lat="44.454136478595714" lon="9.006744946279007"><ele>140.0</ele><time>2026-04-25T09:18:44.003Z</time></trkpt><trkpt lat="44.45405233307405" lon="9.00673602817767"><ele>140.0</ele><time>2026-04-25T09:18:47.003Z</time></trkpt><trkpt lat="44.454004239626165" lon="9.006843707857948"><ele>140.0</ele><time>2026-04-25T09:18:50.003Z</time></trkpt><trkpt lat="44.45395406190491" lon="9.006928208106531"><ele>140.0</ele><time>2026-04-25T09:18:53.003Z</time></trkpt><trkpt lat="44.453885026055545" lon="9.006955758304052"><ele>140.0</ele><time>2026-04-25T09:18:56.003Z</time></trkpt><trkpt lat="44.45380715327036" lon="9.006940925772907"><ele>140.0</ele><time>2026-04-25T09:18:59.003Z</time></trkpt><trkpt lat="44.45371968884093" lon="9.006947125581872"><ele>140.0</ele><time>2026-04-25T09:19:03.003Z</time></trkpt><trkpt lat="44.453639411555855" lon="9.006981188944609"><ele>140.0</ele><time>2026-04-25T09:19:06.003Z</time></trkpt><trkpt lat="44.453550906438366" lon="9.006999554571852"><ele>140.0</ele><time>2026-04-25T09:19:09.998Z</time></trkpt><trkpt lat="44.453486972401535" lon="9.007004855710164"><ele>140.0</ele><time>2026-04-25T09:19:11.998Z</time></trkpt><trkpt lat="44.45340696272048" lon="9.007004552805338"><ele>140.0</ele><time>2026-04-25T09:19:15.999Z</time></trkpt><trkpt lat="44.45332879637693" lon="9.006970778133333"><ele>140.0</ele><time>2026-04-25T09:19:17.999Z</time></trkpt><trkpt lat="44.45325153980411" lon="9.006905101209272"><ele>140.0</ele><time>2026-04-25T09:19:20.999Z</time></trkpt><trkpt lat="44.4531959366451" lon="9.006826047679256"><ele>140.0</ele><time>2026-04-25T09:19:23.999Z</time></trkpt><trkpt lat="44.45315028825578" lon="9.006709080738275"><ele>140.0</ele><time>2026-04-25T09:19:25.999Z</time></trkpt><trkpt lat="44.45311867626008" lon="9.006623452090613"><ele>140.0</ele><time>2026-04-25T09:19:29Z</time></trkpt><trkpt lat="44.45312231817659" lon="9.006512090993258"><ele>140.0</ele><time>2026-04-25T09:19:32Z</time></trkpt><trkpt lat="44.453107923994125" lon="9.006391670758504"><ele>140.0</ele><time>2026-04-25T09:19:35Z</time></trkpt><trkpt lat="44.453041077002894" lon="9.006290212110889"><ele>140.0</ele><time>2026-04-25T09:19:38Z</time></trkpt><trkpt lat="44.45298510161279" lon="9.00621194774946"><ele>139.83333333333331</ele><time>2026-04-25T09:19:41Z</time></trkpt><trkpt lat="44.4529367024047" lon="9.006120494619031"><ele>139.66666666666666</ele><time>2026-04-25T09:19:44Z</time></trkpt><trkpt lat="44.452902621594575" lon="9.00600978116323"><ele>139.5</ele><time>2026-04-25T09:19:47.001Z</time></trkpt><trkpt lat="44.45287733204648" lon="9.0058901312308"><ele>139.33333333333334</ele><time>2026-04-25T09:19:50.001Z</time></trkpt><trkpt lat="44.4528527380383" lon="9.00579073966395"><ele>139.16666666666669</ele><time>2026-04-25T09:19:53.001Z</time></trkpt><trkpt lat="44.45287110753487" lon="9.005684016442155"><ele>139.0</ele><time>2026-04-25T09:19:57.001Z</time></trkpt><trkpt lat="44.45285019197813" lon="9.005589752433568"><ele>139.0</ele><time>2026-04-25T09:20:01.001Z</time></trkpt><trkpt lat="44.452856305611505" lon="9.005498913436549"><ele>139.0</ele><time>2026-04-25T09:20:05.001Z</time></trkpt><trkpt lat="44.45281515215015" lon="9.005410286693682"><ele>139.0</ele><time>2026-04-25T09:20:10.001Z</time></trkpt><trkpt lat="44.452696965847636" lon="9.005362604804837"><ele>139.0</ele><time>2026-04-25T09:20:14.002Z</time></trkpt><trkpt lat="44.45262001304646" lon="9.005312306837594"><ele>139.0</ele><time>2026-04-25T09:20:16.002Z</time></trkpt><trkpt lat="44.45256843793637" lon="9.005250506231928"><ele>139.0</ele><time>2026-04-25T09:20:17.002Z</time></trkpt><trkpt lat="44.45252527938552" lon="9.005138961310678"><ele>139.0</ele><time>2026-04-25T09:20:19.002Z</time></trkpt><trkpt lat="44.45249103767152" lon="9.005035527282756"><ele>139.0</ele><time>2026-04-25T09:20:21.002Z</time></trkpt><trkpt lat="44.452459193036695" lon="9.004939685422556"><ele>139.0</ele><time>2026-04-25T09:20:23.002Z</time></trkpt><trkpt lat="44.45242759691223" lon="9.004846492785509"><ele>139.0</ele><time>2026-04-25T09:20:25.002Z</time></trkpt><trkpt lat="44.45240266760797" lon="9.004761318034095"><ele>139.0</ele><time>2026-04-25T09:20:27.002Z</time></trkpt><trkpt lat="44.452373562127896" lon="9.004652400412015"><ele>139.0</ele><time>2026-04-25T09:20:30.002Z</time></trkpt><trkpt lat="44.45233174207208" lon="9.004543688068505"><ele>139.5</ele><time>2026-04-25T09:20:33.002Z</time></trkpt><trkpt lat="44.45229448062651" lon="9.00444055293867"><ele>140.0</ele><time>2026-04-25T09:20:36.002Z</time></trkpt><trkpt lat="44.45223841940635" lon="9.004362064730488"><ele>140.5</ele><time>2026-04-25T09:20:40.002Z</time></trkpt><trkpt lat="44.452165342495974" lon="9.004356383761806"><ele>141.0</ele><time>2026-04-25T09:20:44.002Z</time></trkpt><trkpt lat="44.452089108788385" lon="9.004350865326941"><ele>141.5</ele><time>2026-04-25T09:22:32.002Z</time></trkpt><trkpt lat="44.452055748310585" lon="9.004259449688046"><ele>142.0</ele><time>2026-04-25T09:22:36.002Z</time></trkpt><trkpt lat="44.45202761568009" lon="9.004169268332085"><ele>142.42857142857142</ele><time>2026-04-25T09:22:39.002Z</time></trkpt><trkpt lat="44.452010460883635" lon="9.004079087369771"><ele>142.85714285714283</ele><time>2026-04-25T09:22:42.002Z</time></trkpt><trkpt lat="44.45198740174775" lon="9.003969866022484"><ele>143.28571428571428</ele><time>2026-04-25T09:22:46.002Z</time></trkpt><trkpt lat="44.45199771104083" lon="9.00387641061503"><ele>143.71428571428572</ele><time>2026-04-25T09:22:49.002Z</time></trkpt><trkpt lat="44.4520189215431" lon="9.003780591291916"><ele>144.14285714285717</ele><time>2026-04-25T09:22:52.003Z</time></trkpt><trkpt lat="44.45205973856493" lon="9.003710105936605"><ele>144.57142857142858</ele><time>2026-04-25T09:22:55.003Z</time></trkpt><trkpt lat="44.45212841059081" lon="9.003649771577438"><ele>145.0</ele><time>2026-04-25T09:22:59.003Z</time></trkpt><trkpt lat="44.45220164453012" lon="9.00364130230669"><ele>145.0</ele><time>2026-04-25T09:23:03.003Z</time></trkpt><trkpt lat="44.452278386136406" lon="9.003673389660696"><ele>145.0</ele><time>2026-04-25T09:23:07.003Z</time></trkpt><trkpt lat="44.452339682428374" lon="9.00374885350348"><ele>145.0</ele><time>2026-04-25T09:23:11.003Z</time></trkpt><trkpt lat="44.4523757979529" lon="9.003858419713527"><ele>145.0</ele><time>2026-04-25T09:23:15.003Z</time></trkpt><trkpt lat="44.45240406918359" lon="9.003968663645603"><ele>145.0</ele><time>2026-04-25T09:23:19.003Z</time></trkpt><trkpt lat="44.45243220121421" lon="9.004059306652813"><ele>145.0</ele><time>2026-04-25T09:23:21.999Z</time></trkpt><trkpt lat="44.45246473962244" lon="9.004159755301792"><ele>144.5</ele><time>2026-04-25T09:23:24.999Z</time></trkpt><trkpt lat="44.45248633901078" lon="9.004271115472713"><ele>144.0</ele><time>2026-04-25T09:23:27.999Z</time></trkpt><trkpt lat="44.45251342408906" lon="9.004369094948155"><ele>143.5</ele><time>2026-04-25T09:23:30.999Z</time></trkpt><trkpt lat="44.452535776810066" lon="9.004477807682312"><ele>143.0</ele><time>2026-04-25T09:23:33.999Z</time></trkpt><trkpt lat="44.45255107433565" lon="9.00459866738227"><ele>142.5</ele><time>2026-04-25T09:23:36.999Z</time></trkpt><trkpt lat="44.45257694511409" lon="9.004704869324987"><ele>142.0</ele><time>2026-04-25T09:23:40Z</time></trkpt><trkpt lat="44.452606947409386" lon="9.004810874409994"><ele>142.0</ele><time>2026-04-25T09:23:43Z</time></trkpt><trkpt lat="44.45264073345093" lon="9.004916314219257"><ele>142.0</ele><time>2026-04-25T09:23:46Z</time></trkpt><trkpt lat="44.45268596660548" lon="9.00501949504704"><ele>142.0</ele><time>2026-04-25T09:23:49Z</time></trkpt><trkpt lat="44.45273383417667" lon="9.005124062591301"><ele>142.0</ele><time>2026-04-25T09:23:52Z</time></trkpt><trkpt lat="44.45278265809126" lon="9.00520001653583"><ele>142.0</ele><time>2026-04-25T09:23:55Z</time></trkpt><trkpt lat="44.452831564278235" lon="9.005282410069134"><ele>142.0</ele><time>2026-04-25T09:23:58.001Z</time></trkpt><trkpt lat="44.45288885081251" lon="9.00536904939148"><ele>141.5</ele><time>2026-04-25T09:24:01.001Z</time></trkpt><trkpt lat="44.45295016347261" lon="9.005465066804854"><ele>141.0</ele><time>2026-04-25T09:24:04.001Z</time></trkpt><trkpt lat="44.453009451228496" lon="9.00555690960609"><ele>140.5</ele><time>2026-04-25T09:24:07.001Z</time></trkpt><trkpt lat="44.45306556306929" lon="9.005640847097846"><ele>140.0</ele><time>2026-04-25T09:24:10.001Z</time></trkpt><trkpt lat="44.45312055564023" lon="9.005723351221668"><ele>139.5</ele><time>2026-04-25T09:24:13.001Z</time></trkpt><trkpt lat="44.45317303523456" lon="9.005809854491613"><ele>139.0</ele><time>2026-04-25T09:24:16.001Z</time></trkpt><trkpt lat="44.45323308504064" lon="9.005894974990763"><ele>140.83333333333334</ele><time>2026-04-25T09:24:19.001Z</time></trkpt><trkpt lat="44.453288025695535" lon="9.00597561352976"><ele>142.66666666666669</ele><time>2026-04-25T09:24:22.001Z</time></trkpt><trkpt lat="44.453347529351724" lon="9.006061124336998"><ele>144.5</ele><time>2026-04-25T09:24:25.002Z</time></trkpt><trkpt lat="44.45339552948714" lon="9.006150057610023"><ele>146.33333333333334</ele><time>2026-04-25T09:24:28.002Z</time></trkpt><trkpt lat="44.45344162049153" lon="9.006228778846534"><ele>148.16666666666666</ele><time>2026-04-25T09:24:31.002Z</time></trkpt><trkpt lat="44.45349719896178" lon="9.006300495663695"><ele>150.0</ele><time>2026-04-25T09:24:34.002Z</time></trkpt><trkpt lat="44.453549410873684" lon="9.00636137287682"><ele>149.99999999999997</ele><time>2026-04-25T09:24:37.002Z</time></trkpt><trkpt lat="44.453614970160125" lon="9.00639898452175"><ele>150.0</ele><time>2026-04-25T09:24:40.002Z</time></trkpt><trkpt lat="44.453689942525536" lon="9.00641156684674"><ele>150.0</ele><time>2026-04-25T09:24:43.002Z</time></trkpt><trkpt lat="44.453757003248434" lon="9.006400897553018"><ele>150.0</ele><time>2026-04-25T09:24:46.002Z</time></trkpt><trkpt lat="44.45382940353341" lon="9.006352661545987"><ele>150.0</ele><time>2026-04-25T09:24:49.002Z</time></trkpt><trkpt lat="44.453890074030866" lon="9.00630636489157"><ele>149.99999999999997</ele><time>2026-04-25T09:24:52.002Z</time></trkpt><trkpt lat="44.45396161129379" lon="9.006253987541015"><ele>150.0</ele><time>2026-04-25T09:24:56.002Z</time></trkpt><trkpt lat="44.45401777887308" lon="9.00617216885091"><ele>151.0</ele><time>2026-04-25T09:25:00.003Z</time></trkpt><trkpt lat="44.45406950464269" lon="9.00609065739854"><ele>152.0</ele><time>2026-04-25T09:25:04.003Z</time></trkpt><trkpt lat="44.45411993152937" lon="9.00602796644148"><ele>153.0</ele><time>2026-04-25T09:25:07.003Z</time></trkpt><trkpt lat="44.45418161357977" lon="9.005962480299408"><ele>154.0</ele><time>2026-04-25T09:25:11.003Z</time></trkpt><trkpt lat="44.45423466905991" lon="9.005885645412548"><ele>155.0</ele><time>2026-04-25T09:25:15.003Z</time></trkpt><trkpt lat="44.45425535374233" lon="9.005777695578777"><ele>156.0</ele><time>2026-04-25T09:25:19.003Z</time></trkpt><trkpt lat="44.45424153802853" lon="9.005669009104889"><ele>156.85714285714286</ele><time>2026-04-25T09:25:22.003Z</time></trkpt><trkpt lat="44.45423915506415" lon="9.005569836744755"><ele>157.7142857142857</ele><time>2026-04-25T09:25:26.003Z</time></trkpt><trkpt lat="44.45421345061291" lon="9.005482906741403"><ele>158.57142857142856</ele><time>2026-04-25T09:25:28.998Z</time></trkpt><trkpt lat="44.454172898389324" lon="9.005396593877961"><ele>159.42857142857144</ele><time>2026-04-25T09:25:32.998Z</time></trkpt><trkpt lat="44.45413575998436" lon="9.00532420382159"><ele>160.28571428571428</ele><time>2026-04-25T09:25:35.999Z</time></trkpt><trkpt lat="44.45408404116005" lon="9.00525021500127"><ele>161.14285714285714</ele><time>2026-04-25T09:25:39.999Z</time></trkpt><trkpt lat="44.45403962277243" lon="9.005181459618457"><ele>162.0</ele><time>2026-04-25T09:25:42.999Z</time></trkpt><trkpt lat="44.45399144759222" lon="9.005103780563216"><ele>162.0</ele><time>2026-04-25T09:25:45.999Z</time></trkpt><trkpt lat="44.45394354869194" lon="9.005019290173456"><ele>162.0</ele><time>2026-04-25T09:25:49Z</time></trkpt><trkpt lat="44.45389213431518" lon="9.00494640621908"><ele>162.0</ele><time>2026-04-25T09:25:52Z</time></trkpt><trkpt lat="44.45386478511404" lon="9.004864603271301"><ele>162.0</ele><time>2026-04-25T09:25:55Z</time></trkpt><trkpt lat="44.453833435881876" lon="9.00476838511466"><ele>162.0</ele><time>2026-04-25T09:25:58Z</time></trkpt><trkpt lat="44.45380864967715" lon="9.00467887433804"><ele>162.0</ele><time>2026-04-25T09:26:01Z</time></trkpt><trkpt lat="44.4537853079211" lon="9.004572416555105"><ele>162.0</ele><time>2026-04-25T09:26:04Z</time></trkpt><trkpt lat="44.453763662938314" lon="9.00447066452442"><ele>161.66666666666666</ele><time>2026-04-25T09:26:07.001Z</time></trkpt><trkpt lat="44.45371663902146" lon="9.00439417650364"><ele>161.33333333333334</ele><time>2026-04-25T09:26:10.001Z</time></trkpt><trkpt lat="44.453702287398194" lon="9.004271618329012"><ele>161.0</ele><time>2026-04-25T09:26:13.001Z</time></trkpt><trkpt lat="44.45368150666913" lon="9.004186791435073"><ele>160.66666666666669</ele><time>2026-04-25T09:26:15.001Z</time></trkpt><trkpt lat="44.45367806606895" lon="9.004066551987968"><ele>160.33333333333334</ele><time>2026-04-25T09:26:18.001Z</time></trkpt><trkpt lat="44.45372528175117" lon="9.003966900168253"><ele>160.0</ele><time>2026-04-25T09:26:21.001Z</time></trkpt><trkpt lat="44.45379330785915" lon="9.003923086211248"><ele>161.0</ele><time>2026-04-25T09:26:24.001Z</time></trkpt><trkpt lat="44.45379065417142" lon="9.003810026342414"><ele>162.0</ele><time>2026-04-25T09:26:28.001Z</time></trkpt><trkpt lat="44.45376818668453" lon="9.003708215671448"><ele>163.0</ele><time>2026-04-25T09:26:33.002Z</time></trkpt><trkpt lat="44.453751712557604" lon="9.003606960814741"><ele>164.0</ele><time>2026-04-25T09:26:38.002Z</time></trkpt><trkpt lat="44.45373650282264" lon="9.003512774099626"><ele>165.0</ele><time>2026-04-25T09:26:43.002Z</time></trkpt><trkpt lat="44.45373700330572" lon="9.00341678024722"><ele>166.0</ele><time>2026-04-25T09:27:06.003Z</time></trkpt><trkpt lat="44.45370723235345" lon="9.003321422129453"><ele>167.0</ele><time>2026-04-25T09:27:12.003Z</time></trkpt><trkpt lat="44.4536831413385" lon="9.003213418238516"><ele>168.33333333333331</ele><time>2026-04-25T09:27:18.003Z</time></trkpt><trkpt lat="44.453672999252895" lon="9.003099754289437"><ele>169.66666666666666</ele><time>2026-04-25T09:27:22.003Z</time></trkpt><trkpt lat="44.45360436889115" lon="9.00302607179402"><ele>171.0</ele><time>2026-04-25T09:27:26.003Z</time></trkpt><trkpt lat="44.45355518856508" lon="9.002951025909384"><ele>172.33333333333334</ele><time>2026-04-25T09:27:29.003Z</time></trkpt><trkpt lat="44.45351252090043" lon="9.002861918413489"><ele>173.66666666666669</ele><time>2026-04-25T09:27:32.003Z</time></trkpt><trkpt lat="44.45345405984655" lon="9.00276769852606"><ele>175.0</ele><time>2026-04-25T09:27:34.999Z</time></trkpt><trkpt lat="44.453424855476825" lon="9.002663570958639"><ele>175.0</ele><time>2026-04-25T09:27:37.999Z</time></trkpt><trkpt lat="44.453399043576134" lon="9.002560623837647"><ele>175.0</ele><time>2026-04-25T09:27:40.999Z</time></trkpt><trkpt lat="44.45337852067347" lon="9.002454838582624"><ele>175.0</ele><time>2026-04-25T09:27:43.999Z</time></trkpt><trkpt lat="44.45335351248754" lon="9.002356447685711"><ele>175.0</ele><time>2026-04-25T09:27:46.999Z</time></trkpt><trkpt lat="44.45332042334394" lon="9.002264654814667"><ele>175.0</ele><time>2026-04-25T09:27:49.999Z</time></trkpt><trkpt lat="44.453294978167186" lon="9.002171261214539"><ele>175.0</ele><time>2026-04-25T09:27:53Z</time></trkpt><trkpt lat="44.453273743610744" lon="9.002070957456922"><ele>176.42857142857142</ele><time>2026-04-25T09:27:57Z</time></trkpt><trkpt lat="44.45325806961917" lon="9.001981837362985"><ele>177.85714285714286</ele><time>2026-04-25T09:28:00Z</time></trkpt><trkpt lat="44.453249769959264" lon="9.001882013280504"><ele>179.28571428571428</ele><time>2026-04-25T09:28:03Z</time></trkpt><trkpt lat="44.45323769968679" lon="9.00178886665077"><ele>180.71428571428572</ele><time>2026-04-25T09:28:06Z</time></trkpt><trkpt lat="44.4532129799846" lon="9.00167134048795"><ele>182.14285714285714</ele><time>2026-04-25T09:28:11.001Z</time></trkpt><trkpt lat="44.45318538868373" lon="9.001573484730068"><ele>183.57142857142856</ele><time>2026-04-25T09:28:16.001Z</time></trkpt><trkpt lat="44.45314033771661" lon="9.00149253716395"><ele>185.0</ele><time>2026-04-25T09:28:20.001Z</time></trkpt><trkpt lat="44.45311869319527" lon="9.001376755630265"><ele>185.0</ele><time>2026-04-25T09:28:23.001Z</time></trkpt><trkpt lat="44.453119822708054" lon="9.001268856747089"><ele>185.0</ele><time>2026-04-25T09:28:27.001Z</time></trkpt><trkpt lat="44.45313626285035" lon="9.001165404726494"><ele>185.0</ele><time>2026-04-25T09:28:30.001Z</time></trkpt><trkpt lat="44.45316196675583" lon="9.001079332963423"><ele>185.0</ele><time>2026-04-25T09:28:32.001Z</time></trkpt><trkpt lat="44.453171075031754" lon="9.000959393069987"><ele>185.0</ele><time>2026-04-25T09:28:35.001Z</time></trkpt><trkpt lat="44.45318369308787" lon="9.000867657168655"><ele>185.0</ele><time>2026-04-25T09:28:37.001Z</time></trkpt><trkpt lat="44.45319532189333" lon="9.000751578802356"><ele>183.83333333333331</ele><time>2026-04-25T09:28:39.002Z</time></trkpt><trkpt lat="44.45319829674361" lon="9.000628172737455"><ele>182.66666666666666</ele><time>2026-04-25T09:28:41.002Z</time></trkpt><trkpt lat="44.45320330898486" lon="9.000528959612158"><ele>181.5</ele><time>2026-04-25T09:28:43.002Z</time></trkpt><trkpt lat="44.453238619876096" lon="9.000414841541874"><ele>180.33333333333334</ele><time>2026-04-25T09:28:45.002Z</time></trkpt><trkpt lat="44.45324940868043" lon="9.000296295911934"><ele>179.16666666666669</ele><time>2026-04-25T09:28:47.002Z</time></trkpt><trkpt lat="44.45325615912559" lon="9.000200678116423"><ele>178.0</ele><time>2026-04-25T09:28:49.002Z</time></trkpt><trkpt lat="44.45327077733728" lon="9.000109322271953"><ele>178.0</ele><time>2026-04-25T09:28:51.002Z</time></trkpt><trkpt lat="44.45327620555932" lon="9.00000546680585"><ele>178.0</ele><time>2026-04-25T09:28:53.002Z</time></trkpt><trkpt lat="44.45324977529829" lon="8.999870687204867"><ele>178.0</ele><time>2026-04-25T09:28:55.002Z</time></trkpt><trkpt lat="44.453164071872976" lon="8.999799562651214"><ele>178.0</ele><time>2026-04-25T09:28:57.002Z</time></trkpt><trkpt lat="44.453101451824004" lon="8.999825783374119"><ele>178.0</ele><time>2026-04-25T09:28:59.002Z</time></trkpt><trkpt lat="44.45302956954893" lon="8.999803711485107"><ele>178.0</ele><time>2026-04-25T09:29:02.002Z</time></trkpt><trkpt lat="44.45297137228946" lon="8.99975994397311"><ele>175.33333333333334</ele><time>2026-04-25T09:29:05.002Z</time></trkpt><trkpt lat="44.45291287739423" lon="8.99967315020892"><ele>172.66666666666669</ele><time>2026-04-25T09:29:08.002Z</time></trkpt><trkpt lat="44.45287022857077" lon="8.999565522576015"><ele>170.0</ele><time>2026-04-25T09:29:11.003Z</time></trkpt><trkpt lat="44.452853224044965" lon="8.999448622681218"><ele>167.33333333333334</ele><time>2026-04-25T09:29:14.003Z</time></trkpt><trkpt lat="44.45283877974513" lon="8.999324402561212"><ele>164.66666666666666</ele><time>2026-04-25T09:29:17.003Z</time></trkpt><trkpt lat="44.45282919431758" lon="8.99919810138597"><ele>162.0</ele><time>2026-04-25T09:29:20.003Z</time></trkpt><trkpt lat="44.45282897419923" lon="8.999070093273371"><ele>162.0</ele><time>2026-04-25T09:29:23.003Z</time></trkpt><trkpt lat="44.452850400797985" lon="8.998941521790343"><ele>162.0</ele><time>2026-04-25T09:29:26.003Z</time></trkpt><trkpt lat="44.452876628786804" lon="8.998858699337665"><ele>162.0</ele><time>2026-04-25T09:29:28.003Z</time></trkpt><trkpt lat="44.452896587823076" lon="8.998770744161483"><ele>162.0</ele><time>2026-04-25T09:29:30.003Z</time></trkpt><trkpt lat="44.45290394214158" lon="8.99867019701095"><ele>162.0</ele><time>2026-04-25T09:29:32.003Z</time></trkpt><trkpt lat="44.45290000848488" lon="8.998582012983727"><ele>162.0</ele><time>2026-04-25T09:29:34.003Z</time></trkpt><trkpt lat="44.45289828148386" lon="8.99848582532063"><ele>162.0</ele><time>2026-04-25T09:29:36.003Z</time></trkpt><trkpt lat="44.45289288241024" lon="8.998369640393532"><ele>161.42857142857144</ele><time>2026-04-25T09:29:38.998Z</time></trkpt><trkpt lat="44.45290037121135" lon="8.998278911801387"><ele>160.85714285714286</ele><time>2026-04-25T09:29:41.999Z</time></trkpt><trkpt lat="44.452933479236435" lon="8.998200517627426"><ele>160.28571428571428</ele><time>2026-04-25T09:30:01Z</time></trkpt><trkpt lat="44.45289799111767" lon="8.998126391809318"><ele>159.71428571428572</ele><time>2026-04-25T09:33:26.003Z</time></trkpt><trkpt lat="44.4529426389072" lon="8.998007859129688"><ele>159.14285714285714</ele><time>2026-04-25T09:33:29.003Z</time></trkpt><trkpt lat="44.45299828054767" lon="8.99793470866945"><ele>158.57142857142858</ele><time>2026-04-25T09:33:31.003Z</time></trkpt><trkpt lat="44.453046652809384" lon="8.997854064773389"><ele>158.0</ele><time>2026-04-25T09:33:33.003Z</time></trkpt><trkpt lat="44.453083352830006" lon="8.997769182936972"><ele>159.5</ele><time>2026-04-25T09:33:35.003Z</time></trkpt><trkpt lat="44.45312847984306" lon="8.997649836335096"><ele>161.0</ele><time>2026-04-25T09:33:38.003Z</time></trkpt><trkpt lat="44.45318962862623" lon="8.997560450035316"><ele>162.5</ele><time>2026-04-25T09:33:41.003Z</time></trkpt><trkpt lat="44.453250252225594" lon="8.997490556083777"><ele>164.0</ele><time>2026-04-25T09:33:43.003Z</time></trkpt><trkpt lat="44.45326969629243" lon="8.99740116658417"><ele>165.5</ele><time>2026-04-25T09:33:45.003Z</time></trkpt><trkpt lat="44.45329762630025" lon="8.997317598014602"><ele>167.0</ele><time>2026-04-25T09:33:48.003Z</time></trkpt><trkpt lat="44.45330853255019" lon="8.997203118924858"><ele>167.0</ele><time>2026-04-25T09:33:50.999Z</time></trkpt><trkpt lat="44.453351838363034" lon="8.997112440677277"><ele>167.0</ele><time>2026-04-25T09:33:52.999Z</time></trkpt><trkpt lat="44.45340400709468" lon="8.997042434077581"><ele>167.0</ele><time>2026-04-25T09:33:54.999Z</time></trkpt><trkpt lat="44.45346141620141" lon="8.99696811490885"><ele>167.0</ele><time>2026-04-25T09:33:58.999Z</time></trkpt><trkpt lat="44.4535448048178" lon="8.99690710307882"><ele>167.0</ele><time>2026-04-25T09:34:00.999Z</time></trkpt><trkpt lat="44.45351735527466" lon="8.99675696795079"><ele>167.0</ele><time>2026-04-25T09:34:03.999Z</time></trkpt><trkpt lat="44.4534906217831" lon="8.996673407501302"><ele>165.42857142857142</ele><time>2026-04-25T09:34:06Z</time></trkpt><trkpt lat="44.45347937926162" lon="8.996577836120611"><ele>163.85714285714286</ele><time>2026-04-25T09:34:08Z</time></trkpt><trkpt lat="44.45347104631399" lon="8.996472769423582"><ele>162.28571428571428</ele><time>2026-04-25T09:34:10Z</time></trkpt><trkpt lat="44.45346758442255" lon="8.996367008433102"><ele>160.71428571428572</ele><time>2026-04-25T09:34:12Z</time></trkpt><trkpt lat="44.45347572611466" lon="8.996267879175242"><ele>159.14285714285714</ele><time>2026-04-25T09:34:14Z</time></trkpt><trkpt lat="44.45348926907418" lon="8.996164718672707"><ele>157.57142857142858</ele><time>2026-04-25T09:34:17Z</time></trkpt><trkpt lat="44.45351263428148" lon="8.996060881054165"><ele>156.0</ele><time>2026-04-25T09:34:21Z</time></trkpt><trkpt lat="44.453531461593855" lon="8.995971404660045"><ele>156.0</ele><time>2026-04-25T09:34:25.001Z</time></trkpt><trkpt lat="44.453562407824116" lon="8.995858734924669"><ele>156.0</ele><time>2026-04-25T09:34:28.001Z</time></trkpt><trkpt lat="44.453596030151466" lon="8.995750143623967"><ele>156.0</ele><time>2026-04-25T09:34:31.001Z</time></trkpt><trkpt lat="44.45361848765932" lon="8.995639821559895"><ele>156.0</ele><time>2026-04-25T09:34:34.001Z</time></trkpt><trkpt lat="44.45362827586987" lon="8.995546432400578"><ele>156.0</ele><time>2026-04-25T09:34:36.001Z</time></trkpt><trkpt lat="44.45364027165005" lon="8.995443525623918"><ele>156.0</ele><time>2026-04-25T09:34:39.001Z</time></trkpt><trkpt lat="44.45363477622183" lon="8.995325454347334"><ele>156.0</ele><time>2026-04-25T09:34:43.001Z</time></trkpt><trkpt lat="44.45363621178032" lon="8.995236662303412"><ele>156.0</ele><time>2026-04-25T09:34:47.001Z</time></trkpt><trkpt lat="44.45366564826796" lon="8.99515850155165"><ele>156.0</ele><time>2026-04-25T09:34:59.002Z</time></trkpt><trkpt lat="44.45368937700317" lon="8.995076652594827"><ele>156.0</ele><time>2026-04-25T09:35:07.002Z</time></trkpt><trkpt lat="44.453604277557766" lon="8.995068828930284"><ele>156.0</ele><time>2026-04-25T09:35:11.002Z</time></trkpt><trkpt lat="44.453518014947754" lon="8.995070942365558"><ele>156.0</ele><time>2026-04-25T09:35:15.002Z</time></trkpt><trkpt lat="44.4534251335752" lon="8.995063221676965"><ele>156.0</ele><time>2026-04-25T09:35:18.002Z</time></trkpt><trkpt lat="44.453362133308154" lon="8.995053974209581"><ele>156.0</ele><time>2026-04-25T09:35:20.002Z</time></trkpt><trkpt lat="44.453272379507894" lon="8.995038810599107"><ele>156.0</ele><time>2026-04-25T09:35:23.002Z</time></trkpt><trkpt lat="44.45320285578864" lon="8.995052775847762"><ele>156.0</ele><time>2026-04-25T09:35:26.003Z</time></trkpt><trkpt lat="44.45313113620124" lon="8.995067987380219"><ele>156.0</ele><time>2026-04-25T09:35:29.003Z</time></trkpt><trkpt lat="44.45304237758798" lon="8.99509965599861"><ele>156.0</ele><time>2026-04-25T09:35:32.003Z</time></trkpt><trkpt lat="44.45297043430866" lon="8.995106365015353"><ele>152.5</ele><time>2026-04-25T09:35:34.003Z</time></trkpt><trkpt lat="44.45288346109976" lon="8.995127158181331"><ele>149.0</ele><time>2026-04-25T09:35:37.003Z</time></trkpt><trkpt lat="44.45280798336347" lon="8.995108308900752"><ele>145.5</ele><time>2026-04-25T09:35:42.003Z</time></trkpt><trkpt lat="44.4527298533735" lon="8.995105404380512"><ele>142.0</ele><time>2026-04-25T09:35:45.003Z</time></trkpt><trkpt lat="44.452638760823675" lon="8.995092924675777"><ele>138.5</ele><time>2026-04-25T09:35:49.003Z</time></trkpt><trkpt lat="44.45257220286026" lon="8.9950587217705"><ele>135.0</ele><time>2026-04-25T09:35:52.003Z</time></trkpt><trkpt lat="44.45251165861482" lon="8.995026706786371"><ele>135.0</ele><time>2026-04-25T09:35:55.003Z</time></trkpt><trkpt lat="44.45244132310062" lon="8.995009642768334"><ele>135.0</ele><time>2026-04-25T09:35:57.999Z</time></trkpt><trkpt lat="44.45236898114413" lon="8.995016389622386"><ele>135.0</ele><time>2026-04-25T09:36:00.999Z</time></trkpt><trkpt lat="44.45230346597913" lon="8.995021372099721"><ele>135.0</ele><time>2026-04-25T09:36:03.999Z</time></trkpt><trkpt lat="44.45223820834729" lon="8.994996391905303"><ele>135.0</ele><time>2026-04-25T09:36:08.999Z</time></trkpt><trkpt lat="44.45219476817026" lon="8.994924531874554"><ele>135.0</ele><time>2026-04-25T09:36:14Z</time></trkpt><trkpt lat="44.452134445132884" lon="8.994877291933001"><ele>135.0</ele><time>2026-04-25T09:36:17Z</time></trkpt><trkpt lat="44.452073677402325" lon="8.994813797432226"><ele>135.85714285714286</ele><time>2026-04-25T09:36:20Z</time></trkpt><trkpt lat="44.452044868532994" lon="8.994727560317648"><ele>136.7142857142857</ele><time>2026-04-25T09:36:23Z</time></trkpt><trkpt lat="44.452022028128845" lon="8.994640175021386"><ele>137.57142857142856</ele><time>2026-04-25T09:36:26Z</time></trkpt><trkpt lat="44.451996576419994" lon="8.994556571476414"><ele>138.42857142857142</ele><time>2026-04-25T09:36:29Z</time></trkpt><trkpt lat="44.45198167132521" lon="8.994453773977103"><ele>139.28571428571428</ele><time>2026-04-25T09:36:32Z</time></trkpt><trkpt lat="44.45204266278308" lon="8.99437335398819"><ele>140.14285714285714</ele><time>2026-04-25T09:36:35.001Z</time></trkpt><trkpt lat="44.4521216753661" lon="8.994349396155174"><ele>141.0</ele><time>2026-04-25T09:36:38.001Z</time></trkpt><trkpt lat="44.452210542037584" lon="8.994349165741694"><ele>141.0</ele><time>2026-04-25T09:36:41.001Z</time></trkpt><trkpt lat="44.45229813095648" lon="8.994338940026738"><ele>141.0</ele><time>2026-04-25T09:36:44.001Z</time></trkpt><trkpt lat="44.45238501123955" lon="8.994340287780663"><ele>141.0</ele><time>2026-04-25T09:36:47.001Z</time></trkpt><trkpt lat="44.452470179316876" lon="8.994350094122213"><ele>141.0</ele><time>2026-04-25T09:36:50.001Z</time></trkpt><trkpt lat="44.45253357604665" lon="8.99435513179194"><ele>141.0</ele><time>2026-04-25T09:36:52.001Z</time></trkpt><trkpt lat="44.45262370397542" lon="8.994350576182105"><ele>141.0</ele><time>2026-04-25T09:36:55.001Z</time></trkpt><trkpt lat="44.45268673865117" lon="8.99431699999446"><ele>141.0</ele><time>2026-04-25T09:36:57.001Z</time></trkpt><trkpt lat="44.452755426657454" lon="8.994312683562836"><ele>141.0</ele><time>2026-04-25T09:36:59.001Z</time></trkpt><trkpt lat="44.452826832751576" lon="8.994291923088301"><ele>141.0</ele><time>2026-04-25T09:37:01.001Z</time></trkpt><trkpt lat="44.45292804614895" lon="8.994245191574787"><ele>141.0</ele><time>2026-04-25T09:37:04.002Z</time></trkpt><trkpt lat="44.453029474922744" lon="8.994193447663502"><ele>141.0</ele><time>2026-04-25T09:37:07.002Z</time></trkpt><trkpt lat="44.45309185191946" lon="8.994164856353601"><ele>141.0</ele><time>2026-04-25T09:37:09.002Z</time></trkpt><trkpt lat="44.45317455468614" lon="8.99414137340327"><ele>140.83333333333334</ele><time>2026-04-25T09:37:11.002Z</time></trkpt><trkpt lat="44.4532513220606" lon="8.994105521784526"><ele>140.66666666666666</ele><time>2026-04-25T09:37:13.002Z</time></trkpt><trkpt lat="44.45331960313654" lon="8.994063340096359"><ele>140.5</ele><time>2026-04-25T09:37:15.002Z</time></trkpt><trkpt lat="44.45339721337662" lon="8.993999576204645"><ele>140.33333333333331</ele><time>2026-04-25T09:37:17.002Z</time></trkpt><trkpt lat="44.45346099868315" lon="8.993928005029415"><ele>140.16666666666666</ele><time>2026-04-25T09:37:19.002Z</time></trkpt><trkpt lat="44.453532441181295" lon="8.993868526432216"><ele>140.0</ele><time>2026-04-25T09:37:21.002Z</time></trkpt><trkpt lat="44.45360425150578" lon="8.993809301125273"><ele>140.0</ele><time>2026-04-25T09:37:23.002Z</time></trkpt><trkpt lat="44.453678217359744" lon="8.993779901026315"><ele>140.0</ele><time>2026-04-25T09:37:25.002Z</time></trkpt><trkpt lat="44.45376772748686" lon="8.993768449021099"><ele>140.0</ele><time>2026-04-25T09:37:28.002Z</time></trkpt><trkpt lat="44.453843759251775" lon="8.993794404604106"><ele>140.0</ele><time>2026-04-25T09:37:31.002Z</time></trkpt><trkpt lat="44.45390217403648" lon="8.993738993892391"><ele>140.0</ele><time>2026-04-25T09:37:34.002Z</time></trkpt><trkpt lat="44.453902955881446" lon="8.993624357087027"><ele>140.0</ele><time>2026-04-25T09:37:37.003Z</time></trkpt><trkpt lat="44.453856092817" lon="8.993537752531122"><ele>142.42857142857142</ele><time>2026-04-25T09:37:41.003Z</time></trkpt><trkpt lat="44.453819663217395" lon="8.993456589158589"><ele>144.85714285714286</ele><time>2026-04-25T09:37:46.003Z</time></trkpt><trkpt lat="44.4538015463975" lon="8.993360668963835"><ele>147.28571428571428</ele><time>2026-04-25T09:38:03.999Z</time></trkpt><trkpt lat="44.453796087220454" lon="8.99323989982746"><ele>149.71428571428572</ele><time>2026-04-25T09:41:44.003Z</time></trkpt><trkpt lat="44.45374019895122" lon="8.99319515088851"><ele>152.14285714285714</ele><time>2026-04-25T09:41:50.003Z</time></trkpt><trkpt lat="44.45369003373135" lon="8.993139575846243"><ele>154.57142857142856</ele><time>2026-04-25T09:41:58.003Z</time></trkpt><trkpt lat="44.45370080101953" lon="8.993047683264699"><ele>157.0</ele><time>2026-04-25T09:42:07.003Z</time></trkpt><trkpt lat="44.45376186860475" lon="8.993010666968654"><ele>156.99999999999997</ele><time>2026-04-25T09:42:14.003Z</time></trkpt><trkpt lat="44.45381908601481" lon="8.992958518002252"><ele>157.0</ele><time>2026-04-25T09:42:21.999Z</time></trkpt><trkpt lat="44.453884357115875" lon="8.992948228786846"><ele>157.0</ele><time>2026-04-25T09:42:30Z</time></trkpt><trkpt lat="44.453942957124504" lon="8.992899134609338"><ele>157.0</ele><time>2026-04-25T09:42:49.001Z</time></trkpt><trkpt lat="44.45397814268808" lon="8.992819816188005"><ele>157.0</ele><time>2026-04-25T09:43:50.002Z</time></trkpt><trkpt lat="44.45401029696129" lon="8.992740637057272"><ele>156.99999999999997</ele><time>2026-04-25T09:44:08.003Z</time></trkpt><trkpt lat="44.45403701139468" lon="8.992640535397378"><ele>157.0</ele><time>2026-04-25T09:44:11.003Z</time></trkpt><trkpt lat="44.45407128854552" lon="8.992541111228078"><ele>154.33333333333334</ele><time>2026-04-25T09:44:14.003Z</time></trkpt><trkpt lat="44.45409216998145" lon="8.992436676403502"><ele>151.66666666666669</ele><time>2026-04-25T09:44:17.003Z</time></trkpt><trkpt lat="44.454115411008516" lon="8.992325701916155"><ele>149.0</ele><time>2026-04-25T09:44:20.003Z</time></trkpt><trkpt lat="44.45411130268842" lon="8.992214351222007"><ele>146.33333333333334</ele><time>2026-04-25T09:44:22.999Z</time></trkpt><trkpt lat="44.45411977866933" lon="8.992105873087525"><ele>143.66666666666666</ele><time>2026-04-25T09:44:25.999Z</time></trkpt><trkpt lat="44.45413871391084" lon="8.991978961013507"><ele>141.0</ele><time>2026-04-25T09:44:28.999Z</time></trkpt><trkpt lat="44.454161608219955" lon="8.991850427998601"><ele>141.0</ele><time>2026-04-25T09:44:31.999Z</time></trkpt><trkpt lat="44.454190857485344" lon="8.991758844328748"><ele>141.0</ele><time>2026-04-25T09:44:35Z</time></trkpt><trkpt lat="44.45424133028754" lon="8.991672562731168"><ele>141.0</ele><time>2026-04-25T09:44:38Z</time></trkpt><trkpt lat="44.454324612172584" lon="8.99163913811949"><ele>141.0</ele><time>2026-04-25T09:44:41Z</time></trkpt><trkpt lat="44.454409676975075" lon="8.991661767003928"><ele>141.0</ele><time>2026-04-25T09:44:44Z</time></trkpt><trkpt lat="44.45446541669213" lon="8.99170627212608"><ele>141.0</ele><time>2026-04-25T09:44:46Z</time></trkpt><trkpt lat="44.4545455297796" lon="8.991733680917914"><ele>141.0</ele><time>2026-04-25T09:44:49Z</time></trkpt><trkpt lat="44.45461737406175" lon="8.9917236966354"><ele>141.0</ele><time>2026-04-25T09:44:52Z</time></trkpt><trkpt lat="44.45469161702669" lon="8.99170999399215"><ele>141.0</ele><time>2026-04-25T09:44:55Z</time></trkpt><trkpt lat="44.45477954342014" lon="8.991692252977828"><ele>141.0</ele><time>2026-04-25T09:44:58.001Z</time></trkpt><trkpt lat="44.45486067913922" lon="8.991684366869007"><ele>141.0</ele><time>2026-04-25T09:45:01.001Z</time></trkpt><trkpt lat="44.45492481964938" lon="8.991677473122863"><ele>141.0</ele><time>2026-04-25T09:45:03.001Z</time></trkpt><trkpt lat="44.454991304526594" lon="8.991660361488574"><ele>141.0</ele><time>2026-04-25T09:45:05.001Z</time></trkpt><trkpt lat="44.45505348532592" lon="8.991628326454398"><ele>142.57142857142858</ele><time>2026-04-25T09:45:07.001Z</time></trkpt><trkpt lat="44.455117790443126" lon="8.991589185970437"><ele>144.14285714285714</ele><time>2026-04-25T09:45:09.001Z</time></trkpt><trkpt lat="44.455185329871746" lon="8.991553564907754"><ele>145.71428571428572</ele><time>2026-04-25T09:45:13.001Z</time></trkpt><trkpt lat="44.45520588429128" lon="8.991463503152456"><ele>147.28571428571428</ele><time>2026-04-25T09:45:18.001Z</time></trkpt><trkpt lat="44.45513788742911" lon="8.991395244333757"><ele>148.85714285714286</ele><time>2026-04-25T09:45:22.001Z</time></trkpt><trkpt lat="44.45508340491021" lon="8.991322224058422"><ele>150.42857142857142</ele><time>2026-04-25T09:45:24.001Z</time></trkpt><trkpt lat="44.45504958811944" lon="8.991235279614612"><ele>152.0</ele><time>2026-04-25T09:45:26.002Z</time></trkpt><trkpt lat="44.455019043932964" lon="8.99114653831549"><ele>152.0</ele><time>2026-04-25T09:45:28.002Z</time></trkpt><trkpt lat="44.45498313144895" lon="8.991053517267664"><ele>152.0</ele><time>2026-04-25T09:45:30.002Z</time></trkpt><trkpt lat="44.45494967625136" lon="8.990978429897885"><ele>152.0</ele><time>2026-04-25T09:45:32.002Z</time></trkpt><trkpt lat="44.45490923509202" lon="8.990857035022803"><ele>152.0</ele><time>2026-04-25T09:45:35.002Z</time></trkpt><trkpt lat="44.45488301807114" lon="8.99077360600844"><ele>152.0</ele><time>2026-04-25T09:45:37.002Z</time></trkpt><trkpt lat="44.454876134225145" lon="8.99066789697546"><ele>152.0</ele><time>2026-04-25T09:45:39.002Z</time></trkpt><trkpt lat="44.45487609544073" lon="8.990564792657384"><ele>152.0</ele><time>2026-04-25T09:45:41.002Z</time></trkpt><trkpt lat="44.45485502034" lon="8.990472829058918"><ele>150.7142857142857</ele><time>2026-04-25T09:45:43.002Z</time></trkpt><trkpt lat="44.45483881331101" lon="8.99038398994015"><ele>149.42857142857144</ele><time>2026-04-25T09:45:45.002Z</time></trkpt><trkpt lat="44.45486415234761" lon="8.99028816064832"><ele>148.14285714285714</ele><time>2026-04-25T09:45:47.002Z</time></trkpt><trkpt lat="44.45489425048296" lon="8.99018572429687"><ele>146.85714285714283</ele><time>2026-04-25T09:45:49.002Z</time></trkpt><trkpt lat="44.454920030084146" lon="8.990094656477112"><ele>145.57142857142856</ele><time>2026-04-25T09:45:51.002Z</time></trkpt><trkpt lat="44.45495633995681" lon="8.990015636015041"><ele>144.28571428571428</ele><time>2026-04-25T09:45:53.002Z</time></trkpt><trkpt lat="44.45501423357588" lon="8.989950284968751"><ele>143.0</ele><time>2026-04-25T09:45:55.002Z</time></trkpt><trkpt lat="44.455073741431654" lon="8.989878555748769"><ele>141.28571428571428</ele><time>2026-04-25T09:45:57.002Z</time></trkpt><trkpt lat="44.45513486836744" lon="8.989818715440752"><ele>139.57142857142856</ele><time>2026-04-25T09:45:59.003Z</time></trkpt><trkpt lat="44.455191855178455" lon="8.989758594470283"><ele>137.85714285714286</ele><time>2026-04-25T09:46:01.003Z</time></trkpt><trkpt lat="44.45523214343101" lon="8.989677172500881"><ele>136.14285714285714</ele><time>2026-04-25T09:46:03.003Z</time></trkpt><trkpt lat="44.455264263807656" lon="8.989582296080084"><ele>134.42857142857144</ele><time>2026-04-25T09:46:05.003Z</time></trkpt><trkpt lat="44.455289733845234" lon="8.989489326546147"><ele>132.71428571428572</ele><time>2026-04-25T09:46:07.003Z</time></trkpt><trkpt lat="44.45531545943934" lon="8.989402464159655"><ele>131.0</ele><time>2026-04-25T09:46:09.003Z</time></trkpt><trkpt lat="44.45535166786553" lon="8.98931076637437"><ele>131.0</ele><time>2026-04-25T09:46:11.003Z</time></trkpt><trkpt lat="44.4553933594809" lon="8.9892139437678"><ele>131.0</ele><time>2026-04-25T09:46:13.003Z</time></trkpt><trkpt lat="44.45542889797147" lon="8.989111790936223"><ele>131.0</ele><time>2026-04-25T09:46:15.003Z</time></trkpt><trkpt lat="44.45546165784413" lon="8.989001497985855"><ele>131.0</ele><time>2026-04-25T09:46:17.003Z</time></trkpt><trkpt lat="44.455477208314605" lon="8.98888250614682"><ele>131.0</ele><time>2026-04-25T09:46:19.003Z</time></trkpt><trkpt lat="44.455496659696216" lon="8.9887663148608"><ele>131.0</ele><time>2026-04-25T09:46:21.003Z</time></trkpt><trkpt lat="44.455510345645436" lon="8.988643840285793"><ele>132.0</ele><time>2026-04-25T09:46:23.003Z</time></trkpt><trkpt lat="44.455521645630995" lon="8.988540773260846"><ele>133.0</ele><time>2026-04-25T09:46:25.003Z</time></trkpt><trkpt lat="44.4555239674065" lon="8.988435767134739"><ele>134.0</ele><time>2026-04-25T09:46:26.999Z</time></trkpt><trkpt lat="44.45552814553896" lon="8.988340037761498"><ele>135.0</ele><time>2026-04-25T09:46:28.999Z</time></trkpt><trkpt lat="44.45553067333053" lon="8.988223241613088"><ele>136.0</ele><time>2026-04-25T09:46:31.999Z</time></trkpt><trkpt lat="44.45551412074574" lon="8.988099804092473"><ele>137.0</ele><time>2026-04-25T09:46:35Z</time></trkpt><trkpt lat="44.45549667192168" lon="8.987970002029899"><ele>137.0</ele><time>2026-04-25T09:46:38Z</time></trkpt><trkpt lat="44.45552748221499" lon="8.987880886953151"><ele>137.0</ele><time>2026-04-25T09:46:40Z</time></trkpt><trkpt lat="44.455588120998975" lon="8.987816944606308"><ele>137.0</ele><time>2026-04-25T09:46:42Z</time></trkpt><trkpt lat="44.4556435103095" lon="8.98774470520411"><ele>137.0</ele><time>2026-04-25T09:46:44Z</time></trkpt><trkpt lat="44.455704380302386" lon="8.987693285446017"><ele>137.0</ele><time>2026-04-25T09:46:46Z</time></trkpt><trkpt lat="44.455779963290965" lon="8.987628007834388"><ele>137.0</ele><time>2026-04-25T09:46:49Z</time></trkpt><trkpt lat="44.45584426645346" lon="8.987586793723468"><ele>137.00000000000003</ele><time>2026-04-25T09:46:51Z</time></trkpt><trkpt lat="44.455903558143596" lon="8.987540621296905"><ele>137.0</ele><time>2026-04-25T09:46:53Z</time></trkpt><trkpt lat="44.455975521149696" lon="8.987491293336905"><ele>137.0</ele><time>2026-04-25T09:46:55Z</time></trkpt><trkpt lat="44.456033495518675" lon="8.987430876928421"><ele>137.0</ele><time>2026-04-25T09:46:57Z</time></trkpt><trkpt lat="44.45609693542836" lon="8.987384148666177"><ele>137.0</ele><time>2026-04-25T09:46:59Z</time></trkpt><trkpt lat="44.45614458244636" lon="8.987317669108224"><ele>137.00000000000003</ele><time>2026-04-25T09:47:01Z</time></trkpt><trkpt lat="44.45618471974226" lon="8.987248492090787"><ele>137.0</ele><time>2026-04-25T09:47:03Z</time></trkpt><trkpt lat="44.45625119662833" lon="8.987154493034366"><ele>137.5</ele><time>2026-04-25T09:47:06Z</time></trkpt><trkpt lat="44.45632015183793" lon="8.98707318021248"><ele>138.0</ele><time>2026-04-25T09:47:09Z</time></trkpt><trkpt lat="44.45639491576973" lon="8.987038935344223"><ele>138.5</ele><time>2026-04-25T09:47:12Z</time></trkpt><trkpt lat="44.456481015874914" lon="8.98700439263073"><ele>139.0</ele><time>2026-04-25T09:47:16Z</time></trkpt><trkpt lat="44.45654254840478" lon="8.986981644270163"><ele>139.5</ele><time>2026-04-25T09:47:18Z</time></trkpt><trkpt lat="44.45660647325149" lon="8.986943738742845"><ele>140.0</ele><time>2026-04-25T09:47:20Z</time></trkpt><trkpt lat="44.45668743186808" lon="8.986886041011491"><ele>140.0</ele><time>2026-04-25T09:47:23Z</time></trkpt><trkpt lat="44.45676263599448" lon="8.986853499054446"><ele>140.0</ele><time>2026-04-25T09:47:26Z</time></trkpt><trkpt lat="44.456825511814955" lon="8.986821363595414"><ele>140.0</ele><time>2026-04-25T09:47:28Z</time></trkpt><trkpt lat="44.45687949879837" lon="8.98675168605795"><ele>140.0</ele><time>2026-04-25T09:47:30Z</time></trkpt><trkpt lat="44.45692554834604" lon="8.98668882121289"><ele>140.0</ele><time>2026-04-25T09:47:32Z</time></trkpt><trkpt lat="44.45696514293073" lon="8.986615380398137"><ele>140.0</ele><time>2026-04-25T09:47:34Z</time></trkpt><trkpt lat="44.45701511863598" lon="8.986543667908752"><ele>140.0</ele><time>2026-04-25T09:47:36Z</time></trkpt><trkpt lat="44.45707207769221" lon="8.986445121692803"><ele>139.66666666666666</ele><time>2026-04-25T09:47:39Z</time></trkpt><trkpt lat="44.457132203260706" lon="8.986350600722089"><ele>139.33333333333331</ele><time>2026-04-25T09:47:42.001Z</time></trkpt><trkpt lat="44.45719935154003" lon="8.98626594989122"><ele>139.0</ele><time>2026-04-25T09:47:45.001Z</time></trkpt><trkpt lat="44.457261551556044" lon="8.986182182718254"><ele>138.66666666666666</ele><time>2026-04-25T09:47:48.001Z</time></trkpt><trkpt lat="44.45733989916566" lon="8.986153840310353"><ele>138.33333333333334</ele><time>2026-04-25T09:47:51.001Z</time></trkpt><trkpt lat="44.457410880212024" lon="8.986130718900357"><ele>138.0</ele><time>2026-04-25T09:47:54.001Z</time></trkpt><trkpt lat="44.457475099115776" lon="8.986146041329047"><ele>138.0</ele><time>2026-04-25T09:47:57.001Z</time></trkpt><trkpt lat="44.45754904950976" lon="8.986197140915605"><ele>138.0</ele><time>2026-04-25T09:48:00.001Z</time></trkpt><trkpt lat="44.45761520066852" lon="8.986213037689774"><ele>138.0</ele><time>2026-04-25T09:48:03.001Z</time></trkpt><trkpt lat="44.45766286197803" lon="8.98627521351274"><ele>138.0</ele><time>2026-04-25T09:48:06.001Z</time></trkpt><trkpt lat="44.45768035777311" lon="8.986361332271636"><ele>138.0</ele><time>2026-04-25T09:48:10.001Z</time></trkpt><trkpt lat="44.457636916527065" lon="8.98646254730873"><ele>138.0</ele><time>2026-04-25T09:48:14.001Z</time></trkpt><trkpt lat="44.45757555874278" lon="8.986504782914368"><ele>138.0</ele><time>2026-04-25T09:48:17.001Z</time></trkpt><trkpt lat="44.457507887247125" lon="8.986567456967522"><ele>140.6</ele><time>2026-04-25T09:48:20.001Z</time></trkpt><trkpt lat="44.45747781703121" lon="8.98671296321649"><ele>143.20000000000002</ele><time>2026-04-25T09:48:24.001Z</time></trkpt><trkpt lat="44.45743278158255" lon="8.986800647488193"><ele>145.8</ele><time>2026-04-25T09:48:27.001Z</time></trkpt><trkpt lat="44.457367213890954" lon="8.986949541497772"><ele>148.4</ele><time>2026-04-25T09:48:29.001Z</time></trkpt><trkpt lat="44.45733236768741" lon="8.987032622878454"><ele>151.0</ele><time>2026-04-25T09:48:35.997Z</time></trkpt><trkpt lat="44.45728885962202" lon="8.987117588248653"><ele>151.0</ele><time>2026-04-25T09:48:39.997Z</time></trkpt><trkpt lat="44.457244134188954" lon="8.987196388510187"><ele>151.0</ele><time>2026-04-25T09:48:42.998Z</time></trkpt><trkpt lat="44.45719735305929" lon="8.987281088030151"><ele>151.0</ele><time>2026-04-25T09:48:45.998Z</time></trkpt><trkpt lat="44.45714971571286" lon="8.987362622999719"><ele>151.0</ele><time>2026-04-25T09:48:48.999Z</time></trkpt><trkpt lat="44.4570981187051" lon="8.987449294390174"><ele>151.0</ele><time>2026-04-25T09:48:51.999Z</time></trkpt><trkpt lat="44.45703645884352" lon="8.987526960953593"><ele>151.0</ele><time>2026-04-25T09:48:54.999Z</time></trkpt><trkpt lat="44.45698202943957" lon="8.987604649665116"><ele>150.42857142857144</ele><time>2026-04-25T09:48:58Z</time></trkpt><trkpt lat="44.45693727155797" lon="8.98768870174029"><ele>149.85714285714286</ele><time>2026-04-25T09:49:01Z</time></trkpt><trkpt lat="44.456896858719105" lon="8.987768989435624"><ele>149.28571428571428</ele><time>2026-04-25T09:49:04Z</time></trkpt><trkpt lat="44.456840384662165" lon="8.98783298030543"><ele>148.71428571428572</ele><time>2026-04-25T09:49:07Z</time></trkpt><trkpt lat="44.456795542152086" lon="8.987911708020837"><ele>148.14285714285714</ele><time>2026-04-25T09:49:10Z</time></trkpt><trkpt lat="44.4567566062127" lon="8.987982200881499"><ele>147.57142857142858</ele><time>2026-04-25T09:49:13.001Z</time></trkpt><trkpt lat="44.45671285348091" lon="8.988048505830447"><ele>147.0</ele><time>2026-04-25T09:49:16.001Z</time></trkpt><trkpt lat="44.45666562021339" lon="8.988134243698163"><ele>147.0</ele><time>2026-04-25T09:49:20.001Z</time></trkpt><trkpt lat="44.45661245157457" lon="8.98820758935235"><ele>147.0</ele><time>2026-04-25T09:49:23.001Z</time></trkpt><trkpt lat="44.45657629213081" lon="8.988283931506167"><ele>147.0</ele><time>2026-04-25T09:49:26.001Z</time></trkpt><trkpt lat="44.45653339486122" lon="8.988372232253083"><ele>147.0</ele><time>2026-04-25T09:49:30.001Z</time></trkpt><trkpt lat="44.45648327893823" lon="8.988459053521385"><ele>147.0</ele><time>2026-04-25T09:49:35.001Z</time></trkpt><trkpt lat="44.456433243356784" lon="8.988537091462689"><ele>147.0</ele><time>2026-04-25T09:49:40.002Z</time></trkpt><trkpt lat="44.456390028485096" lon="8.988620408160502"><ele>147.0</ele><time>2026-04-25T09:49:45.002Z</time></trkpt><trkpt lat="44.456338807508416" lon="8.988681181857904"><ele>146.85714285714286</ele><time>2026-04-25T09:49:49.002Z</time></trkpt><trkpt lat="44.45629194836984" lon="8.988755874151593"><ele>146.71428571428572</ele><time>2026-04-25T09:49:53.002Z</time></trkpt><trkpt lat="44.45624105851098" lon="8.988827310191004"><ele>146.57142857142856</ele><time>2026-04-25T09:49:57.002Z</time></trkpt><trkpt lat="44.45627796073125" lon="8.98875584614083"><ele>146.42857142857144</ele><time>2026-04-25T09:59:57.001Z</time></trkpt><trkpt lat="44.456317520762745" lon="8.988684036042306"><ele>146.28571428571428</ele><time>2026-04-25T10:00:01.001Z</time></trkpt><trkpt lat="44.456370328129246" lon="8.988618119041194"><ele>146.14285714285714</ele><time>2026-04-25T10:00:05.001Z</time></trkpt><trkpt lat="44.4564280755512" lon="8.988539006031358"><ele>146.0</ele><time>2026-04-25T10:00:08.001Z</time></trkpt><trkpt lat="44.45650685089692" lon="8.988443656998912"><ele>146.16666666666666</ele><time>2026-04-25T10:00:10.002Z</time></trkpt><trkpt lat="44.456555095180924" lon="8.98836829797597"><ele>146.33333333333331</ele><time>2026-04-25T10:00:12.002Z</time></trkpt><trkpt lat="44.456607424446425" lon="8.988284733908479"><ele>146.5</ele><time>2026-04-25T10:00:14.002Z</time></trkpt><trkpt lat="44.45665481085568" lon="8.988190199449424"><ele>146.66666666666666</ele><time>2026-04-25T10:00:16.002Z</time></trkpt><trkpt lat="44.45670432588093" lon="8.98809497938204"><ele>146.83333333333334</ele><time>2026-04-25T10:00:18.002Z</time></trkpt><trkpt lat="44.45677119577632" lon="8.988005913547132"><ele>147.0</ele><time>2026-04-25T10:00:20.002Z</time></trkpt><trkpt lat="44.45683160485227" lon="8.987890226953214"><ele>147.0</ele><time>2026-04-25T10:00:22.002Z</time></trkpt><trkpt lat="44.45689669866778" lon="8.987786240414087"><ele>147.0</ele><time>2026-04-25T10:00:24.002Z</time></trkpt><trkpt lat="44.45696401117227" lon="8.98764302092547"><ele>147.0</ele><time>2026-04-25T10:00:26.002Z</time></trkpt><trkpt lat="44.457045070339674" lon="8.987518067451782"><ele>147.0</ele><time>2026-04-25T10:00:28.002Z</time></trkpt><trkpt lat="44.45712293715261" lon="8.987391512689411"><ele>147.66666666666666</ele><time>2026-04-25T10:00:30.002Z</time></trkpt><trkpt lat="44.45716321092619" lon="8.987312984047142"><ele>148.33333333333334</ele><time>2026-04-25T10:00:31.002Z</time></trkpt><trkpt lat="44.45722957786143" lon="8.987207428915202"><ele>149.0</ele><time>2026-04-25T10:00:33.002Z</time></trkpt><trkpt lat="44.45730537162433" lon="8.987108077354428"><ele>149.66666666666669</ele><time>2026-04-25T10:00:35.002Z</time></trkpt><trkpt lat="44.4573742445871" lon="8.987028393122253"><ele>150.33333333333334</ele><time>2026-04-25T10:00:37.002Z</time></trkpt><trkpt lat="44.457437178016974" lon="8.986967766417155"><ele>151.0</ele><time>2026-04-25T10:00:39.002Z</time></trkpt><trkpt lat="44.4575160160988" lon="8.98690196207881"><ele>151.0</ele><time>2026-04-25T10:00:42.002Z</time></trkpt><trkpt lat="44.45758879133436" lon="8.986825411898392"><ele>151.0</ele><time>2026-04-25T10:00:45.003Z</time></trkpt><trkpt lat="44.45764945975674" lon="8.986769284981277"><ele>151.0</ele><time>2026-04-25T10:00:47.003Z</time></trkpt><trkpt lat="44.45771190324883" lon="8.986716369656449"><ele>151.0</ele><time>2026-04-25T10:00:49.003Z</time></trkpt><trkpt lat="44.45778098115539" lon="8.986657296700212"><ele>151.0</ele><time>2026-04-25T10:00:51.003Z</time></trkpt><trkpt lat="44.45785862250624" lon="8.986610693163053"><ele>151.0</ele><time>2026-04-25T10:00:53.003Z</time></trkpt><trkpt lat="44.4579359813724" lon="8.98656647479548"><ele>151.16666666666669</ele><time>2026-04-25T10:00:55.003Z</time></trkpt><trkpt lat="44.45801392056965" lon="8.986512685104143"><ele>151.33333333333334</ele><time>2026-04-25T10:00:57.003Z</time></trkpt><trkpt lat="44.45806881621772" lon="8.986449552859984"><ele>151.5</ele><time>2026-04-25T10:00:59.003Z</time></trkpt><trkpt lat="44.458107119684136" lon="8.98635675329107"><ele>151.66666666666666</ele><time>2026-04-25T10:01:01.003Z</time></trkpt><trkpt lat="44.45812237918713" lon="8.986256024114688"><ele>151.83333333333331</ele><time>2026-04-25T10:01:03.003Z</time></trkpt><trkpt lat="44.458144676029335" lon="8.986156842711527"><ele>152.0</ele><time>2026-04-25T10:01:05.003Z</time></trkpt><trkpt lat="44.458166909190794" lon="8.986063501118132"><ele>152.0</ele><time>2026-04-25T10:01:08.003Z</time></trkpt><trkpt lat="44.45819442823853" lon="8.985980817350665"><ele>152.0</ele><time>2026-04-25T10:01:10.999Z</time></trkpt><trkpt lat="44.4582286136638" lon="8.985894730887056"><ele>152.0</ele><time>2026-04-25T10:01:14Z</time></trkpt><trkpt lat="44.458269505550355" lon="8.985809241940672"><ele>152.0</ele><time>2026-04-25T10:01:27Z</time></trkpt><trkpt lat="44.45830194823188" lon="8.985730472721423"><ele>152.0</ele><time>2026-04-25T10:01:30Z</time></trkpt><trkpt lat="44.45836045512927" lon="8.985648551053695"><ele>152.0</ele><time>2026-04-25T10:01:33Z</time></trkpt><trkpt lat="44.45839756698738" lon="8.985558119053255"><ele>152.0</ele><time>2026-04-25T10:01:36Z</time></trkpt><trkpt lat="44.458441406646195" lon="8.985480977554285"><ele>150.79999999999998</ele><time>2026-04-25T10:01:43.001Z</time></trkpt><trkpt lat="44.45847884286938" lon="8.985384433247185"><ele>149.6</ele><time>2026-04-25T10:01:47.001Z</time></trkpt><trkpt lat="44.45853881646278" lon="8.985269875470287"><ele>148.39999999999998</ele><time>2026-04-25T10:01:50.001Z</time></trkpt><trkpt lat="44.45858644663503" lon="8.985144527123195"><ele>147.2</ele><time>2026-04-25T10:01:52.001Z</time></trkpt><trkpt lat="44.45863452531908" lon="8.984985903540469"><ele>146.0</ele><time>2026-04-25T10:01:54.001Z</time></trkpt><trkpt lat="44.45867056563522" lon="8.984910411260474"><ele>146.0</ele><time>2026-04-25T10:01:55.001Z</time></trkpt><trkpt lat="44.45874848811288" lon="8.98486022082968"><ele>146.0</ele><time>2026-04-25T10:01:56.001Z</time></trkpt><trkpt lat="44.45877809178463" lon="8.984774757119604"><ele>146.0</ele><time>2026-04-25T10:01:57.001Z</time></trkpt><trkpt lat="44.458807384628756" lon="8.984690540205234"><ele>146.0</ele><time>2026-04-25T10:01:58.001Z</time></trkpt><trkpt lat="44.45884677276491" lon="8.984574919489257"><ele>146.0</ele><time>2026-04-25T10:02:00.001Z</time></trkpt><trkpt lat="44.458869818834266" lon="8.984465045792938"><ele>146.0</ele><time>2026-04-25T10:02:03.001Z</time></trkpt><trkpt lat="44.45890997587431" lon="8.984342774658908"><ele>147.0</ele><time>2026-04-25T10:02:05.001Z</time></trkpt><trkpt lat="44.45896426384961" lon="8.984199666771204"><ele>148.0</ele><time>2026-04-25T10:02:07.001Z</time></trkpt><trkpt lat="44.45900169609973" lon="8.984069442188014"><ele>149.0</ele><time>2026-04-25T10:02:09.001Z</time></trkpt><trkpt lat="44.45907270193402" lon="8.983934640085414"><ele>150.0</ele><time>2026-04-25T10:02:11.002Z</time></trkpt><trkpt lat="44.45910164218657" lon="8.983852808326711"><ele>151.0</ele><time>2026-04-25T10:02:12.002Z</time></trkpt><trkpt lat="44.45915577080019" lon="8.983706195202034"><ele>148.8</ele><time>2026-04-25T10:02:14.002Z</time></trkpt><trkpt lat="44.459193995075545" lon="8.983587457601134"><ele>146.6</ele><time>2026-04-25T10:02:16.002Z</time></trkpt><trkpt lat="44.4592164964371" lon="8.983450094899402"><ele>144.4</ele><time>2026-04-25T10:02:18.002Z</time></trkpt><trkpt lat="44.45920424896622" lon="8.983303798462815"><ele>142.2</ele><time>2026-04-25T10:02:20.002Z</time></trkpt><trkpt lat="44.45916887985422" lon="8.983187811086173"><ele>140.0</ele><time>2026-04-25T10:02:22.002Z</time></trkpt><trkpt lat="44.45912283923102" lon="8.983114654286235"><ele>138.2</ele><time>2026-04-25T10:02:23.002Z</time></trkpt><trkpt lat="44.45904018875495" lon="8.983008547599804"><ele>136.4</ele><time>2026-04-25T10:02:25.002Z</time></trkpt><trkpt lat="44.45894758012992" lon="8.982895884330746"><ele>134.6</ele><time>2026-04-25T10:02:27.002Z</time></trkpt><trkpt lat="44.458878024270064" lon="8.98279728801065"><ele>132.8</ele><time>2026-04-25T10:02:29.002Z</time></trkpt><trkpt lat="44.458796731577564" lon="8.982711662863453"><ele>131.0</ele><time>2026-04-25T10:02:31.002Z</time></trkpt><trkpt lat="44.45869560922962" lon="8.982643572942573"><ele>131.0</ele><time>2026-04-25T10:02:33.002Z</time></trkpt><trkpt lat="44.45860642233492" lon="8.98254825255013"><ele>131.0</ele><time>2026-04-25T10:02:35.002Z</time></trkpt><trkpt lat="44.458532419213896" lon="8.982480448986662"><ele>131.0</ele><time>2026-04-25T10:02:37.002Z</time></trkpt><trkpt lat="44.458475366366585" lon="8.982441326264151"><ele>131.0</ele><time>2026-04-25T10:02:39.002Z</time></trkpt><trkpt lat="44.45840984584656" lon="8.982388372802996"><ele>131.0</ele><time>2026-04-25T10:02:42.002Z</time></trkpt><trkpt lat="44.45834815937302" lon="8.982332799527006"><ele>131.0</ele><time>2026-04-25T10:02:46.003Z</time></trkpt><trkpt lat="44.45827841255062" lon="8.982333328361007"><ele>129.8</ele><time>2026-04-25T10:02:54.003Z</time></trkpt><trkpt lat="44.45820953231436" lon="8.982242724037839"><ele>128.6</ele><time>2026-04-25T10:03:09.003Z</time></trkpt><trkpt lat="44.45811902177706" lon="8.982235646048283"><ele>127.4</ele><time>2026-04-25T10:03:11.003Z</time></trkpt><trkpt lat="44.45800653557114" lon="8.982205977409254"><ele>126.2</ele><time>2026-04-25T10:03:13.003Z</time></trkpt><trkpt lat="44.45788685406686" lon="8.982156471162774"><ele>125.0</ele><time>2026-04-25T10:03:15Z</time></trkpt><trkpt lat="44.45782169131149" lon="8.982148885034222"><ele>123.57142857142857</ele><time>2026-04-25T10:03:16Z</time></trkpt><trkpt lat="44.457756548164" lon="8.982146296379188"><ele>122.14285714285714</ele><time>2026-04-25T10:03:17Z</time></trkpt><trkpt lat="44.45769178814637" lon="8.982130206064499"><ele>120.71428571428571</ele><time>2026-04-25T10:03:18Z</time></trkpt><trkpt lat="44.45762381955571" lon="8.98213082039918"><ele>119.28571428571428</ele><time>2026-04-25T10:03:19Z</time></trkpt><trkpt lat="44.45756424756162" lon="8.982162779942117"><ele>117.85714285714286</ele><time>2026-04-25T10:03:20Z</time></trkpt><trkpt lat="44.45750328461104" lon="8.98220694135334"><ele>116.42857142857142</ele><time>2026-04-25T10:03:21Z</time></trkpt><trkpt lat="44.457442924686276" lon="8.982264278627365"><ele>114.99999999999999</ele><time>2026-04-25T10:03:22Z</time></trkpt><trkpt lat="44.457389296757555" lon="8.982339332477286"><ele>114.99999999999999</ele><time>2026-04-25T10:03:23Z</time></trkpt><trkpt lat="44.45733069252677" lon="8.982395242374736"><ele>115.0</ele><time>2026-04-25T10:03:24Z</time></trkpt><trkpt lat="44.45726955404925" lon="8.982447042928925"><ele>114.99999999999999</ele><time>2026-04-25T10:03:25Z</time></trkpt><trkpt lat="44.45721530066868" lon="8.982505005447182"><ele>114.99999999999999</ele><time>2026-04-25T10:03:26Z</time></trkpt><trkpt lat="44.457152925302495" lon="8.982564969923693"><ele>115.0</ele><time>2026-04-25T10:03:27Z</time></trkpt><trkpt lat="44.457089532069084" lon="8.982623594730732"><ele>114.99999999999999</ele><time>2026-04-25T10:03:28Z</time></trkpt><trkpt lat="44.45702302495467" lon="8.982682152269032"><ele>114.99999999999999</ele><time>2026-04-25T10:03:29Z</time></trkpt><trkpt lat="44.456955782892734" lon="8.982742617312317"><ele>114.42857142857142</ele><time>2026-04-25T10:03:30Z</time></trkpt><trkpt lat="44.45689495244805" lon="8.982802520681428"><ele>113.85714285714286</ele><time>2026-04-25T10:03:31Z</time></trkpt><trkpt lat="44.456830321335445" lon="8.982867149955966"><ele>113.28571428571428</ele><time>2026-04-25T10:03:32Z</time></trkpt><trkpt lat="44.45677523449492" lon="8.982931171668174"><ele>112.71428571428571</ele><time>2026-04-25T10:03:33Z</time></trkpt><trkpt lat="44.4567366910559" lon="8.983004465049556"><ele>112.14285714285714</ele><time>2026-04-25T10:03:34Z</time></trkpt><trkpt lat="44.45671558351123" lon="8.98309371032581"><ele>111.57142857142857</ele><time>2026-04-25T10:03:35Z</time></trkpt><trkpt lat="44.456705977220466" lon="8.983187599838592"><ele>111.0</ele><time>2026-04-25T10:03:36Z</time></trkpt><trkpt lat="44.45668969020928" lon="8.983294397130269"><ele>110.0</ele><time>2026-04-25T10:03:37Z</time></trkpt><trkpt lat="44.456670078254206" lon="8.983401411421724"><ele>109.0</ele><time>2026-04-25T10:03:38Z</time></trkpt><trkpt lat="44.45664665095473" lon="8.983501302033195"><ele>108.0</ele><time>2026-04-25T10:03:39Z</time></trkpt><trkpt lat="44.45660008626421" lon="8.983645440000469"><ele>107.0</ele><time>2026-04-25T10:03:41Z</time></trkpt><trkpt lat="44.45656203097452" lon="8.98375595236605"><ele>106.0</ele><time>2026-04-25T10:03:43Z</time></trkpt><trkpt lat="44.456501342852" lon="8.983820011638715"><ele>105.0</ele><time>2026-04-25T10:03:45.001Z</time></trkpt><trkpt lat="44.45641446545308" lon="8.98380870399767"><ele>105.0</ele><time>2026-04-25T10:03:47.001Z</time></trkpt><trkpt lat="44.45635114187579" lon="8.983703599543775"><ele>105.0</ele><time>2026-04-25T10:03:49.001Z</time></trkpt><trkpt lat="44.45635029698229" lon="8.983539962623562"><ele>105.0</ele><time>2026-04-25T10:03:51.001Z</time></trkpt><trkpt lat="44.45637510355642" lon="8.983449371946021"><ele>105.0</ele><time>2026-04-25T10:03:52.001Z</time></trkpt><trkpt lat="44.456396266110616" lon="8.983359899205576"><ele>105.0</ele><time>2026-04-25T10:03:53.001Z</time></trkpt><trkpt lat="44.45641717758898" lon="8.983263935937542"><ele>105.0</ele><time>2026-04-25T10:03:54.001Z</time></trkpt><trkpt lat="44.456428017381576" lon="8.983169435105992"><ele>105.57142857142857</ele><time>2026-04-25T10:03:55.001Z</time></trkpt><trkpt lat="44.45643562635152" lon="8.983074321476611"><ele>106.14285714285714</ele><time>2026-04-25T10:03:56.001Z</time></trkpt><trkpt lat="44.45642850510945" lon="8.982970356051602"><ele>106.71428571428572</ele><time>2026-04-25T10:03:57.001Z</time></trkpt><trkpt lat="44.456413485623735" lon="8.982876849734517"><ele>107.28571428571428</ele><time>2026-04-25T10:03:58.001Z</time></trkpt><trkpt lat="44.456400531263974" lon="8.9827851736424"><ele>107.85714285714286</ele><time>2026-04-25T10:03:59.001Z</time></trkpt><trkpt lat="44.45639318778851" lon="8.982694027680685"><ele>108.42857142857143</ele><time>2026-04-25T10:04:00.001Z</time></trkpt><trkpt lat="44.45637865216846" lon="8.982606508355392"><ele>109.0</ele><time>2026-04-25T10:04:01.001Z</time></trkpt><trkpt lat="44.45637407505765" lon="8.982438894760232"><ele>109.00000000000001</ele><time>2026-04-25T10:04:03.001Z</time></trkpt><trkpt lat="44.456380592608596" lon="8.98228329270418"><ele>109.0</ele><time>2026-04-25T10:04:05.001Z</time></trkpt><trkpt lat="44.45639269278953" lon="8.982168835190182"><ele>109.0</ele><time>2026-04-25T10:04:07.001Z</time></trkpt><trkpt lat="44.45639629950603" lon="8.982049936633029"><ele>109.0</ele><time>2026-04-25T10:04:10.001Z</time></trkpt><trkpt lat="44.45639056084442" lon="8.981942419033304"><ele>109.00000000000001</ele><time>2026-04-25T10:04:13.001Z</time></trkpt><trkpt lat="44.456398346524225" lon="8.981833874477864"><ele>109.0</ele><time>2026-04-25T10:04:15.001Z</time></trkpt><trkpt lat="44.45641163503103" lon="8.981705015726716"><ele>107.2</ele><time>2026-04-25T10:04:17.001Z</time></trkpt><trkpt lat="44.45640569336624" lon="8.981553583273152"><ele>105.4</ele><time>2026-04-25T10:04:19.002Z</time></trkpt><trkpt lat="44.45642630018736" lon="8.98139563661707"><ele>103.6</ele><time>2026-04-25T10:04:21.002Z</time></trkpt><trkpt lat="44.456496845364526" lon="8.9812466544457"><ele>101.8</ele><time>2026-04-25T10:04:23.002Z</time></trkpt><trkpt lat="44.45655473867649" lon="8.981187637479827"><ele>100.0</ele><time>2026-04-25T10:04:24.002Z</time></trkpt><trkpt lat="44.45661402559313" lon="8.981144475439894"><ele>100.00000000000001</ele><time>2026-04-25T10:04:25.002Z</time></trkpt><trkpt lat="44.45667533880923" lon="8.981102813157717"><ele>100.0</ele><time>2026-04-25T10:04:26.002Z</time></trkpt><trkpt lat="44.45674619034068" lon="8.981080770991596"><ele>100.0</ele><time>2026-04-25T10:04:27.002Z</time></trkpt><trkpt lat="44.45681189065549" lon="8.981042943714098"><ele>100.0</ele><time>2026-04-25T10:04:28.002Z</time></trkpt><trkpt lat="44.456872645320615" lon="8.98100217789941"><ele>100.0</ele><time>2026-04-25T10:04:29.002Z</time></trkpt><trkpt lat="44.45694369916634" lon="8.98097142359069"><ele>100.00000000000001</ele><time>2026-04-25T10:04:30.002Z</time></trkpt><trkpt lat="44.45701349541922" lon="8.98093367604134"><ele>100.0</ele><time>2026-04-25T10:04:31.002Z</time></trkpt><trkpt lat="44.45708847241618" lon="8.980909597636437"><ele>99.16666666666667</ele><time>2026-04-25T10:04:32.002Z</time></trkpt><trkpt lat="44.45716984324785" lon="8.980890317691859"><ele>98.33333333333334</ele><time>2026-04-25T10:04:33.002Z</time></trkpt><trkpt lat="44.45724941849704" lon="8.980878410228067"><ele>97.5</ele><time>2026-04-25T10:04:34.002Z</time></trkpt><trkpt lat="44.45733325778113" lon="8.980858715616954"><ele>96.66666666666667</ele><time>2026-04-25T10:04:35.002Z</time></trkpt><trkpt lat="44.45741602960258" lon="8.980845184354639"><ele>95.83333333333334</ele><time>2026-04-25T10:04:36.002Z</time></trkpt><trkpt lat="44.45749865313072" lon="8.980824983807455"><ele>95.0</ele><time>2026-04-25T10:04:37.002Z</time></trkpt><trkpt lat="44.45758798402267" lon="8.980817629668238"><ele>95.0</ele><time>2026-04-25T10:04:38.002Z</time></trkpt><trkpt lat="44.45766658151714" lon="8.980815856303138"><ele>95.0</ele><time>2026-04-25T10:04:39.002Z</time></trkpt><trkpt lat="44.45774070972915" lon="8.980807899177893"><ele>95.0</ele><time>2026-04-25T10:04:40.002Z</time></trkpt><trkpt lat="44.457816132734244" lon="8.980731776484165"><ele>95.0</ele><time>2026-04-25T10:04:42.002Z</time></trkpt><trkpt lat="44.457784715700285" lon="8.980562238938493"><ele>95.0</ele><time>2026-04-25T10:04:44.002Z</time></trkpt><trkpt lat="44.45770037591295" lon="8.980508924951513"><ele>95.0</ele><time>2026-04-25T10:04:46.002Z</time></trkpt><trkpt lat="44.45760775746612" lon="8.980522055868308"><ele>95.0</ele><time>2026-04-25T10:04:48.002Z</time></trkpt><trkpt lat="44.45752364696318" lon="8.98053347748733"><ele>95.0</ele><time>2026-04-25T10:04:50.002Z</time></trkpt><trkpt lat="44.45745884109043" lon="8.980532671497144"><ele>95.0</ele><time>2026-04-25T10:04:52.003Z</time></trkpt><trkpt lat="44.457376743844364" lon="8.980529384936785"><ele>95.0</ele><time>2026-04-25T10:04:54.003Z</time></trkpt><trkpt lat="44.45728783225813" lon="8.9805167993552"><ele>95.0</ele><time>2026-04-25T10:04:56.003Z</time></trkpt><trkpt lat="44.45719177905587" lon="8.980493028849983"><ele>93.8</ele><time>2026-04-25T10:04:58.003Z</time></trkpt><trkpt lat="44.457105354309135" lon="8.980487719147193"><ele>92.6</ele><time>2026-04-25T10:05:00.003Z</time></trkpt><trkpt lat="44.45701213350405" lon="8.9805022862743"><ele>91.4</ele><time>2026-04-25T10:05:02.003Z</time></trkpt><trkpt lat="44.456928599315084" lon="8.98050618681743"><ele>90.2</ele><time>2026-04-25T10:05:04.003Z</time></trkpt><trkpt lat="44.45681822963526" lon="8.980503865083522"><ele>89.0</ele><time>2026-04-25T10:05:06.003Z</time></trkpt><trkpt lat="44.45669760608907" lon="8.980503191264189"><ele>89.0</ele><time>2026-04-25T10:05:08.003Z</time></trkpt><trkpt lat="44.45658544195328" lon="8.980495652260723"><ele>89.0</ele><time>2026-04-25T10:05:10.003Z</time></trkpt><trkpt lat="44.456487483572694" lon="8.98048021612283"><ele>89.0</ele><time>2026-04-25T10:05:12.003Z</time></trkpt><trkpt lat="44.45637554888104" lon="8.980479654994932"><ele>89.0</ele><time>2026-04-25T10:05:14.003Z</time></trkpt><trkpt lat="44.45626217443921" lon="8.980472295975728"><ele>89.0</ele><time>2026-04-25T10:05:16.003Z</time></trkpt><trkpt lat="44.456148333734546" lon="8.980485121590563"><ele>87.66666666666667</ele><time>2026-04-25T10:05:18.003Z</time></trkpt><trkpt lat="44.45608359519391" lon="8.980508737139047"><ele>86.33333333333334</ele><time>2026-04-25T10:05:19.003Z</time></trkpt><trkpt lat="44.45601831936241" lon="8.980527595950793"><ele>85.0</ele><time>2026-04-25T10:05:20.003Z</time></trkpt><trkpt lat="44.45594280844898" lon="8.980542622116783"><ele>83.66666666666667</ele><time>2026-04-25T10:05:21Z</time></trkpt><trkpt lat="44.45587134529" lon="8.980551812066818"><ele>82.33333333333333</ele><time>2026-04-25T10:05:22Z</time></trkpt><trkpt lat="44.455804879691755" lon="8.980564583448173"><ele>81.0</ele><time>2026-04-25T10:05:23Z</time></trkpt><trkpt lat="44.45569398254926" lon="8.980608371325673"><ele>81.0</ele><time>2026-04-25T10:05:25Z</time></trkpt><trkpt lat="44.455628863882566" lon="8.980626568556586"><ele>81.0</ele><time>2026-04-25T10:05:26Z</time></trkpt><trkpt lat="44.455559286316614" lon="8.980655535148037"><ele>81.0</ele><time>2026-04-25T10:05:27Z</time></trkpt><trkpt lat="44.45545764398459" lon="8.980692456950992"><ele>81.0</ele><time>2026-04-25T10:05:29Z</time></trkpt><trkpt lat="44.45532514706035" lon="8.98072461473036"><ele>81.0</ele><time>2026-04-25T10:05:31Z</time></trkpt><trkpt lat="44.455262638356025" lon="8.980779254282908"><ele>78.6</ele><time>2026-04-25T10:05:32Z</time></trkpt><trkpt lat="44.455148928158785" lon="8.98086077627377"><ele>76.19999999999999</ele><time>2026-04-25T10:05:34Z</time></trkpt><trkpt lat="44.455074550830595" lon="8.980953142331908"><ele>73.80000000000001</ele><time>2026-04-25T10:05:36Z</time></trkpt><trkpt lat="44.454987606040476" lon="8.981044855994082"><ele>71.4</ele><time>2026-04-25T10:05:38Z</time></trkpt><trkpt lat="44.45488458890001" lon="8.98109940853723"><ele>69.0</ele><time>2026-04-25T10:05:40Z</time></trkpt><trkpt lat="44.4547817061094" lon="8.981141668350471"><ele>69.0</ele><time>2026-04-25T10:05:42Z</time></trkpt><trkpt lat="44.45469975034975" lon="8.981173603399888"><ele>69.0</ele><time>2026-04-25T10:05:44Z</time></trkpt><trkpt lat="44.45463243122795" lon="8.981191233034842"><ele>69.0</ele><time>2026-04-25T10:05:47Z</time></trkpt><trkpt lat="44.45454942535036" lon="8.9812054814935"><ele>69.0</ele><time>2026-04-25T10:05:50.001Z</time></trkpt><trkpt lat="44.45448497994645" lon="8.98121977537906"><ele>69.0</ele><time>2026-04-25T10:05:53.001Z</time></trkpt><trkpt lat="44.45441013240141" lon="8.981226026933124"><ele>69.0</ele><time>2026-04-25T10:05:57.001Z</time></trkpt><trkpt lat="44.45435094151437" lon="8.981158202129262"><ele>67.5</ele><time>2026-04-25T10:06:00.001Z</time></trkpt><trkpt lat="44.45434703294857" lon="8.981022166849266"><ele>66.0</ele><time>2026-04-25T10:06:03.001Z</time></trkpt><trkpt lat="44.45433812812063" lon="8.980914615717246"><ele>64.5</ele><time>2026-04-25T10:06:05.001Z</time></trkpt><trkpt lat="44.45433220603467" lon="8.980805012312167"><ele>63.0</ele><time>2026-04-25T10:06:07.001Z</time></trkpt><trkpt lat="44.45430512393959" lon="8.980702413702948"><ele>61.5</ele><time>2026-04-25T10:06:09.001Z</time></trkpt><trkpt lat="44.454279864216225" lon="8.980596475247962"><ele>60.0</ele><time>2026-04-25T10:06:11.001Z</time></trkpt><trkpt lat="44.4542490173917" lon="8.980497734294923"><ele>60.0</ele><time>2026-04-25T10:06:13.001Z</time></trkpt><trkpt lat="44.454219523164475" lon="8.980406057609057"><ele>60.0</ele><time>2026-04-25T10:06:15.001Z</time></trkpt><trkpt lat="44.4542127021122" lon="8.980295393092813"><ele>60.0</ele><time>2026-04-25T10:06:17.001Z</time></trkpt><trkpt lat="44.45419244001697" lon="8.98017605021111"><ele>60.0</ele><time>2026-04-25T10:06:20.001Z</time></trkpt><trkpt lat="44.45419380341512" lon="8.980083216197592"><ele>60.0</ele><time>2026-04-25T10:06:22.001Z</time></trkpt><trkpt lat="44.454210420097745" lon="8.979977104382288"><ele>60.0</ele><time>2026-04-25T10:06:24.002Z</time></trkpt><trkpt lat="44.454186798158815" lon="8.979873920301658"><ele>59.833333333333336</ele><time>2026-04-25T10:06:26.002Z</time></trkpt><trkpt lat="44.4541352526474" lon="8.97978644083751"><ele>59.66666666666667</ele><time>2026-04-25T10:06:28.002Z</time></trkpt><trkpt lat="44.454083659605594" lon="8.97970219338737"><ele>59.5</ele><time>2026-04-25T10:06:30.002Z</time></trkpt><trkpt lat="44.45404656152322" lon="8.979602833458223"><ele>59.333333333333336</ele><time>2026-04-25T10:06:32.002Z</time></trkpt><trkpt lat="44.45402787843478" lon="8.979505088805256"><ele>59.16666666666667</ele><time>2026-04-25T10:06:34.002Z</time></trkpt><trkpt lat="44.45400733004233" lon="8.979384584792141"><ele>59.0</ele><time>2026-04-25T10:06:36.002Z</time></trkpt><trkpt lat="44.45397905038022" lon="8.97926489842142"><ele>59.0</ele><time>2026-04-25T10:06:38.002Z</time></trkpt><trkpt lat="44.453937774789914" lon="8.979142683785122"><ele>59.00000000000001</ele><time>2026-04-25T10:06:40.002Z</time></trkpt><trkpt lat="44.45389990371733" lon="8.979013574175552"><ele>59.00000000000001</ele><time>2026-04-25T10:06:42.002Z</time></trkpt><trkpt lat="44.45384957856037" lon="8.978897484592189"><ele>59.0</ele><time>2026-04-25T10:06:44.002Z</time></trkpt><trkpt lat="44.45379860215633" lon="8.978777905156871"><ele>59.0</ele><time>2026-04-25T10:06:46.002Z</time></trkpt><trkpt lat="44.453737949249536" lon="8.978656910431786"><ele>59.2</ele><time>2026-04-25T10:06:48.002Z</time></trkpt><trkpt lat="44.45368276653797" lon="8.978534039479348"><ele>59.400000000000006</ele><time>2026-04-25T10:06:50.002Z</time></trkpt><trkpt lat="44.45362299532021" lon="8.978407446711902"><ele>59.6</ele><time>2026-04-25T10:06:52.002Z</time></trkpt><trkpt lat="44.453565308096394" lon="8.978280815542012"><ele>59.8</ele><time>2026-04-25T10:06:54.002Z</time></trkpt><trkpt lat="44.45350275803203" lon="8.978150869899121"><ele>60.0</ele><time>2026-04-25T10:06:56.002Z</time></trkpt><trkpt lat="44.45344686401518" lon="8.978030408621532"><ele>60.0</ele><time>2026-04-25T10:06:58.002Z</time></trkpt><trkpt lat="44.45337839654436" lon="8.977919818711431"><ele>60.0</ele><time>2026-04-25T10:07:00.003Z</time></trkpt><trkpt lat="44.4533115743098" lon="8.977796962493558"><ele>60.0</ele><time>2026-04-25T10:07:02.003Z</time></trkpt><trkpt lat="44.45325114553793" lon="8.977672377866496"><ele>60.0</ele><time>2026-04-25T10:07:04.003Z</time></trkpt><trkpt lat="44.45318450480944" lon="8.977551209024242"><ele>60.0</ele><time>2026-04-25T10:07:06.003Z</time></trkpt><trkpt lat="44.45312171563778" lon="8.977429626850077"><ele>59.25</ele><time>2026-04-25T10:07:08.003Z</time></trkpt><trkpt lat="44.45305325906115" lon="8.977311941784588"><ele>58.5</ele><time>2026-04-25T10:07:10.003Z</time></trkpt><trkpt lat="44.452990832656646" lon="8.977176571742689"><ele>57.75</ele><time>2026-04-25T10:07:12.003Z</time></trkpt><trkpt lat="44.45292934880517" lon="8.97703110280255"><ele>57.0</ele><time>2026-04-25T10:07:14.003Z</time></trkpt><trkpt lat="44.45286147585362" lon="8.976898748840146"><ele>57.0</ele><time>2026-04-25T10:07:16.003Z</time></trkpt><trkpt lat="44.45279401980401" lon="8.976767873188557"><ele>57.0</ele><time>2026-04-25T10:07:18.003Z</time></trkpt><trkpt lat="44.45273066895044" lon="8.976643753889817"><ele>57.0</ele><time>2026-04-25T10:07:20.003Z</time></trkpt><trkpt lat="44.45266647411108" lon="8.97651593234101"><ele>57.0</ele><time>2026-04-25T10:07:22.003Z</time></trkpt><trkpt lat="44.4525981208891" lon="8.976397835024091"><ele>57.0</ele><time>2026-04-25T10:07:24.003Z</time></trkpt><trkpt lat="44.45253814245355" lon="8.976265785316643"><ele>56.6</ele><time>2026-04-25T10:07:26.003Z</time></trkpt><trkpt lat="44.452470994226545" lon="8.976145266861266"><ele>56.2</ele><time>2026-04-25T10:07:28.001Z</time></trkpt><trkpt lat="44.45241266677686" lon="8.976024625449265"><ele>55.8</ele><time>2026-04-25T10:07:30.001Z</time></trkpt><trkpt lat="44.452351788376134" lon="8.975907846335467"><ele>55.4</ele><time>2026-04-25T10:07:32.001Z</time></trkpt><trkpt lat="44.452297547105694" lon="8.975791075972754"><ele>55.0</ele><time>2026-04-25T10:07:34.001Z</time></trkpt><trkpt lat="44.45223623110788" lon="8.975681018405243"><ele>54.4</ele><time>2026-04-25T10:07:36.001Z</time></trkpt><trkpt lat="44.452182410520294" lon="8.975567024653232"><ele>53.8</ele><time>2026-04-25T10:07:38.001Z</time></trkpt><trkpt lat="44.45212234924574" lon="8.975470745881017"><ele>53.2</ele><time>2026-04-25T10:07:40.001Z</time></trkpt><trkpt lat="44.45206530511673" lon="8.975364065709808"><ele>52.6</ele><time>2026-04-25T10:07:42.001Z</time></trkpt><trkpt lat="44.452005625122396" lon="8.975267467371895"><ele>52.0</ele><time>2026-04-25T10:07:44.001Z</time></trkpt><trkpt lat="44.4519467813063" lon="8.975145477827459"><ele>52.0</ele><time>2026-04-25T10:07:46.001Z</time></trkpt><trkpt lat="44.451876806953926" lon="8.975047319107372"><ele>52.0</ele><time>2026-04-25T10:07:48.001Z</time></trkpt><trkpt lat="44.45182876725728" lon="8.974933992613291"><ele>52.0</ele><time>2026-04-25T10:07:50.001Z</time></trkpt><trkpt lat="44.451778700079316" lon="8.974807096241854"><ele>52.0</ele><time>2026-04-25T10:07:52.001Z</time></trkpt><trkpt lat="44.45171342187838" lon="8.974700696231396"><ele>52.0</ele><time>2026-04-25T10:07:54.001Z</time></trkpt><trkpt lat="44.45166239760172" lon="8.974591633843144"><ele>52.8</ele><time>2026-04-25T10:07:56.001Z</time></trkpt><trkpt lat="44.45159990164733" lon="8.974477080879407"><ele>53.6</ele><time>2026-04-25T10:07:58.001Z</time></trkpt><trkpt lat="44.4515452192861" lon="8.974358582167769"><ele>54.39999999999999</ele><time>2026-04-25T10:08:00.001Z</time></trkpt><trkpt lat="44.451482703873396" lon="8.974242414105987"><ele>55.199999999999996</ele><time>2026-04-25T10:08:02.001Z</time></trkpt><trkpt lat="44.45141883788255" lon="8.974130111159658"><ele>56.0</ele><time>2026-04-25T10:08:04.001Z</time></trkpt><trkpt lat="44.451347438065035" lon="8.974027015430018"><ele>54.8</ele><time>2026-04-25T10:08:06.001Z</time></trkpt><trkpt lat="44.45128704266599" lon="8.973898619452422"><ele>53.599999999999994</ele><time>2026-04-25T10:08:08.001Z</time></trkpt><trkpt lat="44.451231686229036" lon="8.97377924321601"><ele>52.4</ele><time>2026-04-25T10:08:10.001Z</time></trkpt><trkpt lat="44.45118547964279" lon="8.973645563291164"><ele>51.2</ele><time>2026-04-25T10:08:12.001Z</time></trkpt><trkpt lat="44.45110025223096" lon="8.973541609058564"><ele>50.0</ele><time>2026-04-25T10:08:14.001Z</time></trkpt><trkpt lat="44.451034869410236" lon="8.9734320083735"><ele>50.8</ele><time>2026-04-25T10:08:16.001Z</time></trkpt><trkpt lat="44.450971630508974" lon="8.973327099804687"><ele>51.6</ele><time>2026-04-25T10:08:18.001Z</time></trkpt><trkpt lat="44.45090930272493" lon="8.973191555128098"><ele>52.400000000000006</ele><time>2026-04-25T10:08:20.001Z</time></trkpt><trkpt lat="44.450847103621385" lon="8.973064915127901"><ele>53.2</ele><time>2026-04-25T10:08:22.001Z</time></trkpt><trkpt lat="44.45077941207507" lon="8.972953498684511"><ele>54.0</ele><time>2026-04-25T10:08:24.001Z</time></trkpt><trkpt lat="44.450714059372345" lon="8.972824639853327"><ele>54.0</ele><time>2026-04-25T10:08:26.001Z</time></trkpt><trkpt lat="44.450648119732044" lon="8.972689354087446"><ele>54.00000000000001</ele><time>2026-04-25T10:08:28.002Z</time></trkpt><trkpt lat="44.45058333566044" lon="8.972561080431046"><ele>54.00000000000001</ele><time>2026-04-25T10:08:30.002Z</time></trkpt><trkpt lat="44.450509495526155" lon="8.972446121230512"><ele>54.0</ele><time>2026-04-25T10:08:32.002Z</time></trkpt><trkpt lat="44.450429619645774" lon="8.972389024533426"><ele>54.0</ele><time>2026-04-25T10:08:34.002Z</time></trkpt><trkpt lat="44.45030957178863" lon="8.972342141943185"><ele>53.6</ele><time>2026-04-25T10:08:36.002Z</time></trkpt><trkpt lat="44.45019693007568" lon="8.972309121161343"><ele>53.2</ele><time>2026-04-25T10:08:38.002Z</time></trkpt><trkpt lat="44.450108113505806" lon="8.972204872490694"><ele>52.800000000000004</ele><time>2026-04-25T10:08:40.002Z</time></trkpt><trkpt lat="44.45005256813869" lon="8.97214479088864"><ele>52.400000000000006</ele><time>2026-04-25T10:08:41.002Z</time></trkpt><trkpt lat="44.44992518210062" lon="8.972110845184714"><ele>52.0</ele><time>2026-04-25T10:08:43.002Z</time></trkpt><trkpt lat="44.44980298631589" lon="8.972053029102977"><ele>52.0</ele><time>2026-04-25T10:08:45.002Z</time></trkpt><trkpt lat="44.449680935712536" lon="8.971994503846302"><ele>52.0</ele><time>2026-04-25T10:08:47.002Z</time></trkpt><trkpt lat="44.44956138423757" lon="8.971940388035184"><ele>52.0</ele><time>2026-04-25T10:08:49.002Z</time></trkpt><trkpt lat="44.449467886143694" lon="8.971848634134018"><ele>52.0</ele><time>2026-04-25T10:08:51.002Z</time></trkpt><trkpt lat="44.44937779361296" lon="8.971755942340922"><ele>51.2</ele><time>2026-04-25T10:08:53.002Z</time></trkpt><trkpt lat="44.449304832120404" lon="8.971608425332404"><ele>50.400000000000006</ele><time>2026-04-25T10:08:55.002Z</time></trkpt><trkpt lat="44.449279753768785" lon="8.971525924702945"><ele>49.599999999999994</ele><time>2026-04-25T10:08:56.002Z</time></trkpt><trkpt lat="44.449222378254824" lon="8.971384125286033"><ele>48.8</ele><time>2026-04-25T10:08:58.002Z</time></trkpt><trkpt lat="44.44915427638584" lon="8.971241668360925"><ele>48.0</ele><time>2026-04-25T10:09:00.002Z</time></trkpt><trkpt lat="44.449089377367144" lon="8.971101402842079"><ele>48.0</ele><time>2026-04-25T10:09:02.002Z</time></trkpt><trkpt lat="44.449013529121686" lon="8.970985821314002"><ele>48.0</ele><time>2026-04-25T10:09:04.002Z</time></trkpt><trkpt lat="44.448941951200155" lon="8.970848379783533"><ele>48.0</ele><time>2026-04-25T10:09:06.003Z</time></trkpt><trkpt lat="44.4488757177132" lon="8.97071315075292"><ele>48.0</ele><time>2026-04-25T10:09:08.003Z</time></trkpt><trkpt lat="44.44879798733307" lon="8.970591483996884"><ele>48.0</ele><time>2026-04-25T10:09:10.003Z</time></trkpt><trkpt lat="44.44872761712702" lon="8.970465089826376"><ele>48.0</ele><time>2026-04-25T10:09:12.003Z</time></trkpt><trkpt lat="44.44864717517211" lon="8.970342891227801"><ele>48.0</ele><time>2026-04-25T10:09:14.003Z</time></trkpt><trkpt lat="44.448576088611375" lon="8.970220456078986"><ele>48.0</ele><time>2026-04-25T10:09:16.003Z</time></trkpt><trkpt lat="44.44849266844797" lon="8.970124511874772"><ele>49.2</ele><time>2026-04-25T10:09:18.003Z</time></trkpt><trkpt lat="44.448421491606005" lon="8.970004301862216"><ele>50.4</ele><time>2026-04-25T10:09:20.003Z</time></trkpt><trkpt lat="44.448351327124094" lon="8.969890630316973"><ele>51.60000000000001</ele><time>2026-04-25T10:09:22.003Z</time></trkpt><trkpt lat="44.448277556999976" lon="8.969775793266528"><ele>52.800000000000004</ele><time>2026-04-25T10:09:24.003Z</time></trkpt><trkpt lat="44.4482132456599" lon="8.969662449547254"><ele>54.0</ele><time>2026-04-25T10:09:26.003Z</time></trkpt><trkpt lat="44.448136829058406" lon="8.969563259890567"><ele>54.0</ele><time>2026-04-25T10:09:28.003Z</time></trkpt><trkpt lat="44.44805815905973" lon="8.969469490294792"><ele>54.00000000000001</ele><time>2026-04-25T10:09:30.003Z</time></trkpt><trkpt lat="44.44797367748043" lon="8.969383919738005"><ele>54.00000000000001</ele><time>2026-04-25T10:09:32.003Z</time></trkpt><trkpt lat="44.447907090703836" lon="8.969276316766619"><ele>54.0</ele><time>2026-04-25T10:09:34Z</time></trkpt><trkpt lat="44.44783173438572" lon="8.969168688030294"><ele>54.0</ele><time>2026-04-25T10:09:36Z</time></trkpt><trkpt lat="44.44775540933655" lon="8.969051081859389"><ele>52.6</ele><time>2026-04-25T10:09:38Z</time></trkpt><trkpt lat="44.44767810764143" lon="8.968938136693506"><ele>51.2</ele><time>2026-04-25T10:09:40Z</time></trkpt><trkpt lat="44.44761233882109" lon="8.968831750865922"><ele>49.800000000000004</ele><time>2026-04-25T10:09:42Z</time></trkpt><trkpt lat="44.44753658929182" lon="8.968748887659283"><ele>48.400000000000006</ele><time>2026-04-25T10:09:44Z</time></trkpt><trkpt lat="44.447487217866005" lon="8.968639697695675"><ele>47.0</ele><time>2026-04-25T10:09:46Z</time></trkpt><trkpt lat="44.44743463267436" lon="8.968554158932953"><ele>47.0</ele><time>2026-04-25T10:09:48Z</time></trkpt><trkpt lat="44.447397762635376" lon="8.968481336343022"><ele>47.0</ele><time>2026-04-25T10:09:51Z</time></trkpt><trkpt lat="44.447342107370574" lon="8.968416635704063"><ele>47.0</ele><time>2026-04-25T10:09:56.001Z</time></trkpt><trkpt lat="44.44729424575767" lon="8.968353439400573"><ele>47.0</ele><time>2026-04-25T10:10:01.001Z</time></trkpt><trkpt lat="44.447288067105596" lon="8.968258486453642"><ele>47.0</ele><time>2026-04-25T10:10:06.001Z</time></trkpt><trkpt lat="44.44723403608427" lon="8.968167819746565"><ele>47.0</ele><time>2026-04-25T10:10:11.001Z</time></trkpt><trkpt lat="44.4472185946529" lon="8.968072919675919"><ele>47.0</ele><time>2026-04-25T10:10:13.001Z</time></trkpt><trkpt lat="44.44720116629981" lon="8.967982916369735"><ele>47.0</ele><time>2026-04-25T10:10:15.001Z</time></trkpt><trkpt lat="44.44716394397811" lon="8.967894106171286"><ele>47.0</ele><time>2026-04-25T10:10:17.001Z</time></trkpt><trkpt lat="44.447118369177026" lon="8.967799796026597"><ele>47.0</ele><time>2026-04-25T10:10:19.001Z</time></trkpt><trkpt lat="44.44705852920938" lon="8.967720911945696"><ele>47.0</ele><time>2026-04-25T10:10:21.001Z</time></trkpt><trkpt lat="44.44701262413121" lon="8.967599742708689"><ele>47.0</ele><time>2026-04-25T10:10:23.001Z</time></trkpt><trkpt lat="44.446965295300416" lon="8.967483381314246"><ele>47.0</ele><time>2026-04-25T10:10:25.001Z</time></trkpt><trkpt lat="44.446883429225615" lon="8.96738653386623"><ele>47.0</ele><time>2026-04-25T10:10:27.001Z</time></trkpt><trkpt lat="44.446802103127226" lon="8.967294277758619"><ele>47.0</ele><time>2026-04-25T10:10:29.001Z</time></trkpt><trkpt lat="44.44670859077144" lon="8.967204055829361"><ele>47.0</ele><time>2026-04-25T10:10:31.001Z</time></trkpt><trkpt lat="44.446620971956136" lon="8.967115665894946"><ele>47.0</ele><time>2026-04-25T10:10:33.001Z</time></trkpt><trkpt lat="44.446532138171094" lon="8.967026120999549"><ele>47.0</ele><time>2026-04-25T10:10:35.001Z</time></trkpt><trkpt lat="44.446452070158365" lon="8.966939196582372"><ele>47.0</ele><time>2026-04-25T10:10:37.002Z</time></trkpt><trkpt lat="44.44637242930042" lon="8.966863173296762"><ele>47.0</ele><time>2026-04-25T10:10:39.002Z</time></trkpt><trkpt lat="44.44629800824948" lon="8.966791064590588"><ele>47.0</ele><time>2026-04-25T10:10:41.002Z</time></trkpt><trkpt lat="44.44623299419384" lon="8.966715291742467"><ele>47.0</ele><time>2026-04-25T10:10:43.002Z</time></trkpt><trkpt lat="44.44616446303206" lon="8.966663252805613"><ele>47.0</ele><time>2026-04-25T10:10:45.002Z</time></trkpt><trkpt lat="44.44608876935019" lon="8.966593559288201"><ele>47.0</ele><time>2026-04-25T10:10:47.002Z</time></trkpt><trkpt lat="44.4459979557007" lon="8.966525833851163"><ele>47.400000000000006</ele><time>2026-04-25T10:10:49.002Z</time></trkpt><trkpt lat="44.445900999732565" lon="8.96644549709094"><ele>47.800000000000004</ele><time>2026-04-25T10:10:51.002Z</time></trkpt><trkpt lat="44.445826828172976" lon="8.966357791008468"><ele>48.2</ele><time>2026-04-25T10:10:53.002Z</time></trkpt><trkpt lat="44.44575357377381" lon="8.96627572303574"><ele>48.6</ele><time>2026-04-25T10:10:55.002Z</time></trkpt><trkpt lat="44.445664635107306" lon="8.966221525255506"><ele>49.0</ele><time>2026-04-25T10:10:57.002Z</time></trkpt><trkpt lat="44.445566489700234" lon="8.966156223453392"><ele>48.99999999999999</ele><time>2026-04-25T10:10:59.002Z</time></trkpt><trkpt lat="44.44549520161233" lon="8.96606633128088"><ele>49.0</ele><time>2026-04-25T10:11:01.002Z</time></trkpt><trkpt lat="44.44543279048688" lon="8.966000844245238"><ele>49.0</ele><time>2026-04-25T10:11:03.002Z</time></trkpt><trkpt lat="44.445374381413025" lon="8.965950836815693"><ele>49.0</ele><time>2026-04-25T10:11:05.002Z</time></trkpt><trkpt lat="44.44530629341415" lon="8.965899465779923"><ele>48.99999999999999</ele><time>2026-04-25T10:11:07.002Z</time></trkpt><trkpt lat="44.445244218913714" lon="8.965791286965484"><ele>49.0</ele><time>2026-04-25T10:11:09.002Z</time></trkpt><trkpt lat="44.445173464421615" lon="8.965706187880192"><ele>49.2</ele><time>2026-04-25T10:11:11.002Z</time></trkpt><trkpt lat="44.445098818140686" lon="8.965626696431437"><ele>49.400000000000006</ele><time>2026-04-25T10:11:13.002Z</time></trkpt><trkpt lat="44.445024169268734" lon="8.965554083571307"><ele>49.6</ele><time>2026-04-25T10:11:15.002Z</time></trkpt><trkpt lat="44.444940738314344" lon="8.965483272296726"><ele>49.8</ele><time>2026-04-25T10:11:17.003Z</time></trkpt><trkpt lat="44.44485514197727" lon="8.965422894910136"><ele>50.0</ele><time>2026-04-25T10:11:19.003Z</time></trkpt><trkpt lat="44.44478879567396" lon="8.96532680437213"><ele>50.0</ele><time>2026-04-25T10:11:21.003Z</time></trkpt><trkpt lat="44.44469727548235" lon="8.965251731069305"><ele>50.0</ele><time>2026-04-25T10:11:23.003Z</time></trkpt><trkpt lat="44.444611022992774" lon="8.965187222919198"><ele>50.0</ele><time>2026-04-25T10:11:25.003Z</time></trkpt><trkpt lat="44.44452474633752" lon="8.965096559850041"><ele>50.0</ele><time>2026-04-25T10:11:27.003Z</time></trkpt><trkpt lat="44.44443607830304" lon="8.965025651039044"><ele>50.0</ele><time>2026-04-25T10:11:29.003Z</time></trkpt><trkpt lat="44.44433828595173" lon="8.964947792208926"><ele>49.6</ele><time>2026-04-25T10:11:31.003Z</time></trkpt><trkpt lat="44.44425476870285" lon="8.964870568997245"><ele>49.2</ele><time>2026-04-25T10:11:33.003Z</time></trkpt><trkpt lat="44.44417538872197" lon="8.964774777225433"><ele>48.8</ele><time>2026-04-25T10:11:35.003Z</time></trkpt><trkpt lat="44.44410688237412" lon="8.964684752568454"><ele>48.4</ele><time>2026-04-25T10:11:37.003Z</time></trkpt><trkpt lat="44.44403631057755" lon="8.964623821802123"><ele>48.0</ele><time>2026-04-25T10:11:39Z</time></trkpt><trkpt lat="44.443971931188756" lon="8.96454232112301"><ele>48.0</ele><time>2026-04-25T10:11:41Z</time></trkpt><trkpt lat="44.44391244923926" lon="8.964465886798758"><ele>48.0</ele><time>2026-04-25T10:11:43Z</time></trkpt><trkpt lat="44.44382947502603" lon="8.964408865575399"><ele>48.0</ele><time>2026-04-25T10:11:45Z</time></trkpt><trkpt lat="44.44376056723898" lon="8.964324590249221"><ele>48.0</ele><time>2026-04-25T10:11:47Z</time></trkpt><trkpt lat="44.443697998316495" lon="8.964216350286238"><ele>48.0</ele><time>2026-04-25T10:11:49Z</time></trkpt><trkpt lat="44.44363760122428" lon="8.964133582719223"><ele>48.0</ele><time>2026-04-25T10:11:51Z</time></trkpt><trkpt lat="44.443574934180035" lon="8.964062884853865"><ele>47.8</ele><time>2026-04-25T10:11:53Z</time></trkpt><trkpt lat="44.44351921867292" lon="8.963970068173404"><ele>47.599999999999994</ele><time>2026-04-25T10:11:55Z</time></trkpt><trkpt lat="44.44341975376572" lon="8.963916022127464"><ele>47.400000000000006</ele><time>2026-04-25T10:11:57Z</time></trkpt><trkpt lat="44.44333236984611" lon="8.963848675567284"><ele>47.2</ele><time>2026-04-25T10:11:59Z</time></trkpt><trkpt lat="44.4432337742157" lon="8.963808161665703"><ele>47.0</ele><time>2026-04-25T10:12:01Z</time></trkpt><trkpt lat="44.44313274266295" lon="8.963755860279292"><ele>47.0</ele><time>2026-04-25T10:12:03Z</time></trkpt><trkpt lat="44.44304308737043" lon="8.963741867875756"><ele>47.0</ele><time>2026-04-25T10:12:05Z</time></trkpt><trkpt lat="44.44293919772893" lon="8.963715873078366"><ele>47.0</ele><time>2026-04-25T10:12:07Z</time></trkpt><trkpt lat="44.44283749876543" lon="8.963687159031553"><ele>47.0</ele><time>2026-04-25T10:12:09.001Z</time></trkpt><trkpt lat="44.44272476874474" lon="8.963666424467826"><ele>47.0</ele><time>2026-04-25T10:12:11.001Z</time></trkpt><trkpt lat="44.44261997763235" lon="8.96363880607072"><ele>45.8</ele><time>2026-04-25T10:12:13.001Z</time></trkpt><trkpt lat="44.442554422949996" lon="8.963631597953489"><ele>44.6</ele><time>2026-04-25T10:12:14.001Z</time></trkpt><trkpt lat="44.44243158227512" lon="8.963629454564112"><ele>43.4</ele><time>2026-04-25T10:12:16.001Z</time></trkpt><trkpt lat="44.44231664318958" lon="8.963614894415358"><ele>42.199999999999996</ele><time>2026-04-25T10:12:18.001Z</time></trkpt><trkpt lat="44.44220017141703" lon="8.96360183872964"><ele>41.0</ele><time>2026-04-25T10:12:20.001Z</time></trkpt><trkpt lat="44.442093721454754" lon="8.963571288652549"><ele>40.4</ele><time>2026-04-25T10:12:22.001Z</time></trkpt><trkpt lat="44.44203022041609" lon="8.963554706286434"><ele>39.8</ele><time>2026-04-25T10:12:23.001Z</time></trkpt><trkpt lat="44.44191400676721" lon="8.963542349185747"><ele>39.199999999999996</ele><time>2026-04-25T10:12:25.001Z</time></trkpt><trkpt lat="44.44180145375416" lon="8.963541420134955"><ele>38.599999999999994</ele><time>2026-04-25T10:12:27.001Z</time></trkpt><trkpt lat="44.44169634234907" lon="8.963524152355706"><ele>38.0</ele><time>2026-04-25T10:12:29.001Z</time></trkpt><trkpt lat="44.441595222572104" lon="8.963505269235696"><ele>38.0</ele><time>2026-04-25T10:12:31.001Z</time></trkpt><trkpt lat="44.44149369538554" lon="8.96347914524223"><ele>38.0</ele><time>2026-04-25T10:12:33.001Z</time></trkpt><trkpt lat="44.44138780261895" lon="8.963445022179622"><ele>38.0</ele><time>2026-04-25T10:12:35.001Z</time></trkpt><trkpt lat="44.44127802718824" lon="8.963389362248947"><ele>38.0</ele><time>2026-04-25T10:12:37.001Z</time></trkpt><trkpt lat="44.441178176268075" lon="8.963338776127834"><ele>38.0</ele><time>2026-04-25T10:12:39.001Z</time></trkpt><trkpt lat="44.44108835703151" lon="8.963306332362176"><ele>38.857142857142854</ele><time>2026-04-25T10:12:41.001Z</time></trkpt><trkpt lat="44.44100704004311" lon="8.963268607823396"><ele>39.714285714285715</ele><time>2026-04-25T10:12:43.001Z</time></trkpt><trkpt lat="44.44094634235872" lon="8.963239335590522"><ele>40.57142857142857</ele><time>2026-04-25T10:12:45.001Z</time></trkpt><trkpt lat="44.440879378806144" lon="8.963210319407127"><ele>41.42857142857143</ele><time>2026-04-25T10:12:47.001Z</time></trkpt><trkpt lat="44.44081767459527" lon="8.963173400443313"><ele>42.285714285714285</ele><time>2026-04-25T10:12:49.001Z</time></trkpt><trkpt lat="44.44074951520836" lon="8.963137404878669"><ele>43.142857142857146</ele><time>2026-04-25T10:12:51.002Z</time></trkpt><trkpt lat="44.440673215453096" lon="8.963105705627427"><ele>44.0</ele><time>2026-04-25T10:12:53.002Z</time></trkpt><trkpt lat="44.44059188688271" lon="8.96305502481756"><ele>44.0</ele><time>2026-04-25T10:12:55.002Z</time></trkpt><trkpt lat="44.44050335638973" lon="8.963023572286309"><ele>44.0</ele><time>2026-04-25T10:12:57.002Z</time></trkpt><trkpt lat="44.44041023394931" lon="8.962980246794164"><ele>44.0</ele><time>2026-04-25T10:12:59.002Z</time></trkpt><trkpt lat="44.440314740264114" lon="8.962943010911943"><ele>44.0</ele><time>2026-04-25T10:13:01.002Z</time></trkpt><trkpt lat="44.44021541759616" lon="8.962904699899317"><ele>44.0</ele><time>2026-04-25T10:13:03.002Z</time></trkpt><trkpt lat="44.44011942825232" lon="8.962860510690032"><ele>43.0</ele><time>2026-04-25T10:13:05.002Z</time></trkpt><trkpt lat="44.44002066611084" lon="8.962820448280992"><ele>42.0</ele><time>2026-04-25T10:13:07.002Z</time></trkpt><trkpt lat="44.43991439424029" lon="8.962804313591556"><ele>41.0</ele><time>2026-04-25T10:13:09.002Z</time></trkpt><trkpt lat="44.43981770437466" lon="8.962760536568569"><ele>40.0</ele><time>2026-04-25T10:13:11.002Z</time></trkpt><trkpt lat="44.43972660526946" lon="8.962735344321608"><ele>39.0</ele><time>2026-04-25T10:13:13.002Z</time></trkpt><trkpt lat="44.439638904237256" lon="8.96271783007648"><ele>38.833333333333336</ele><time>2026-04-25T10:13:15.002Z</time></trkpt><trkpt lat="44.43956035070293" lon="8.962690364778563"><ele>38.666666666666664</ele><time>2026-04-25T10:13:17.002Z</time></trkpt><trkpt lat="44.43947682371584" lon="8.962663269587564"><ele>38.5</ele><time>2026-04-25T10:13:19.002Z</time></trkpt><trkpt lat="44.43939285804095" lon="8.962636978908957"><ele>38.33333333333333</ele><time>2026-04-25T10:13:21.002Z</time></trkpt><trkpt lat="44.43930900512918" lon="8.962607451763105"><ele>38.166666666666664</ele><time>2026-04-25T10:13:23.002Z</time></trkpt><trkpt lat="44.4392268211149" lon="8.962574309427156"><ele>38.0</ele><time>2026-04-25T10:13:25.002Z</time></trkpt><trkpt lat="44.439133870111235" lon="8.962548964997692"><ele>38.166666666666664</ele><time>2026-04-25T10:13:27.002Z</time></trkpt><trkpt lat="44.43904010265012" lon="8.962530572439457"><ele>38.33333333333333</ele><time>2026-04-25T10:13:29.003Z</time></trkpt><trkpt lat="44.438942843725684" lon="8.962499396695902"><ele>38.5</ele><time>2026-04-25T10:13:31.003Z</time></trkpt><trkpt lat="44.4388644134629" lon="8.962481203553605"><ele>38.666666666666664</ele><time>2026-04-25T10:13:33.003Z</time></trkpt><trkpt lat="44.438794779200656" lon="8.962466436392736"><ele>38.833333333333336</ele><time>2026-04-25T10:13:35.003Z</time></trkpt><trkpt lat="44.43872833128129" lon="8.962460938301138"><ele>39.0</ele><time>2026-04-25T10:13:37.003Z</time></trkpt><trkpt lat="44.43864673898641" lon="8.962434665956504"><ele>39.0</ele><time>2026-04-25T10:13:39.003Z</time></trkpt><trkpt lat="44.43854689236286" lon="8.962399740390376"><ele>39.0</ele><time>2026-04-25T10:13:41.003Z</time></trkpt><trkpt lat="44.43845692889667" lon="8.962364411662252"><ele>39.0</ele><time>2026-04-25T10:13:43.003Z</time></trkpt><trkpt lat="44.43835747072593" lon="8.962331359404217"><ele>39.0</ele><time>2026-04-25T10:13:45Z</time></trkpt><trkpt lat="44.43828462783049" lon="8.962298716192668"><ele>39.0</ele><time>2026-04-25T10:13:47Z</time></trkpt><trkpt lat="44.438214745157424" lon="8.96228818873495"><ele>39.0</ele><time>2026-04-25T10:13:51Z</time></trkpt><trkpt lat="44.43814853565159" lon="8.962258400166794"><ele>39.0</ele><time>2026-04-25T10:13:52Z</time></trkpt><trkpt lat="44.438059738852616" lon="8.96221620668961"><ele>39.0</ele><time>2026-04-25T10:13:55Z</time></trkpt><trkpt lat="44.43798086276532" lon="8.962143289044691"><ele>39.0</ele><time>2026-04-25T10:13:56Z</time></trkpt><trkpt lat="44.43788373281789" lon="8.9621069840824"><ele>39.0</ele><time>2026-04-25T10:13:58Z</time></trkpt><trkpt lat="44.437777640327376" lon="8.96208732136775"><ele>39.0</ele><time>2026-04-25T10:14:00Z</time></trkpt><trkpt lat="44.43768762062141" lon="8.962050308421063"><ele>37.8</ele><time>2026-04-25T10:14:02Z</time></trkpt><trkpt lat="44.437597366699435" lon="8.962041870781306"><ele>36.599999999999994</ele><time>2026-04-25T10:14:04Z</time></trkpt><trkpt lat="44.43750343703658" lon="8.962028533997007"><ele>35.4</ele><time>2026-04-25T10:14:06Z</time></trkpt><trkpt lat="44.43740318391093" lon="8.96201762626688"><ele>34.199999999999996</ele><time>2026-04-25T10:14:08Z</time></trkpt><trkpt lat="44.437295508811154" lon="8.962008569413197"><ele>33.0</ele><time>2026-04-25T10:14:10Z</time></trkpt><trkpt lat="44.43718474936923" lon="8.962002372257787"><ele>32.75</ele><time>2026-04-25T10:14:12Z</time></trkpt><trkpt lat="44.4370560007554" lon="8.962028242708225"><ele>32.5</ele><time>2026-04-25T10:14:14.001Z</time></trkpt><trkpt lat="44.43693698969834" lon="8.962016457976544"><ele>32.25</ele><time>2026-04-25T10:14:16.001Z</time></trkpt><trkpt lat="44.4368193007017" lon="8.962008084526179"><ele>32.0</ele><time>2026-04-25T10:14:18.001Z</time></trkpt><trkpt lat="44.43669948064638" lon="8.962000594394599"><ele>32.0</ele><time>2026-04-25T10:14:20.001Z</time></trkpt><trkpt lat="44.43657538707247" lon="8.96198742771487"><ele>32.0</ele><time>2026-04-25T10:14:22.001Z</time></trkpt><trkpt lat="44.43645192659214" lon="8.961976227586133"><ele>32.0</ele><time>2026-04-25T10:14:24.001Z</time></trkpt><trkpt lat="44.436387987018435" lon="8.961969254072175"><ele>32.0</ele><time>2026-04-25T10:14:25.001Z</time></trkpt><trkpt lat="44.43626149161402" lon="8.961960749034107"><ele>32.0</ele><time>2026-04-25T10:14:27.001Z</time></trkpt><trkpt lat="44.43613685590859" lon="8.961941250349232"><ele>31.666666666666664</ele><time>2026-04-25T10:14:29.001Z</time></trkpt><trkpt lat="44.436012928361215" lon="8.961919934420084"><ele>31.333333333333332</ele><time>2026-04-25T10:14:31.001Z</time></trkpt><trkpt lat="44.435947647485825" lon="8.96190815030469"><ele>31.0</ele><time>2026-04-25T10:14:32.001Z</time></trkpt><trkpt lat="44.43588134065532" lon="8.961901476896994"><ele>30.666666666666664</ele><time>2026-04-25T10:14:33.001Z</time></trkpt><trkpt lat="44.43581601751832" lon="8.96188631641051"><ele>30.333333333333332</ele><time>2026-04-25T10:14:34.001Z</time></trkpt><trkpt lat="44.43575365255865" lon="8.961861430800452"><ele>30.0</ele><time>2026-04-25T10:14:35.001Z</time></trkpt><trkpt lat="44.43568767513527" lon="8.96184387666323"><ele>30.0</ele><time>2026-04-25T10:14:36.001Z</time></trkpt><trkpt lat="44.43562391214397" lon="8.961811799570265"><ele>30.0</ele><time>2026-04-25T10:14:37.001Z</time></trkpt><trkpt lat="44.435561453946185" lon="8.96179151995699"><ele>30.0</ele><time>2026-04-25T10:14:38.001Z</time></trkpt><trkpt lat="44.43549605747158" lon="8.96176154686916"><ele>30.0</ele><time>2026-04-25T10:14:39.001Z</time></trkpt><trkpt lat="44.43543570945245" lon="8.961732708864973"><ele>30.0</ele><time>2026-04-25T10:14:40.001Z</time></trkpt><trkpt lat="44.43537189514555" lon="8.961697948243872"><ele>30.0</ele><time>2026-04-25T10:14:41.001Z</time></trkpt><trkpt lat="44.43530813086588" lon="8.961668832087058"><ele>30.0</ele><time>2026-04-25T10:14:42.001Z</time></trkpt><trkpt lat="44.43524579071133" lon="8.961641462320776"><ele>30.142857142857146</ele><time>2026-04-25T10:14:43.001Z</time></trkpt><trkpt lat="44.43518279393157" lon="8.96161202879092"><ele>30.285714285714285</ele><time>2026-04-25T10:14:44.001Z</time></trkpt><trkpt lat="44.43511972625624" lon="8.961571093680929"><ele>30.42857142857143</ele><time>2026-04-25T10:14:45.001Z</time></trkpt><trkpt lat="44.4350557528759" lon="8.961533109552816"><ele>30.571428571428573</ele><time>2026-04-25T10:14:46.001Z</time></trkpt><trkpt lat="44.43499213384141" lon="8.961493740203034"><ele>30.714285714285715</ele><time>2026-04-25T10:14:47.001Z</time></trkpt><trkpt lat="44.43493395067119" lon="8.96145614814941"><ele>30.857142857142858</ele><time>2026-04-25T10:14:48.001Z</time></trkpt><trkpt lat="44.43486960910083" lon="8.961414641940037"><ele>31.0</ele><time>2026-04-25T10:14:49.001Z</time></trkpt><trkpt lat="44.4348105632439" lon="8.961365239007966"><ele>31.0</ele><time>2026-04-25T10:14:50.001Z</time></trkpt><trkpt lat="44.43475070531378" lon="8.96131614333681"><ele>31.000000000000004</ele><time>2026-04-25T10:14:51.001Z</time></trkpt><trkpt lat="44.43469082021857" lon="8.96127206015962"><ele>31.0</ele><time>2026-04-25T10:14:52.001Z</time></trkpt><trkpt lat="44.4346273412896" lon="8.961226605069914"><ele>31.0</ele><time>2026-04-25T10:14:53.001Z</time></trkpt><trkpt lat="44.43456562237926" lon="8.961191011878103"><ele>31.000000000000004</ele><time>2026-04-25T10:14:54.001Z</time></trkpt><trkpt lat="44.434509953302715" lon="8.961130790404182"><ele>31.0</ele><time>2026-04-25T10:14:55.002Z</time></trkpt><trkpt lat="44.43445028805187" lon="8.96107675971156"><ele>31.0</ele><time>2026-04-25T10:14:56.002Z</time></trkpt><trkpt lat="44.434394112201694" lon="8.96102817881485"><ele>31.166666666666668</ele><time>2026-04-25T10:14:57.002Z</time></trkpt><trkpt lat="44.43433592964751" lon="8.960972805805236"><ele>31.333333333333336</ele><time>2026-04-25T10:14:58.002Z</time></trkpt><trkpt lat="44.434277352638674" lon="8.960927689568312"><ele>31.5</ele><time>2026-04-25T10:14:59.002Z</time></trkpt><trkpt lat="44.43423040121357" lon="8.960863815767901"><ele>31.666666666666664</ele><time>2026-04-25T10:15:00.002Z</time></trkpt><trkpt lat="44.434174059599826" lon="8.96080623766293"><ele>31.833333333333332</ele><time>2026-04-25T10:15:01.002Z</time></trkpt><trkpt lat="44.434072089911574" lon="8.960697858692876"><ele>32.0</ele><time>2026-04-25T10:15:03.002Z</time></trkpt><trkpt lat="44.43401832320136" lon="8.96064712455693"><ele>32.0</ele><time>2026-04-25T10:15:04.002Z</time></trkpt><trkpt lat="44.43391790644898" lon="8.960543684452997"><ele>32.0</ele><time>2026-04-25T10:15:06.002Z</time></trkpt><trkpt lat="44.43381759852955" lon="8.960439231140699"><ele>32.0</ele><time>2026-04-25T10:15:08.002Z</time></trkpt><trkpt lat="44.43371783271612" lon="8.960335046797145"><ele>32.0</ele><time>2026-04-25T10:15:10.002Z</time></trkpt><trkpt lat="44.4336220021635" lon="8.960229522394245"><ele>31.400000000000002</ele><time>2026-04-25T10:15:12.002Z</time></trkpt><trkpt lat="44.43352966942426" lon="8.960128242546354"><ele>30.800000000000004</ele><time>2026-04-25T10:15:14.002Z</time></trkpt><trkpt lat="44.4334519006255" lon="8.960030811079466"><ele>30.2</ele><time>2026-04-25T10:15:16.002Z</time></trkpt><trkpt lat="44.4333573780943" lon="8.959945855554373"><ele>29.6</ele><time>2026-04-25T10:15:18.002Z</time></trkpt><trkpt lat="44.433283719630026" lon="8.959857109957994"><ele>29.0</ele><time>2026-04-25T10:15:20.002Z</time></trkpt><trkpt lat="44.43321533483251" lon="8.959781934686"><ele>29.999999999999996</ele><time>2026-04-25T10:15:22.002Z</time></trkpt><trkpt lat="44.43315222892919" lon="8.959728868510126"><ele>31.0</ele><time>2026-04-25T10:15:24.002Z</time></trkpt><trkpt lat="44.4330953669243" lon="8.959660590598736"><ele>32.0</ele><time>2026-04-25T10:15:26.002Z</time></trkpt><trkpt lat="44.433059332131926" lon="8.959563040510131"><ele>33.0</ele><time>2026-04-25T10:15:29.002Z</time></trkpt><trkpt lat="44.43310174179759" lon="8.95948801891688"><ele>34.0</ele><time>2026-04-25T10:15:31.002Z</time></trkpt><trkpt lat="44.43314610550232" lon="8.95940202884699"><ele>35.0</ele><time>2026-04-25T10:15:33.002Z</time></trkpt><trkpt lat="44.4331633573411" lon="8.959285190866089"><ele>35.0</ele><time>2026-04-25T10:15:36.003Z</time></trkpt><trkpt lat="44.433087200408785" lon="8.959261853200461"><ele>35.0</ele><time>2026-04-25T10:15:38.003Z</time></trkpt><trkpt lat="44.433004382194326" lon="8.959205319025383"><ele>35.0</ele><time>2026-04-25T10:15:40.003Z</time></trkpt><trkpt lat="44.43292640440476" lon="8.959140464102722"><ele>35.0</ele><time>2026-04-25T10:15:42.003Z</time></trkpt><trkpt lat="44.432861680739116" lon="8.959077788547301"><ele>35.0</ele><time>2026-04-25T10:15:44.003Z</time></trkpt><trkpt lat="44.43281102118231" lon="8.958974110315488"><ele>35.0</ele><time>2026-04-25T10:15:46.003Z</time></trkpt><trkpt lat="44.43278617874218" lon="8.958845030943797"><ele>34.8</ele><time>2026-04-25T10:15:48.003Z</time></trkpt><trkpt lat="44.43275589715776" lon="8.958719637750347"><ele>34.6</ele><time>2026-04-25T10:15:50.003Z</time></trkpt><trkpt lat="44.43271356075301" lon="8.958624565441145"><ele>34.4</ele><time>2026-04-25T10:15:52.001Z</time></trkpt><trkpt lat="44.43266791347712" lon="8.958490174987395"><ele>34.2</ele><time>2026-04-25T10:15:54.001Z</time></trkpt><trkpt lat="44.43261899261894" lon="8.958388277938475"><ele>34.0</ele><time>2026-04-25T10:15:56.001Z</time></trkpt><trkpt lat="44.432560382112406" lon="8.958273581199814"><ele>34.4</ele><time>2026-04-25T10:15:58Z</time></trkpt><trkpt lat="44.432498662361134" lon="8.958174237921186"><ele>34.8</ele><time>2026-04-25T10:16:00Z</time></trkpt><trkpt lat="44.432439226220964" lon="8.95807473739463"><ele>35.2</ele><time>2026-04-25T10:16:02Z</time></trkpt><trkpt lat="44.43237817531011" lon="8.957991588388172"><ele>35.6</ele><time>2026-04-25T10:16:04Z</time></trkpt><trkpt lat="44.432323786975715" lon="8.957896782100306"><ele>36.0</ele><time>2026-04-25T10:16:06Z</time></trkpt><trkpt lat="44.43221980707793" lon="8.957822875505183"><ele>34.4</ele><time>2026-04-25T10:16:08Z</time></trkpt><trkpt lat="44.432112196463265" lon="8.957776572535517"><ele>32.8</ele><time>2026-04-25T10:16:10Z</time></trkpt><trkpt lat="44.43200573498096" lon="8.957733157501814"><ele>31.199999999999996</ele><time>2026-04-25T10:16:12.001Z</time></trkpt><trkpt lat="44.43193816329101" lon="8.957729339760222"><ele>29.599999999999998</ele><time>2026-04-25T10:16:13.001Z</time></trkpt><trkpt lat="44.43184450229036" lon="8.957703899027289"><ele>28.0</ele><time>2026-04-25T10:16:15.001Z</time></trkpt><trkpt lat="44.43174589751687" lon="8.957693116484739"><ele>28.000000000000004</ele><time>2026-04-25T10:16:17.001Z</time></trkpt><trkpt lat="44.43167494617568" lon="8.957686365557858"><ele>28.0</ele><time>2026-04-25T10:16:19.001Z</time></trkpt><trkpt lat="44.43158715608625" lon="8.957644141350118"><ele>28.0</ele><time>2026-04-25T10:16:21.001Z</time></trkpt><trkpt lat="44.431497438657026" lon="8.95760640608627"><ele>28.0</ele><time>2026-04-25T10:16:23.001Z</time></trkpt><trkpt lat="44.431402188996145" lon="8.957575986834687"><ele>28.000000000000004</ele><time>2026-04-25T10:16:25.001Z</time></trkpt><trkpt lat="44.43133608807019" lon="8.957542643201613"><ele>28.0</ele><time>2026-04-25T10:16:27.001Z</time></trkpt><trkpt lat="44.43126043126569" lon="8.95746209948763"><ele>28.599999999999998</ele><time>2026-04-25T10:16:29.001Z</time></trkpt><trkpt lat="44.431202821176214" lon="8.95738913944677"><ele>29.199999999999996</ele><time>2026-04-25T10:16:31.001Z</time></trkpt><trkpt lat="44.431091102691674" lon="8.957350823331707"><ele>29.8</ele><time>2026-04-25T10:16:33.001Z</time></trkpt><trkpt lat="44.430991442591875" lon="8.957301259050777"><ele>30.4</ele><time>2026-04-25T10:16:35.001Z</time></trkpt><trkpt lat="44.4308990224159" lon="8.957226709693664"><ele>31.0</ele><time>2026-04-25T10:16:37.001Z</time></trkpt><trkpt lat="44.43081334551501" lon="8.957155365185049"><ele>31.000000000000004</ele><time>2026-04-25T10:16:39.001Z</time></trkpt><trkpt lat="44.43073828185355" lon="8.957094035392648"><ele>31.0</ele><time>2026-04-25T10:16:41.001Z</time></trkpt><trkpt lat="44.43069031098523" lon="8.957034603191367"><ele>31.0</ele><time>2026-04-25T10:16:43.001Z</time></trkpt><trkpt lat="44.43065344970553" lon="8.956923430688173"><ele>31.0</ele><time>2026-04-25T10:16:46.001Z</time></trkpt><trkpt lat="44.43061264521472" lon="8.956846007930503"><ele>31.000000000000004</ele><time>2026-04-25T10:16:49.001Z</time></trkpt><trkpt lat="44.43055605140076" lon="8.956738974273605"><ele>31.0</ele><time>2026-04-25T10:16:52.001Z</time></trkpt><trkpt lat="44.43055132018168" lon="8.95664731354906"><ele>30.142857142857146</ele><time>2026-04-25T10:16:54.001Z</time></trkpt><trkpt lat="44.43052872920342" lon="8.95652229753837"><ele>29.28571428571429</ele><time>2026-04-25T10:16:57.002Z</time></trkpt><trkpt lat="44.4305021207166" lon="8.956433376671756"><ele>28.42857142857143</ele><time>2026-04-25T10:17:00.002Z</time></trkpt><trkpt lat="44.43043324035274" lon="8.956414597886276"><ele>27.571428571428573</ele><time>2026-04-25T10:17:02.002Z</time></trkpt><trkpt lat="44.430384687169216" lon="8.956338338204782"><ele>26.714285714285715</ele><time>2026-04-25T10:17:05.002Z</time></trkpt><trkpt lat="44.43032014757207" lon="8.956322386224684"><ele>25.85714285714286</ele><time>2026-04-25T10:17:07.002Z</time></trkpt><trkpt lat="44.43025602529643" lon="8.95627811696912"><ele>25.0</ele><time>2026-04-25T10:17:09.002Z</time></trkpt><trkpt lat="44.43019179126531" lon="8.956182094170616"><ele>25.000000000000004</ele><time>2026-04-25T10:17:12.002Z</time></trkpt><trkpt lat="44.430130480424324" lon="8.956106074241452"><ele>25.0</ele><time>2026-04-25T10:17:14.002Z</time></trkpt><trkpt lat="44.43008691115521" lon="8.956012888228353"><ele>25.0</ele><time>2026-04-25T10:17:16.002Z</time></trkpt><trkpt lat="44.430043047796715" lon="8.955931653897926"><ele>25.0</ele><time>2026-04-25T10:17:19.002Z</time></trkpt><trkpt lat="44.42999942352583" lon="8.955822786667342"><ele>25.000000000000004</ele><time>2026-04-25T10:17:21.002Z</time></trkpt><trkpt lat="44.42995973627205" lon="8.955749533296377"><ele>25.0</ele><time>2026-04-25T10:17:25.002Z</time></trkpt><trkpt lat="44.4299105127272" lon="8.955636602651348"><ele>26.666666666666668</ele><time>2026-04-25T10:17:28.002Z</time></trkpt><trkpt lat="44.42987901776269" lon="8.95554570098991"><ele>28.333333333333336</ele><time>2026-04-25T10:17:30.002Z</time></trkpt><trkpt lat="44.42984581092062" lon="8.955449516771797"><ele>30.0</ele><time>2026-04-25T10:17:32.002Z</time></trkpt><trkpt lat="44.42981472368502" lon="8.955343629653504"><ele>31.666666666666664</ele><time>2026-04-25T10:17:34.002Z</time></trkpt><trkpt lat="44.42978208426884" lon="8.955230828928189"><ele>33.33333333333333</ele><time>2026-04-25T10:17:36.002Z</time></trkpt><trkpt lat="44.42976076409579" lon="8.955107031377604"><ele>35.0</ele><time>2026-04-25T10:17:38.002Z</time></trkpt><trkpt lat="44.429746384666856" lon="8.954979814705766"><ele>36.33333333333333</ele><time>2026-04-25T10:17:40.003Z</time></trkpt><trkpt lat="44.42972185819282" lon="8.954865076246486"><ele>37.666666666666664</ele><time>2026-04-25T10:17:42.003Z</time></trkpt><trkpt lat="44.429708261702025" lon="8.954740971453992"><ele>39.0</ele><time>2026-04-25T10:17:44.003Z</time></trkpt><trkpt lat="44.42969236618366" lon="8.954630742266229"><ele>40.333333333333336</ele><time>2026-04-25T10:17:46.003Z</time></trkpt><trkpt lat="44.42965938654235" lon="8.954522259859283"><ele>41.66666666666667</ele><time>2026-04-25T10:17:48.003Z</time></trkpt><trkpt lat="44.4296223033941" lon="8.954449510426597"><ele>43.0</ele><time>2026-04-25T10:17:50.003Z</time></trkpt><trkpt lat="44.42957546368954" lon="8.954375227221023"><ele>40.0</ele><time>2026-04-25T10:17:52.003Z</time></trkpt><trkpt lat="44.42950800469598" lon="8.954318656426217"><ele>37.0</ele><time>2026-04-25T10:17:55.003Z</time></trkpt><trkpt lat="44.42943681598654" lon="8.95433545458301"><ele>34.0</ele><time>2026-04-25T10:17:57.001Z</time></trkpt><trkpt lat="44.42936562327783" lon="8.95437362700858"><ele>31.0</ele><time>2026-04-25T10:17:59.001Z</time></trkpt><trkpt lat="44.429281877162616" lon="8.954403845232587"><ele>28.000000000000004</ele><time>2026-04-25T10:18:01.001Z</time></trkpt><trkpt lat="44.42921164737325" lon="8.95444174079264"><ele>25.0</ele><time>2026-04-25T10:18:03.001Z</time></trkpt><trkpt lat="44.42914201348561" lon="8.954483126258943"><ele>25.000000000000004</ele><time>2026-04-25T10:18:05.001Z</time></trkpt><trkpt lat="44.42907820526657" lon="8.95451997329824"><ele>25.0</ele><time>2026-04-25T10:18:08.001Z</time></trkpt><trkpt lat="44.42903395577229" lon="8.954438319010027"><ele>25.0</ele><time>2026-04-25T10:18:12Z</time></trkpt><trkpt lat="44.42897916355843" lon="8.954381153919638"><ele>25.0</ele><time>2026-04-25T10:18:16.001Z</time></trkpt><trkpt lat="44.42893254400973" lon="8.954280461934053"><ele>25.000000000000004</ele><time>2026-04-25T10:18:19.001Z</time></trkpt><trkpt lat="44.4288903872542" lon="8.954182603459953"><ele>25.0</ele><time>2026-04-25T10:18:22.001Z</time></trkpt><trkpt lat="44.42884228611259" lon="8.954077671279428"><ele>25.85714285714286</ele><time>2026-04-25T10:18:25.001Z</time></trkpt><trkpt lat="44.42883376152917" lon="8.95398108229827"><ele>26.714285714285715</ele><time>2026-04-25T10:18:27.001Z</time></trkpt><trkpt lat="44.42884602544436" lon="8.95389204551743"><ele>27.571428571428573</ele><time>2026-04-25T10:18:29.001Z</time></trkpt><trkpt lat="44.42886128838134" lon="8.95379294545665"><ele>28.42857142857143</ele><time>2026-04-25T10:18:31.001Z</time></trkpt><trkpt lat="44.428845013434554" lon="8.953706934779753"><ele>29.28571428571429</ele><time>2026-04-25T10:18:33.001Z</time></trkpt><trkpt lat="44.4288476598051" lon="8.953609684291056"><ele>30.142857142857146</ele><time>2026-04-25T10:18:35.001Z</time></trkpt><trkpt lat="44.428834800485774" lon="8.953518529551179"><ele>31.0</ele><time>2026-04-25T10:18:37.001Z</time></trkpt><trkpt lat="44.4288152394953" lon="8.953419233683716"><ele>29.333333333333336</ele><time>2026-04-25T10:18:39.001Z</time></trkpt><trkpt lat="44.428784455131314" lon="8.953322522701443"><ele>27.666666666666668</ele><time>2026-04-25T10:18:41.001Z</time></trkpt><trkpt lat="44.42876044079535" lon="8.953232967845205"><ele>26.0</ele><time>2026-04-25T10:18:43.001Z</time></trkpt><trkpt lat="44.42869608313312" lon="8.95310314292823"><ele>24.333333333333336</ele><time>2026-04-25T10:18:46.001Z</time></trkpt><trkpt lat="44.42865760374562" lon="8.953012125541347"><ele>22.666666666666668</ele><time>2026-04-25T10:18:48.001Z</time></trkpt><trkpt lat="44.42862446782704" lon="8.952918541031353"><ele>21.0</ele><time>2026-04-25T10:18:50.001Z</time></trkpt><trkpt lat="44.428602055384765" lon="8.952817433440902"><ele>21.0</ele><time>2026-04-25T10:18:52.001Z</time></trkpt><trkpt lat="44.42860172559684" lon="8.952716976787649"><ele>21.0</ele><time>2026-04-25T10:18:54.001Z</time></trkpt><trkpt lat="44.42861502793695" lon="8.952624435812295"><ele>21.0</ele><time>2026-04-25T10:18:56.001Z</time></trkpt><trkpt lat="44.428593940482116" lon="8.952520787698065"><ele>21.0</ele><time>2026-04-25T10:18:58.001Z</time></trkpt><trkpt lat="44.428580909402896" lon="8.952422747048633"><ele>21.0</ele><time>2026-04-25T10:19:00.001Z</time></trkpt><trkpt lat="44.42855160144303" lon="8.95233989993667"><ele>21.0</ele><time>2026-04-25T10:19:02.001Z</time></trkpt><trkpt lat="44.428533155852314" lon="8.952215154779651"><ele>21.0</ele><time>2026-04-25T10:19:05.001Z</time></trkpt><trkpt lat="44.428517866640206" lon="8.952078648279327"><ele>21.166666666666668</ele><time>2026-04-25T10:19:09.002Z</time></trkpt><trkpt lat="44.42850225691176" lon="8.951962885602619"><ele>21.333333333333332</ele><time>2026-04-25T10:19:12.002Z</time></trkpt><trkpt lat="44.42847811302139" lon="8.951850263633387"><ele>21.5</ele><time>2026-04-25T10:19:15.002Z</time></trkpt><trkpt lat="44.428453565427844" lon="8.95175897043973"><ele>21.666666666666664</ele><time>2026-04-25T10:19:19.002Z</time></trkpt><trkpt lat="44.42844487559806" lon="8.951653065980903"><ele>21.833333333333332</ele><time>2026-04-25T10:19:22.002Z</time></trkpt><trkpt lat="44.42840274627971" lon="8.951537800722802"><ele>22.0</ele><time>2026-04-25T10:19:25.002Z</time></trkpt><trkpt lat="44.428376355398065" lon="8.951447570068886"><ele>22.666666666666664</ele><time>2026-04-25T10:19:27.002Z</time></trkpt><trkpt lat="44.42835663358106" lon="8.951354043689767"><ele>23.333333333333332</ele><time>2026-04-25T10:19:29.002Z</time></trkpt><trkpt lat="44.42834159038562" lon="8.951250740487044"><ele>24.0</ele><time>2026-04-25T10:19:31.002Z</time></trkpt><trkpt lat="44.428281324811024" lon="8.951207076645362"><ele>24.666666666666664</ele><time>2026-04-25T10:19:33.002Z</time></trkpt><trkpt lat="44.428191793936946" lon="8.951168783862322"><ele>25.333333333333332</ele><time>2026-04-25T10:19:36.002Z</time></trkpt><trkpt lat="44.428162822389915" lon="8.951067791981936"><ele>26.0</ele><time>2026-04-25T10:19:38.002Z</time></trkpt><trkpt lat="44.42816340728433" lon="8.950970140828451"><ele>25.999999999999996</ele><time>2026-04-25T10:19:40.002Z</time></trkpt><trkpt lat="44.42819622027069" lon="8.95089220004959"><ele>26.0</ele><time>2026-04-25T10:19:42.002Z</time></trkpt><trkpt lat="44.42816806847826" lon="8.950757440850465"><ele>26.0</ele><time>2026-04-25T10:19:45.002Z</time></trkpt><trkpt lat="44.428133518286515" lon="8.950668510147214"><ele>26.0</ele><time>2026-04-25T10:19:47.002Z</time></trkpt><trkpt lat="44.42811424311698" lon="8.95057297197253"><ele>25.999999999999996</ele><time>2026-04-25T10:19:49.002Z</time></trkpt><trkpt lat="44.428085155933644" lon="8.950463397803823"><ele>26.0</ele><time>2026-04-25T10:19:52.002Z</time></trkpt><trkpt lat="44.42808090605968" lon="8.950372854172608"><ele>26.166666666666664</ele><time>2026-04-25T10:19:55.003Z</time></trkpt><trkpt lat="44.4280804510164" lon="8.950267343409347"><ele>26.333333333333332</ele><time>2026-04-25T10:20:05.001Z</time></trkpt><trkpt lat="44.42806763049818" lon="8.950176737760467"><ele>26.5</ele><time>2026-04-25T10:20:08Z</time></trkpt><trkpt lat="44.42804287007718" lon="8.950068857896985"><ele>26.666666666666664</ele><time>2026-04-25T10:20:12Z</time></trkpt><trkpt lat="44.42803575665341" lon="8.949980876443501"><ele>26.833333333333332</ele><time>2026-04-25T10:20:14Z</time></trkpt><trkpt lat="44.428013694662674" lon="8.949875597156455"><ele>27.0</ele><time>2026-04-25T10:20:17Z</time></trkpt><trkpt lat="44.42798380128858" lon="8.949757364662483"><ele>27.166666666666668</ele><time>2026-04-25T10:20:20Z</time></trkpt><trkpt lat="44.427957587794666" lon="8.949659843932059"><ele>27.333333333333336</ele><time>2026-04-25T10:20:23Z</time></trkpt><trkpt lat="44.42788586186448" lon="8.949613572581177"><ele>27.5</ele><time>2026-04-25T10:20:26Z</time></trkpt><trkpt lat="44.427909645416605" lon="8.949515062552067"><ele>27.666666666666668</ele><time>2026-04-25T10:20:37.001Z</time></trkpt><trkpt lat="44.42797733396709" lon="8.949481420753553"><ele>27.833333333333336</ele><time>2026-04-25T10:20:39.001Z</time></trkpt><trkpt lat="44.42804968521129" lon="8.949437869816562"><ele>28.0</ele><time>2026-04-25T10:20:42.001Z</time></trkpt><trkpt lat="44.42809837385686" lon="8.949360753333341"><ele>28.0</ele><time>2026-04-25T10:20:58.001Z</time></trkpt><trkpt lat="44.42807298900548" lon="8.94925719880853"><ele>28.0</ele><time>2026-04-25T10:21:02.001Z</time></trkpt><trkpt lat="44.428056157607806" lon="8.949164677938674"><ele>28.0</ele><time>2026-04-25T10:21:04.001Z</time></trkpt><trkpt lat="44.42803353028256" lon="8.949080055566549"><ele>28.0</ele><time>2026-04-25T10:21:06.001Z</time></trkpt><trkpt lat="44.42805100856303" lon="8.948985437304154"><ele>28.0</ele><time>2026-04-25T10:21:29.002Z</time></trkpt><trkpt lat="44.42801833135881" lon="8.948875614082223"><ele>28.0</ele><time>2026-04-25T10:21:33.002Z</time></trkpt><trkpt lat="44.42800223061313" lon="8.948767550957367"><ele>28.0</ele><time>2026-04-25T10:21:36.002Z</time></trkpt><trkpt lat="44.42796572060165" lon="8.948673469827122"><ele>27.333333333333336</ele><time>2026-04-25T10:21:40.002Z</time></trkpt><trkpt lat="44.42794262279991" lon="8.948584428555138"><ele>26.666666666666668</ele><time>2026-04-25T10:21:43.002Z</time></trkpt><trkpt lat="44.42793233191047" lon="8.948493855100049"><ele>26.0</ele><time>2026-04-25T10:21:46.002Z</time></trkpt><trkpt lat="44.42786647463083" lon="8.948412571671183"><ele>25.333333333333336</ele><time>2026-04-25T10:21:50.002Z</time></trkpt><trkpt lat="44.427835873605446" lon="8.948316951798835"><ele>24.666666666666668</ele><time>2026-04-25T10:21:54.002Z</time></trkpt><trkpt lat="44.42779434140106" lon="8.94820373880639"><ele>24.0</ele><time>2026-04-25T10:21:58.002Z</time></trkpt><trkpt lat="44.427753435089016" lon="8.948123990451352"><ele>23.999999999999996</ele><time>2026-04-25T10:22:00.002Z</time></trkpt><trkpt lat="44.427728371835244" lon="8.948036093726506"><ele>24.0</ele><time>2026-04-25T10:22:02.002Z</time></trkpt><trkpt lat="44.427676038309436" lon="8.947960278419531"><ele>24.0</ele><time>2026-04-25T10:22:05.002Z</time></trkpt><trkpt lat="44.42762301637966" lon="8.947888026038308"><ele>24.0</ele><time>2026-04-25T10:22:09Z</time></trkpt><trkpt lat="44.42756933156776" lon="8.94783291911499"><ele>24.0</ele><time>2026-04-25T10:22:14Z</time></trkpt><trkpt lat="44.42754753726303" lon="8.947717066292416"><ele>23.999999999999996</ele><time>2026-04-25T10:22:16Z</time></trkpt><trkpt lat="44.42746976136481" lon="8.947689215251724"><ele>24.0</ele><time>2026-04-25T10:22:19Z</time></trkpt><trkpt lat="44.42738826264181" lon="8.947636569801933"><ele>24.0</ele><time>2026-04-25T10:22:22Z</time></trkpt><trkpt lat="44.42731190483024" lon="8.947582131830579"><ele>24.0</ele><time>2026-04-25T10:22:24Z</time></trkpt><trkpt lat="44.42722322754662" lon="8.947543086783355"><ele>24.0</ele><time>2026-04-25T10:22:26Z</time></trkpt><trkpt lat="44.427114104514125" lon="8.947520250619746"><ele>24.0</ele><time>2026-04-25T10:22:28Z</time></trkpt><trkpt lat="44.42702260189907" lon="8.947507965672568"><ele>24.0</ele><time>2026-04-25T10:22:30Z</time></trkpt><trkpt lat="44.42691158134394" lon="8.947500476556671"><ele>25.0</ele><time>2026-04-25T10:22:32Z</time></trkpt><trkpt lat="44.42680168083401" lon="8.94748730387085"><ele>26.0</ele><time>2026-04-25T10:22:34Z</time></trkpt><trkpt lat="44.42670798074691" lon="8.947467419134595"><ele>27.0</ele><time>2026-04-25T10:22:36Z</time></trkpt><trkpt lat="44.42661031268896" lon="8.947467350507829"><ele>28.0</ele><time>2026-04-25T10:22:38Z</time></trkpt><trkpt lat="44.42654598811935" lon="8.947420522191319"><ele>29.0</ele><time>2026-04-25T10:22:40Z</time></trkpt><trkpt lat="44.42642959481953" lon="8.947425834426708"><ele>29.0</ele><time>2026-04-25T10:22:42Z</time></trkpt><trkpt lat="44.42632819009788" lon="8.947434555878186"><ele>29.0</ele><time>2026-04-25T10:22:44Z</time></trkpt><trkpt lat="44.42622661184592" lon="8.947430419918375"><ele>29.0</ele><time>2026-04-25T10:22:46Z</time></trkpt><trkpt lat="44.426120815350274" lon="8.947414835260762"><ele>29.0</ele><time>2026-04-25T10:22:48.001Z</time></trkpt><trkpt lat="44.42601698865172" lon="8.947415249182736"><ele>29.0</ele><time>2026-04-25T10:22:50.001Z</time></trkpt><trkpt lat="44.425905550007975" lon="8.947393929587742"><ele>28.4</ele><time>2026-04-25T10:22:52.001Z</time></trkpt><trkpt lat="44.425809445856615" lon="8.947377196231574"><ele>27.799999999999997</ele><time>2026-04-25T10:22:54.001Z</time></trkpt><trkpt lat="44.425707525148844" lon="8.94736302457066"><ele>27.200000000000003</ele><time>2026-04-25T10:22:56.001Z</time></trkpt><trkpt lat="44.425610448914306" lon="8.947340880919448"><ele>26.6</ele><time>2026-04-25T10:22:58.001Z</time></trkpt><trkpt lat="44.4255179843009" lon="8.947314404231792"><ele>26.0</ele><time>2026-04-25T10:23:00.001Z</time></trkpt><trkpt lat="44.425427016627474" lon="8.94730893164496"><ele>25.8</ele><time>2026-04-25T10:23:02.001Z</time></trkpt><trkpt lat="44.4253447093251" lon="8.947293898791454"><ele>25.6</ele><time>2026-04-25T10:23:04.001Z</time></trkpt><trkpt lat="44.425260016847545" lon="8.947277416226735"><ele>25.4</ele><time>2026-04-25T10:23:06.001Z</time></trkpt><trkpt lat="44.42517123634305" lon="8.947241245157754"><ele>25.2</ele><time>2026-04-25T10:23:08.001Z</time></trkpt><trkpt lat="44.425074652372984" lon="8.947223086706368"><ele>25.0</ele><time>2026-04-25T10:23:10.001Z</time></trkpt><trkpt lat="44.42496974138745" lon="8.947202108429607"><ele>25.0</ele><time>2026-04-25T10:23:12.001Z</time></trkpt><trkpt lat="44.42485670742869" lon="8.947205365815128"><ele>25.0</ele><time>2026-04-25T10:23:14.001Z</time></trkpt><trkpt lat="44.42474102766679" lon="8.94721556143498"><ele>25.0</ele><time>2026-04-25T10:23:16.001Z</time></trkpt><trkpt lat="44.4246200019001" lon="8.947192832254483"><ele>25.0</ele><time>2026-04-25T10:23:18.001Z</time></trkpt><trkpt lat="44.42450481112455" lon="8.947169116444975"><ele>24.0</ele><time>2026-04-25T10:23:20.001Z</time></trkpt><trkpt lat="44.424393256154545" lon="8.947142978669184"><ele>23.0</ele><time>2026-04-25T10:23:22.001Z</time></trkpt><trkpt lat="44.424273090416506" lon="8.947126697591493"><ele>22.0</ele><time>2026-04-25T10:23:24.001Z</time></trkpt><trkpt lat="44.424154808495004" lon="8.947105574558037"><ele>21.0</ele><time>2026-04-25T10:23:26.001Z</time></trkpt><trkpt lat="44.424035029913284" lon="8.947082153623365"><ele>21.0</ele><time>2026-04-25T10:23:28.001Z</time></trkpt><trkpt lat="44.423913986862246" lon="8.947075474627825"><ele>21.0</ele><time>2026-04-25T10:23:30.001Z</time></trkpt><trkpt lat="44.423789669989134" lon="8.947067044325102"><ele>21.0</ele><time>2026-04-25T10:23:32.001Z</time></trkpt><trkpt lat="44.42366975925154" lon="8.947047610573774"><ele>21.0</ele><time>2026-04-25T10:23:34.001Z</time></trkpt><trkpt lat="44.42355558225824" lon="8.947027650114604"><ele>20.333333333333332</ele><time>2026-04-25T10:23:36.002Z</time></trkpt><trkpt lat="44.42344561250206" lon="8.94700970480811"><ele>19.666666666666668</ele><time>2026-04-25T10:23:38.002Z</time></trkpt><trkpt lat="44.42334199722889" lon="8.947002045575614"><ele>19.0</ele><time>2026-04-25T10:23:40.002Z</time></trkpt><trkpt lat="44.42326477587807" lon="8.946999806996002"><ele>18.333333333333336</ele><time>2026-04-25T10:23:42.002Z</time></trkpt><trkpt lat="44.42319594535256" lon="8.947002486565616"><ele>17.666666666666668</ele><time>2026-04-25T10:24:06.002Z</time></trkpt><trkpt lat="44.423115016874604" lon="8.946985421420694"><ele>17.0</ele><time>2026-04-25T10:24:09.002Z</time></trkpt><trkpt lat="44.42303555184366" lon="8.946979984361711"><ele>16.666666666666668</ele><time>2026-04-25T10:24:12.002Z</time></trkpt><trkpt lat="44.42297337206" lon="8.946943284622822"><ele>16.333333333333336</ele><time>2026-04-25T10:24:22Z</time></trkpt><trkpt lat="44.422889777018014" lon="8.946943016628289"><ele>16.0</ele><time>2026-04-25T10:24:29Z</time></trkpt><trkpt lat="44.422806647256046" lon="8.946904211308615"><ele>15.666666666666668</ele><time>2026-04-25T10:24:32Z</time></trkpt><trkpt lat="44.42274064749865" lon="8.94690738270049"><ele>15.333333333333334</ele><time>2026-04-25T10:24:35Z</time></trkpt><trkpt lat="44.422655559628076" lon="8.946923103456907"><ele>15.0</ele><time>2026-04-25T10:24:38Z</time></trkpt><trkpt lat="44.422553880016515" lon="8.9469321886635"><ele>15.0</ele><time>2026-04-25T10:24:41Z</time></trkpt><trkpt lat="44.422480838011666" lon="8.946883891007918"><ele>15.0</ele><time>2026-04-25T10:24:43Z</time></trkpt><trkpt lat="44.422393128395115" lon="8.946882834822903"><ele>15.0</ele><time>2026-04-25T10:24:45Z</time></trkpt><trkpt lat="44.42230488118212" lon="8.946866112459213"><ele>15.0</ele><time>2026-04-25T10:24:47Z</time></trkpt><trkpt lat="44.422207094943495" lon="8.94686695442198"><ele>15.0</ele><time>2026-04-25T10:24:49Z</time></trkpt><trkpt lat="44.422092319959" lon="8.946847677285431"><ele>14.8</ele><time>2026-04-25T10:24:52Z</time></trkpt><trkpt lat="44.42198412183811" lon="8.946837224476418"><ele>14.6</ele><time>2026-04-25T10:24:54.001Z</time></trkpt><trkpt lat="44.42188143776768" lon="8.946844132250913"><ele>14.399999999999999</ele><time>2026-04-25T10:24:56.001Z</time></trkpt><trkpt lat="44.421787639662845" lon="8.946818762991473"><ele>14.2</ele><time>2026-04-25T10:24:58.001Z</time></trkpt><trkpt lat="44.42168916019588" lon="8.946818431577416"><ele>14.0</ele><time>2026-04-25T10:25:00.001Z</time></trkpt><trkpt lat="44.42159116386626" lon="8.94680502100354"><ele>14.0</ele><time>2026-04-25T10:25:02.001Z</time></trkpt><trkpt lat="44.42149728907291" lon="8.946781576310064"><ele>13.999999999999998</ele><time>2026-04-25T10:25:04.001Z</time></trkpt><trkpt lat="44.421397234687944" lon="8.946756779604353"><ele>13.999999999999998</ele><time>2026-04-25T10:25:06.001Z</time></trkpt><trkpt lat="44.421300734181735" lon="8.946749498768494"><ele>14.0</ele><time>2026-04-25T10:25:08.001Z</time></trkpt><trkpt lat="44.42120211302984" lon="8.946744858284465"><ele>14.0</ele><time>2026-04-25T10:25:10.001Z</time></trkpt><trkpt lat="44.42110252200415" lon="8.946764698826389"><ele>14.000000000000002</ele><time>2026-04-25T10:25:12.001Z</time></trkpt><trkpt lat="44.42100473936762" lon="8.946772808066578"><ele>14.0</ele><time>2026-04-25T10:25:14.001Z</time></trkpt><trkpt lat="44.42091190725685" lon="8.946799234787756"><ele>14.0</ele><time>2026-04-25T10:25:16.001Z</time></trkpt><trkpt lat="44.42082336818408" lon="8.946821831401449"><ele>14.0</ele><time>2026-04-25T10:25:18.001Z</time></trkpt><trkpt lat="44.420739910682606" lon="8.946847549327327"><ele>14.000000000000002</ele><time>2026-04-25T10:25:20.001Z</time></trkpt><trkpt lat="44.420663508011835" lon="8.94685453828078"><ele>14.0</ele><time>2026-04-25T10:25:22.001Z</time></trkpt><trkpt lat="44.42053830717321" lon="8.946892476154865"><ele>14.0</ele><time>2026-04-25T10:25:55.002Z</time></trkpt><trkpt lat="44.420587371470944" lon="8.946781910459878"><ele>14.0</ele><time>2026-04-25T10:33:58.628Z</time></trkpt><trkpt lat="44.420583869808645" lon="8.946691620393553"><ele>21.0</ele><time>2026-04-25T10:34:02.004Z</time></trkpt><trkpt lat="44.42056366913646" lon="8.946803784524036"><ele>14.0</ele><time>2026-04-25T10:37:58.002Z</time></trkpt><trkpt lat="44.42059355894073" lon="8.946688326784663"><ele>21.0</ele><time>2026-04-25T10:38:50.023Z</time></trkpt><trkpt lat="44.42069878411553" lon="8.946687902012366"><ele>21.0</ele><time>2026-04-25T10:39:12Z</time></trkpt></trkseg></trk></gpx>